<?xml version="1.0" encoding="UTF-8" standalone="no" ?>
<gpx xmlns="http://www.topografix.com/GPX/1/1" xmlns:xsi="http://www.w3.org/2001/XMLSchema-instance" xsi:schemaLocation="http://www.topografix.com/GPX/1/1 http://www.topografix.com/GPX/1/1/gpx.xsd" version="1.1" creator="VisuGPX - https://www.visugpx.com">
  <metadata>
    <name>Colpo - St Jean Brévelay</name>
    <desc><![CDATA[boucle de 37 km entre Colpo et St Jean Brévelay]]></desc>
  </metadata>
  <trk>
    <name><![CDATA[colpo - st jean brévelay  37 km]]></name>
    <trkseg>
      <trkpt lat="47.81224" lon="-2.80789">
        <ele>115.11</ele>
        <time>2018-01-19T08:19:50Z</time>
      </trkpt>
      <trkpt lat="47.81224" lon="-2.80789">
        <ele>115.11</ele>
        <time>2018-01-19T08:19:51Z</time>
      </trkpt>
      <trkpt lat="47.81226" lon="-2.80791">
        <ele>115.03</ele>
        <time>2018-01-19T08:20:20Z</time>
      </trkpt>
      <trkpt lat="47.81225" lon="-2.80791">
        <ele>114.89</ele>
        <time>2018-01-19T08:20:39Z</time>
      </trkpt>
      <trkpt lat="47.81225" lon="-2.80792">
        <ele>114.81</ele>
        <time>2018-01-19T08:20:58Z</time>
      </trkpt>
      <trkpt lat="47.81225" lon="-2.80799">
        <ele>114.94</ele>
        <time>2018-01-19T08:21:12Z</time>
      </trkpt>
      <trkpt lat="47.8122" lon="-2.80806">
        <ele>114.53</ele>
        <time>2018-01-19T08:21:34Z</time>
      </trkpt>
      <trkpt lat="47.81213" lon="-2.8081">
        <ele>114.42</ele>
        <time>2018-01-19T08:21:41Z</time>
      </trkpt>
      <trkpt lat="47.81187" lon="-2.80798">
        <ele>113.62</ele>
        <time>2018-01-19T08:22:02Z</time>
      </trkpt>
      <trkpt lat="47.81172" lon="-2.8078">
        <ele>112.69</ele>
        <time>2018-01-19T08:22:16Z</time>
      </trkpt>
      <trkpt lat="47.81154" lon="-2.80758">
        <ele>111.99</ele>
        <time>2018-01-19T08:22:31Z</time>
      </trkpt>
      <trkpt lat="47.81135" lon="-2.80734">
        <ele>110.96</ele>
        <time>2018-01-19T08:22:48Z</time>
      </trkpt>
      <trkpt lat="47.81115" lon="-2.80708">
        <ele>110.47</ele>
        <time>2018-01-19T08:23:07Z</time>
      </trkpt>
      <trkpt lat="47.81094" lon="-2.80682">
        <ele>109.89</ele>
        <time>2018-01-19T08:23:25Z</time>
      </trkpt>
      <trkpt lat="47.81078" lon="-2.80663">
        <ele>109.86</ele>
        <time>2018-01-19T08:23:38Z</time>
      </trkpt>
      <trkpt lat="47.81052" lon="-2.80663">
        <ele>109.53</ele>
        <time>2018-01-19T08:23:56Z</time>
      </trkpt>
      <trkpt lat="47.81014" lon="-2.80671">
        <ele>107.93</ele>
        <time>2018-01-19T08:24:22Z</time>
      </trkpt>
      <trkpt lat="47.80981" lon="-2.80678">
        <ele>106.82</ele>
        <time>2018-01-19T08:24:45Z</time>
      </trkpt>
      <trkpt lat="47.80945" lon="-2.80685">
        <ele>105.77</ele>
        <time>2018-01-19T08:25:09Z</time>
      </trkpt>
      <trkpt lat="47.80913" lon="-2.80694">
        <ele>104.79</ele>
        <time>2018-01-19T08:25:31Z</time>
      </trkpt>
      <trkpt lat="47.80885" lon="-2.80705">
        <ele>104.21</ele>
        <time>2018-01-19T08:25:50Z</time>
      </trkpt>
      <trkpt lat="47.80857" lon="-2.8072">
        <ele>103.92</ele>
        <time>2018-01-19T08:26:10Z</time>
      </trkpt>
      <trkpt lat="47.80827" lon="-2.80733">
        <ele>105.27</ele>
        <time>2018-01-19T08:26:31Z</time>
      </trkpt>
      <trkpt lat="47.80799" lon="-2.8075">
        <ele>107.1</ele>
        <time>2018-01-19T08:26:51Z</time>
      </trkpt>
      <trkpt lat="47.80781" lon="-2.80779">
        <ele>108.86</ele>
        <time>2018-01-19T08:27:10Z</time>
      </trkpt>
      <trkpt lat="47.80765" lon="-2.80816">
        <ele>110.88</ele>
        <time>2018-01-19T08:27:31Z</time>
      </trkpt>
      <trkpt lat="47.80748" lon="-2.80851">
        <ele>112.36</ele>
        <time>2018-01-19T08:27:52Z</time>
      </trkpt>
      <trkpt lat="47.8073" lon="-2.80888">
        <ele>111.87</ele>
        <time>2018-01-19T08:28:13Z</time>
      </trkpt>
      <trkpt lat="47.80703" lon="-2.8089">
        <ele>110.08</ele>
        <time>2018-01-19T08:28:31Z</time>
      </trkpt>
      <trkpt lat="47.80681" lon="-2.80864">
        <ele>107.92</ele>
        <time>2018-01-19T08:28:50Z</time>
      </trkpt>
      <trkpt lat="47.80653" lon="-2.80842">
        <ele>105.62</ele>
        <time>2018-01-19T08:29:12Z</time>
      </trkpt>
      <trkpt lat="47.80632" lon="-2.80835">
        <ele>104.77</ele>
        <time>2018-01-19T08:29:27Z</time>
      </trkpt>
      <trkpt lat="47.80603" lon="-2.80823">
        <ele>103.85</ele>
        <time>2018-01-19T08:29:47Z</time>
      </trkpt>
      <trkpt lat="47.80579" lon="-2.80813">
        <ele>103.32</ele>
        <time>2018-01-19T08:30:04Z</time>
      </trkpt>
      <trkpt lat="47.80549" lon="-2.80801">
        <ele>102.6</ele>
        <time>2018-01-19T08:30:26Z</time>
      </trkpt>
      <trkpt lat="47.8053" lon="-2.8079">
        <ele>101.68</ele>
        <time>2018-01-19T08:30:44Z</time>
      </trkpt>
      <trkpt lat="47.80529" lon="-2.8079">
        <ele>101.46</ele>
        <time>2018-01-19T08:30:58Z</time>
      </trkpt>
      <trkpt lat="47.80499" lon="-2.80791">
        <ele>100.75</ele>
        <time>2018-01-19T08:31:15Z</time>
      </trkpt>
      <trkpt lat="47.80467" lon="-2.8079">
        <ele>99.74</ele>
        <time>2018-01-19T08:31:34Z</time>
      </trkpt>
      <trkpt lat="47.80442" lon="-2.808">
        <ele>98.96</ele>
        <time>2018-01-19T08:31:51Z</time>
      </trkpt>
      <trkpt lat="47.80417" lon="-2.80809">
        <ele>98.27</ele>
        <time>2018-01-19T08:32:07Z</time>
      </trkpt>
      <trkpt lat="47.80375" lon="-2.80817">
        <ele>96.95</ele>
        <time>2018-01-19T08:32:29Z</time>
      </trkpt>
      <trkpt lat="47.80335" lon="-2.80823">
        <ele>96.11</ele>
        <time>2018-01-19T08:32:52Z</time>
      </trkpt>
      <trkpt lat="47.80316" lon="-2.80827">
        <ele>95.59</ele>
        <time>2018-01-19T08:33:04Z</time>
      </trkpt>
      <trkpt lat="47.80295" lon="-2.80834">
        <ele>94.82</ele>
        <time>2018-01-19T08:33:19Z</time>
      </trkpt>
      <trkpt lat="47.80267" lon="-2.80841">
        <ele>94.19</ele>
        <time>2018-01-19T08:33:35Z</time>
      </trkpt>
      <trkpt lat="47.80218" lon="-2.80839">
        <ele>94.06</ele>
        <time>2018-01-19T08:33:59Z</time>
      </trkpt>
      <trkpt lat="47.80181" lon="-2.80836">
        <ele>93.9</ele>
        <time>2018-01-19T08:34:19Z</time>
      </trkpt>
      <trkpt lat="47.80156" lon="-2.80833">
        <ele>93.33</ele>
        <time>2018-01-19T08:34:35Z</time>
      </trkpt>
      <trkpt lat="47.80132" lon="-2.80831">
        <ele>93.08</ele>
        <time>2018-01-19T08:34:52Z</time>
      </trkpt>
      <trkpt lat="47.8013" lon="-2.80831">
        <ele>93.07</ele>
        <time>2018-01-19T08:34:53Z</time>
      </trkpt>
      <trkpt lat="47.80125" lon="-2.80831">
        <ele>93.06</ele>
        <time>2018-01-19T08:34:57Z</time>
      </trkpt>
      <trkpt lat="47.80098" lon="-2.80829">
        <ele>92.99</ele>
        <time>2018-01-19T08:35:15Z</time>
      </trkpt>
      <trkpt lat="47.80091" lon="-2.80829">
        <ele>92.89</ele>
        <time>2018-01-19T08:35:23Z</time>
      </trkpt>
      <trkpt lat="47.80088" lon="-2.80862">
        <ele>93.4</ele>
        <time>2018-01-19T08:35:39Z</time>
      </trkpt>
      <trkpt lat="47.80087" lon="-2.80865">
        <ele>93.54</ele>
        <time>2018-01-19T08:35:40Z</time>
      </trkpt>
      <trkpt lat="47.80064" lon="-2.80885">
        <ele>95.66</ele>
        <time>2018-01-19T08:35:55Z</time>
      </trkpt>
      <trkpt lat="47.80042" lon="-2.80895">
        <ele>97.58</ele>
        <time>2018-01-19T08:36:10Z</time>
      </trkpt>
      <trkpt lat="47.80017" lon="-2.80905">
        <ele>98.86</ele>
        <time>2018-01-19T08:36:24Z</time>
      </trkpt>
      <trkpt lat="47.7999" lon="-2.8091">
        <ele>100.49</ele>
        <time>2018-01-19T08:36:40Z</time>
      </trkpt>
      <trkpt lat="47.79964" lon="-2.80917">
        <ele>101.69</ele>
        <time>2018-01-19T08:36:58Z</time>
      </trkpt>
      <trkpt lat="47.79941" lon="-2.80922">
        <ele>102.25</ele>
        <time>2018-01-19T08:37:14Z</time>
      </trkpt>
      <trkpt lat="47.79925" lon="-2.80928">
        <ele>102.04</ele>
        <time>2018-01-19T08:37:25Z</time>
      </trkpt>
      <trkpt lat="47.79904" lon="-2.80928">
        <ele>102.13</ele>
        <time>2018-01-19T08:37:39Z</time>
      </trkpt>
      <trkpt lat="47.7989" lon="-2.80922">
        <ele>102.66</ele>
        <time>2018-01-19T08:37:49Z</time>
      </trkpt>
      <trkpt lat="47.79886" lon="-2.80918">
        <ele>102.88</ele>
        <time>2018-01-19T08:37:53Z</time>
      </trkpt>
      <trkpt lat="47.79877" lon="-2.80911">
        <ele>103.17</ele>
        <time>2018-01-19T08:38:01Z</time>
      </trkpt>
      <trkpt lat="47.79872" lon="-2.80907">
        <ele>103.39</ele>
        <time>2018-01-19T08:38:04Z</time>
      </trkpt>
      <trkpt lat="47.79853" lon="-2.80901">
        <ele>104.34</ele>
        <time>2018-01-19T08:38:15Z</time>
      </trkpt>
      <trkpt lat="47.79836" lon="-2.809">
        <ele>106.19</ele>
        <time>2018-01-19T08:38:27Z</time>
      </trkpt>
      <trkpt lat="47.79825" lon="-2.80896">
        <ele>107.56</ele>
        <time>2018-01-19T08:38:35Z</time>
      </trkpt>
      <trkpt lat="47.79821" lon="-2.80895">
        <ele>108.16</ele>
        <time>2018-01-19T08:38:38Z</time>
      </trkpt>
      <trkpt lat="47.798" lon="-2.80885">
        <ele>109.51</ele>
        <time>2018-01-19T08:38:50Z</time>
      </trkpt>
      <trkpt lat="47.79795" lon="-2.80885">
        <ele>109.76</ele>
        <time>2018-01-19T08:38:54Z</time>
      </trkpt>
      <trkpt lat="47.7978" lon="-2.8088">
        <ele>110.85</ele>
        <time>2018-01-19T08:39:04Z</time>
      </trkpt>
      <trkpt lat="47.79774" lon="-2.8088">
        <ele>111.44</ele>
        <time>2018-01-19T08:39:09Z</time>
      </trkpt>
      <trkpt lat="47.79751" lon="-2.80885">
        <ele>112.7</ele>
        <time>2018-01-19T08:39:23Z</time>
      </trkpt>
      <trkpt lat="47.79742" lon="-2.80887">
        <ele>113.43</ele>
        <time>2018-01-19T08:39:29Z</time>
      </trkpt>
      <trkpt lat="47.79738" lon="-2.80893">
        <ele>113.9</ele>
        <time>2018-01-19T08:39:33Z</time>
      </trkpt>
      <trkpt lat="47.79731" lon="-2.80913">
        <ele>114.98</ele>
        <time>2018-01-19T08:39:44Z</time>
      </trkpt>
      <trkpt lat="47.7972" lon="-2.80929">
        <ele>116.13</ele>
        <time>2018-01-19T08:39:57Z</time>
      </trkpt>
      <trkpt lat="47.79709" lon="-2.80944">
        <ele>116.56</ele>
        <time>2018-01-19T08:40:12Z</time>
      </trkpt>
      <trkpt lat="47.79703" lon="-2.80974">
        <ele>117.01</ele>
        <time>2018-01-19T08:40:26Z</time>
      </trkpt>
      <trkpt lat="47.79697" lon="-2.80985">
        <ele>116.84</ele>
        <time>2018-01-19T08:40:32Z</time>
      </trkpt>
      <trkpt lat="47.79693" lon="-2.8102">
        <ele>116.66</ele>
        <time>2018-01-19T08:40:45Z</time>
      </trkpt>
      <trkpt lat="47.7969" lon="-2.81047">
        <ele>115.97</ele>
        <time>2018-01-19T08:40:57Z</time>
      </trkpt>
      <trkpt lat="47.7968" lon="-2.81072">
        <ele>115.43</ele>
        <time>2018-01-19T08:41:06Z</time>
      </trkpt>
      <trkpt lat="47.79673" lon="-2.81074">
        <ele>114.85</ele>
        <time>2018-01-19T08:41:11Z</time>
      </trkpt>
      <trkpt lat="47.79658" lon="-2.81084">
        <ele>113.56</ele>
        <time>2018-01-19T08:41:23Z</time>
      </trkpt>
      <trkpt lat="47.79653" lon="-2.81091">
        <ele>112.73</ele>
        <time>2018-01-19T08:41:28Z</time>
      </trkpt>
      <trkpt lat="47.79645" lon="-2.81106">
        <ele>111.43</ele>
        <time>2018-01-19T08:41:37Z</time>
      </trkpt>
      <trkpt lat="47.79634" lon="-2.81122">
        <ele>110.21</ele>
        <time>2018-01-19T08:41:45Z</time>
      </trkpt>
      <trkpt lat="47.79622" lon="-2.81135">
        <ele>109.11</ele>
        <time>2018-01-19T08:41:54Z</time>
      </trkpt>
      <trkpt lat="47.79602" lon="-2.81181">
        <ele>106.08</ele>
        <time>2018-01-19T08:42:11Z</time>
      </trkpt>
      <trkpt lat="47.79591" lon="-2.81196">
        <ele>104.97</ele>
        <time>2018-01-19T08:42:21Z</time>
      </trkpt>
      <trkpt lat="47.79576" lon="-2.81204">
        <ele>105.18</ele>
        <time>2018-01-19T08:42:29Z</time>
      </trkpt>
      <trkpt lat="47.79556" lon="-2.81201">
        <ele>105.96</ele>
        <time>2018-01-19T08:42:39Z</time>
      </trkpt>
      <trkpt lat="47.79555" lon="-2.812">
        <ele>106.05</ele>
        <time>2018-01-19T08:42:40Z</time>
      </trkpt>
      <trkpt lat="47.79528" lon="-2.81188">
        <ele>107.34</ele>
        <time>2018-01-19T08:42:53Z</time>
      </trkpt>
      <trkpt lat="47.79492" lon="-2.81174">
        <ele>107.91</ele>
        <time>2018-01-19T08:43:11Z</time>
      </trkpt>
      <trkpt lat="47.79464" lon="-2.81168">
        <ele>107.21</ele>
        <time>2018-01-19T08:43:25Z</time>
      </trkpt>
      <trkpt lat="47.79431" lon="-2.81163">
        <ele>105.72</ele>
        <time>2018-01-19T08:43:43Z</time>
      </trkpt>
      <trkpt lat="47.79409" lon="-2.81161">
        <ele>104.75</ele>
        <time>2018-01-19T08:43:55Z</time>
      </trkpt>
      <trkpt lat="47.79367" lon="-2.81155">
        <ele>102.6</ele>
        <time>2018-01-19T08:44:19Z</time>
      </trkpt>
      <trkpt lat="47.79338" lon="-2.81145">
        <ele>101.18</ele>
        <time>2018-01-19T08:44:37Z</time>
      </trkpt>
      <trkpt lat="47.79315" lon="-2.81133">
        <ele>100.11</ele>
        <time>2018-01-19T08:44:50Z</time>
      </trkpt>
      <trkpt lat="47.79288" lon="-2.81112">
        <ele>99.32</ele>
        <time>2018-01-19T08:45:08Z</time>
      </trkpt>
      <trkpt lat="47.79269" lon="-2.81098">
        <ele>98.99</ele>
        <time>2018-01-19T08:45:23Z</time>
      </trkpt>
      <trkpt lat="47.79251" lon="-2.81084">
        <ele>98.72</ele>
        <time>2018-01-19T08:45:35Z</time>
      </trkpt>
      <trkpt lat="47.79229" lon="-2.81068">
        <ele>98.3</ele>
        <time>2018-01-19T08:45:49Z</time>
      </trkpt>
      <trkpt lat="47.79206" lon="-2.81049">
        <ele>97.44</ele>
        <time>2018-01-19T08:46:02Z</time>
      </trkpt>
      <trkpt lat="47.79176" lon="-2.81029">
        <ele>96.72</ele>
        <time>2018-01-19T08:46:20Z</time>
      </trkpt>
      <trkpt lat="47.7916" lon="-2.81022">
        <ele>96.14</ele>
        <time>2018-01-19T08:46:29Z</time>
      </trkpt>
      <trkpt lat="47.79159" lon="-2.81022">
        <ele>96.1</ele>
        <time>2018-01-19T08:46:30Z</time>
      </trkpt>
      <trkpt lat="47.79158" lon="-2.81024">
        <ele>96.07</ele>
        <time>2018-01-19T08:46:31Z</time>
      </trkpt>
      <trkpt lat="47.79158" lon="-2.81026">
        <ele>96.04</ele>
        <time>2018-01-19T08:46:32Z</time>
      </trkpt>
      <trkpt lat="47.79157" lon="-2.81029">
        <ele>95.96</ele>
        <time>2018-01-19T08:46:33Z</time>
      </trkpt>
      <trkpt lat="47.79157" lon="-2.81032">
        <ele>95.89</ele>
        <time>2018-01-19T08:46:34Z</time>
      </trkpt>
      <trkpt lat="47.79153" lon="-2.8108">
        <ele>95.76</ele>
        <time>2018-01-19T08:46:52Z</time>
      </trkpt>
      <trkpt lat="47.79151" lon="-2.81122">
        <ele>94.94</ele>
        <time>2018-01-19T08:47:08Z</time>
      </trkpt>
      <trkpt lat="47.79149" lon="-2.81175">
        <ele>92.39</ele>
        <time>2018-01-19T08:47:29Z</time>
      </trkpt>
      <trkpt lat="47.79149" lon="-2.81186">
        <ele>91.42</ele>
        <time>2018-01-19T08:47:34Z</time>
      </trkpt>
      <trkpt lat="47.79148" lon="-2.81188">
        <ele>91.19</ele>
        <time>2018-01-19T08:47:35Z</time>
      </trkpt>
      <trkpt lat="47.79147" lon="-2.8119">
        <ele>91.02</ele>
        <time>2018-01-19T08:47:36Z</time>
      </trkpt>
      <trkpt lat="47.79146" lon="-2.81191">
        <ele>90.86</ele>
        <time>2018-01-19T08:47:37Z</time>
      </trkpt>
      <trkpt lat="47.79144" lon="-2.81193">
        <ele>90.67</ele>
        <time>2018-01-19T08:47:38Z</time>
      </trkpt>
      <trkpt lat="47.79143" lon="-2.81194">
        <ele>90.51</ele>
        <time>2018-01-19T08:47:39Z</time>
      </trkpt>
      <trkpt lat="47.79141" lon="-2.81195">
        <ele>90.37</ele>
        <time>2018-01-19T08:47:40Z</time>
      </trkpt>
      <trkpt lat="47.7914" lon="-2.81196">
        <ele>90.22</ele>
        <time>2018-01-19T08:47:41Z</time>
      </trkpt>
      <trkpt lat="47.79138" lon="-2.81197">
        <ele>89.97</ele>
        <time>2018-01-19T08:47:42Z</time>
      </trkpt>
      <trkpt lat="47.79137" lon="-2.81198">
        <ele>89.86</ele>
        <time>2018-01-19T08:47:43Z</time>
      </trkpt>
      <trkpt lat="47.79135" lon="-2.81199">
        <ele>89.77</ele>
        <time>2018-01-19T08:47:44Z</time>
      </trkpt>
      <trkpt lat="47.79133" lon="-2.812">
        <ele>89.7</ele>
        <time>2018-01-19T08:47:45Z</time>
      </trkpt>
      <trkpt lat="47.79132" lon="-2.81201">
        <ele>89.63</ele>
        <time>2018-01-19T08:47:46Z</time>
      </trkpt>
      <trkpt lat="47.7913" lon="-2.81202">
        <ele>89.56</ele>
        <time>2018-01-19T08:47:47Z</time>
      </trkpt>
      <trkpt lat="47.79129" lon="-2.81204">
        <ele>89.5</ele>
        <time>2018-01-19T08:47:48Z</time>
      </trkpt>
      <trkpt lat="47.79127" lon="-2.81205">
        <ele>89.42</ele>
        <time>2018-01-19T08:47:49Z</time>
      </trkpt>
      <trkpt lat="47.79126" lon="-2.81206">
        <ele>89.33</ele>
        <time>2018-01-19T08:47:50Z</time>
      </trkpt>
      <trkpt lat="47.79124" lon="-2.81208">
        <ele>89.23</ele>
        <time>2018-01-19T08:47:51Z</time>
      </trkpt>
      <trkpt lat="47.79122" lon="-2.81209">
        <ele>89.15</ele>
        <time>2018-01-19T08:47:52Z</time>
      </trkpt>
      <trkpt lat="47.79121" lon="-2.81211">
        <ele>89.07</ele>
        <time>2018-01-19T08:47:53Z</time>
      </trkpt>
      <trkpt lat="47.79121" lon="-2.81213">
        <ele>88.97</ele>
        <time>2018-01-19T08:47:54Z</time>
      </trkpt>
      <trkpt lat="47.7912" lon="-2.81216">
        <ele>88.88</ele>
        <time>2018-01-19T08:47:55Z</time>
      </trkpt>
      <trkpt lat="47.7912" lon="-2.81218">
        <ele>88.79</ele>
        <time>2018-01-19T08:47:56Z</time>
      </trkpt>
      <trkpt lat="47.79119" lon="-2.81224">
        <ele>88.5</ele>
        <time>2018-01-19T08:47:59Z</time>
      </trkpt>
      <trkpt lat="47.79119" lon="-2.81226">
        <ele>88.42</ele>
        <time>2018-01-19T08:48:00Z</time>
      </trkpt>
      <trkpt lat="47.79129" lon="-2.81267">
        <ele>87.85</ele>
        <time>2018-01-19T08:48:17Z</time>
      </trkpt>
      <trkpt lat="47.79129" lon="-2.81269">
        <ele>87.85</ele>
        <time>2018-01-19T08:48:18Z</time>
      </trkpt>
      <trkpt lat="47.79128" lon="-2.81272">
        <ele>87.85</ele>
        <time>2018-01-19T08:48:19Z</time>
      </trkpt>
      <trkpt lat="47.79113" lon="-2.81303">
        <ele>86.26</ele>
        <time>2018-01-19T08:48:34Z</time>
      </trkpt>
      <trkpt lat="47.79112" lon="-2.81303">
        <ele>86.12</ele>
        <time>2018-01-19T08:48:35Z</time>
      </trkpt>
      <trkpt lat="47.79107" lon="-2.81308">
        <ele>85.68</ele>
        <time>2018-01-19T08:48:38Z</time>
      </trkpt>
      <trkpt lat="47.7909" lon="-2.81319">
        <ele>84.55</ele>
        <time>2018-01-19T08:48:50Z</time>
      </trkpt>
      <trkpt lat="47.79087" lon="-2.81324">
        <ele>84.4</ele>
        <time>2018-01-19T08:48:54Z</time>
      </trkpt>
      <trkpt lat="47.79081" lon="-2.81343">
        <ele>83.47</ele>
        <time>2018-01-19T08:49:04Z</time>
      </trkpt>
      <trkpt lat="47.79072" lon="-2.81373">
        <ele>81.72</ele>
        <time>2018-01-19T08:49:20Z</time>
      </trkpt>
      <trkpt lat="47.7907" lon="-2.81376">
        <ele>81.65</ele>
        <time>2018-01-19T08:49:22Z</time>
      </trkpt>
      <trkpt lat="47.79066" lon="-2.81405">
        <ele>80.64</ele>
        <time>2018-01-19T08:49:34Z</time>
      </trkpt>
      <trkpt lat="47.79064" lon="-2.81431">
        <ele>80.11</ele>
        <time>2018-01-19T08:49:45Z</time>
      </trkpt>
      <trkpt lat="47.79062" lon="-2.81438">
        <ele>79.99</ele>
        <time>2018-01-19T08:49:48Z</time>
      </trkpt>
      <trkpt lat="47.79061" lon="-2.81448">
        <ele>79.69</ele>
        <time>2018-01-19T08:49:52Z</time>
      </trkpt>
      <trkpt lat="47.79057" lon="-2.81492">
        <ele>78.17</ele>
        <time>2018-01-19T08:50:08Z</time>
      </trkpt>
      <trkpt lat="47.79046" lon="-2.8153">
        <ele>77.76</ele>
        <time>2018-01-19T08:50:22Z</time>
      </trkpt>
      <trkpt lat="47.79037" lon="-2.81545">
        <ele>77.72</ele>
        <time>2018-01-19T08:50:29Z</time>
      </trkpt>
      <trkpt lat="47.79034" lon="-2.8158">
        <ele>77.31</ele>
        <time>2018-01-19T08:50:42Z</time>
      </trkpt>
      <trkpt lat="47.79029" lon="-2.81605">
        <ele>77.09</ele>
        <time>2018-01-19T08:50:53Z</time>
      </trkpt>
      <trkpt lat="47.79028" lon="-2.81633">
        <ele>75.56</ele>
        <time>2018-01-19T08:51:05Z</time>
      </trkpt>
      <trkpt lat="47.79026" lon="-2.81652">
        <ele>73.6</ele>
        <time>2018-01-19T08:51:14Z</time>
      </trkpt>
      <trkpt lat="47.79026" lon="-2.81658">
        <ele>73.25</ele>
        <time>2018-01-19T08:51:16Z</time>
      </trkpt>
      <trkpt lat="47.79026" lon="-2.81662">
        <ele>73.08</ele>
        <time>2018-01-19T08:51:17Z</time>
      </trkpt>
      <trkpt lat="47.79026" lon="-2.81666">
        <ele>72.91</ele>
        <time>2018-01-19T08:51:18Z</time>
      </trkpt>
      <trkpt lat="47.79026" lon="-2.8167">
        <ele>72.74</ele>
        <time>2018-01-19T08:51:19Z</time>
      </trkpt>
      <trkpt lat="47.79025" lon="-2.81673">
        <ele>72.56</ele>
        <time>2018-01-19T08:51:20Z</time>
      </trkpt>
      <trkpt lat="47.79025" lon="-2.81676">
        <ele>72.4</ele>
        <time>2018-01-19T08:51:21Z</time>
      </trkpt>
      <trkpt lat="47.79025" lon="-2.81679">
        <ele>72.26</ele>
        <time>2018-01-19T08:51:22Z</time>
      </trkpt>
      <trkpt lat="47.79025" lon="-2.81682">
        <ele>72.13</ele>
        <time>2018-01-19T08:51:23Z</time>
      </trkpt>
      <trkpt lat="47.79025" lon="-2.81685">
        <ele>71.85</ele>
        <time>2018-01-19T08:51:24Z</time>
      </trkpt>
      <trkpt lat="47.79025" lon="-2.81691">
        <ele>71.46</ele>
        <time>2018-01-19T08:51:27Z</time>
      </trkpt>
      <trkpt lat="47.79029" lon="-2.81724">
        <ele>71.42</ele>
        <time>2018-01-19T08:51:42Z</time>
      </trkpt>
      <trkpt lat="47.79031" lon="-2.81751">
        <ele>71.82</ele>
        <time>2018-01-19T08:51:52Z</time>
      </trkpt>
      <trkpt lat="47.79044" lon="-2.81758">
        <ele>71.93</ele>
        <time>2018-01-19T08:52:03Z</time>
      </trkpt>
      <trkpt lat="47.7908" lon="-2.81764">
        <ele>72.53</ele>
        <time>2018-01-19T08:52:14Z</time>
      </trkpt>
      <trkpt lat="47.79122" lon="-2.81759">
        <ele>73.78</ele>
        <time>2018-01-19T08:52:24Z</time>
      </trkpt>
      <trkpt lat="47.79164" lon="-2.81752">
        <ele>75.56</ele>
        <time>2018-01-19T08:52:34Z</time>
      </trkpt>
      <trkpt lat="47.7917" lon="-2.81751">
        <ele>75.86</ele>
        <time>2018-01-19T08:52:36Z</time>
      </trkpt>
      <trkpt lat="47.79185" lon="-2.8175">
        <ele>77.04</ele>
        <time>2018-01-19T08:52:43Z</time>
      </trkpt>
      <trkpt lat="47.79188" lon="-2.8175">
        <ele>77.19</ele>
        <time>2018-01-19T08:52:44Z</time>
      </trkpt>
      <trkpt lat="47.79214" lon="-2.81756">
        <ele>78.26</ele>
        <time>2018-01-19T08:52:52Z</time>
      </trkpt>
      <trkpt lat="47.79248" lon="-2.81771">
        <ele>79.8</ele>
        <time>2018-01-19T08:53:01Z</time>
      </trkpt>
      <trkpt lat="47.79277" lon="-2.81796">
        <ele>82.31</ele>
        <time>2018-01-19T08:53:10Z</time>
      </trkpt>
      <trkpt lat="47.7928" lon="-2.81798">
        <ele>82.52</ele>
        <time>2018-01-19T08:53:11Z</time>
      </trkpt>
      <trkpt lat="47.79282" lon="-2.818">
        <ele>82.69</ele>
        <time>2018-01-19T08:53:12Z</time>
      </trkpt>
      <trkpt lat="47.79289" lon="-2.81805">
        <ele>83.05</ele>
        <time>2018-01-19T08:53:15Z</time>
      </trkpt>
      <trkpt lat="47.79295" lon="-2.81808">
        <ele>83.15</ele>
        <time>2018-01-19T08:53:16Z</time>
      </trkpt>
      <trkpt lat="47.79298" lon="-2.8181">
        <ele>83.25</ele>
        <time>2018-01-19T08:53:17Z</time>
      </trkpt>
      <trkpt lat="47.79304" lon="-2.81812">
        <ele>83.36</ele>
        <time>2018-01-19T08:53:18Z</time>
      </trkpt>
      <trkpt lat="47.79307" lon="-2.81814">
        <ele>83.49</ele>
        <time>2018-01-19T08:53:19Z</time>
      </trkpt>
      <trkpt lat="47.79314" lon="-2.81822">
        <ele>84</ele>
        <time>2018-01-19T08:53:22Z</time>
      </trkpt>
      <trkpt lat="47.79317" lon="-2.81827">
        <ele>84.19</ele>
        <time>2018-01-19T08:53:23Z</time>
      </trkpt>
      <trkpt lat="47.7932" lon="-2.81829">
        <ele>84.36</ele>
        <time>2018-01-19T08:53:24Z</time>
      </trkpt>
      <trkpt lat="47.79354" lon="-2.81843">
        <ele>86.16</ele>
        <time>2018-01-19T08:53:34Z</time>
      </trkpt>
      <trkpt lat="47.79357" lon="-2.81844">
        <ele>86.33</ele>
        <time>2018-01-19T08:53:35Z</time>
      </trkpt>
      <trkpt lat="47.79358" lon="-2.81845">
        <ele>86.54</ele>
        <time>2018-01-19T08:53:36Z</time>
      </trkpt>
      <trkpt lat="47.79386" lon="-2.81858">
        <ele>88.28</ele>
        <time>2018-01-19T08:53:47Z</time>
      </trkpt>
      <trkpt lat="47.79392" lon="-2.81862">
        <ele>88.52</ele>
        <time>2018-01-19T08:53:50Z</time>
      </trkpt>
      <trkpt lat="47.79395" lon="-2.81864">
        <ele>88.6</ele>
        <time>2018-01-19T08:53:51Z</time>
      </trkpt>
      <trkpt lat="47.79397" lon="-2.81865">
        <ele>88.59</ele>
        <time>2018-01-19T08:53:52Z</time>
      </trkpt>
      <trkpt lat="47.79399" lon="-2.81867">
        <ele>88.57</ele>
        <time>2018-01-19T08:53:53Z</time>
      </trkpt>
      <trkpt lat="47.79402" lon="-2.81868">
        <ele>88.56</ele>
        <time>2018-01-19T08:53:54Z</time>
      </trkpt>
      <trkpt lat="47.79404" lon="-2.8187">
        <ele>88.57</ele>
        <time>2018-01-19T08:53:55Z</time>
      </trkpt>
      <trkpt lat="47.79442" lon="-2.81883">
        <ele>89.06</ele>
        <time>2018-01-19T08:54:03Z</time>
      </trkpt>
      <trkpt lat="47.79468" lon="-2.81899">
        <ele>90.6</ele>
        <time>2018-01-19T08:54:11Z</time>
      </trkpt>
      <trkpt lat="47.79491" lon="-2.81915">
        <ele>91.59</ele>
        <time>2018-01-19T08:54:18Z</time>
      </trkpt>
      <trkpt lat="47.795" lon="-2.81917">
        <ele>91.72</ele>
        <time>2018-01-19T08:54:19Z</time>
      </trkpt>
      <trkpt lat="47.79505" lon="-2.81919">
        <ele>91.84</ele>
        <time>2018-01-19T08:54:20Z</time>
      </trkpt>
      <trkpt lat="47.79508" lon="-2.81922">
        <ele>91.94</ele>
        <time>2018-01-19T08:54:21Z</time>
      </trkpt>
      <trkpt lat="47.79511" lon="-2.81925">
        <ele>92.03</ele>
        <time>2018-01-19T08:54:22Z</time>
      </trkpt>
      <trkpt lat="47.79514" lon="-2.81929">
        <ele>92.13</ele>
        <time>2018-01-19T08:54:23Z</time>
      </trkpt>
      <trkpt lat="47.79515" lon="-2.81931">
        <ele>92.28</ele>
        <time>2018-01-19T08:54:24Z</time>
      </trkpt>
      <trkpt lat="47.79516" lon="-2.81934">
        <ele>92.51</ele>
        <time>2018-01-19T08:54:25Z</time>
      </trkpt>
      <trkpt lat="47.79519" lon="-2.81937">
        <ele>92.78</ele>
        <time>2018-01-19T08:54:26Z</time>
      </trkpt>
      <trkpt lat="47.79521" lon="-2.81941">
        <ele>93.04</ele>
        <time>2018-01-19T08:54:27Z</time>
      </trkpt>
      <trkpt lat="47.79522" lon="-2.81945">
        <ele>93.28</ele>
        <time>2018-01-19T08:54:28Z</time>
      </trkpt>
      <trkpt lat="47.79524" lon="-2.81949">
        <ele>93.5</ele>
        <time>2018-01-19T08:54:29Z</time>
      </trkpt>
      <trkpt lat="47.79526" lon="-2.81953">
        <ele>93.7</ele>
        <time>2018-01-19T08:54:30Z</time>
      </trkpt>
      <trkpt lat="47.79529" lon="-2.81956">
        <ele>93.96</ele>
        <time>2018-01-19T08:54:31Z</time>
      </trkpt>
      <trkpt lat="47.79532" lon="-2.8196">
        <ele>94.21</ele>
        <time>2018-01-19T08:54:32Z</time>
      </trkpt>
      <trkpt lat="47.79567" lon="-2.81987">
        <ele>96.14</ele>
        <time>2018-01-19T08:54:41Z</time>
      </trkpt>
      <trkpt lat="47.79606" lon="-2.82022">
        <ele>98.34</ele>
        <time>2018-01-19T08:54:52Z</time>
      </trkpt>
      <trkpt lat="47.79636" lon="-2.8205">
        <ele>99.66</ele>
        <time>2018-01-19T08:55:01Z</time>
      </trkpt>
      <trkpt lat="47.79659" lon="-2.8208">
        <ele>101.44</ele>
        <time>2018-01-19T08:55:10Z</time>
      </trkpt>
      <trkpt lat="47.79677" lon="-2.8211">
        <ele>103.46</ele>
        <time>2018-01-19T08:55:19Z</time>
      </trkpt>
      <trkpt lat="47.79687" lon="-2.82137">
        <ele>105.45</ele>
        <time>2018-01-19T08:55:29Z</time>
      </trkpt>
      <trkpt lat="47.79692" lon="-2.82145">
        <ele>106.18</ele>
        <time>2018-01-19T08:55:33Z</time>
      </trkpt>
      <trkpt lat="47.79696" lon="-2.82153">
        <ele>106.63</ele>
        <time>2018-01-19T08:55:37Z</time>
      </trkpt>
      <trkpt lat="47.79698" lon="-2.82159">
        <ele>106.92</ele>
        <time>2018-01-19T08:55:40Z</time>
      </trkpt>
      <trkpt lat="47.79713" lon="-2.82183">
        <ele>108.16</ele>
        <time>2018-01-19T08:55:53Z</time>
      </trkpt>
      <trkpt lat="47.7972" lon="-2.82191">
        <ele>108.26</ele>
        <time>2018-01-19T08:55:58Z</time>
      </trkpt>
      <trkpt lat="47.79732" lon="-2.82211">
        <ele>109.05</ele>
        <time>2018-01-19T08:56:12Z</time>
      </trkpt>
      <trkpt lat="47.79738" lon="-2.82217">
        <ele>109.29</ele>
        <time>2018-01-19T08:56:16Z</time>
      </trkpt>
      <trkpt lat="47.79752" lon="-2.82242">
        <ele>110.04</ele>
        <time>2018-01-19T08:56:37Z</time>
      </trkpt>
      <trkpt lat="47.79772" lon="-2.82262">
        <ele>110.44</ele>
        <time>2018-01-19T08:56:56Z</time>
      </trkpt>
      <trkpt lat="47.79776" lon="-2.82264">
        <ele>110.42</ele>
        <time>2018-01-19T08:57:00Z</time>
      </trkpt>
      <trkpt lat="47.79799" lon="-2.82292">
        <ele>110.06</ele>
        <time>2018-01-19T08:57:19Z</time>
      </trkpt>
      <trkpt lat="47.79816" lon="-2.82318">
        <ele>113.01</ele>
        <time>2018-01-19T08:57:34Z</time>
      </trkpt>
      <trkpt lat="47.79817" lon="-2.82355">
        <ele>114.41</ele>
        <time>2018-01-19T08:57:57Z</time>
      </trkpt>
      <trkpt lat="47.79818" lon="-2.82404">
        <ele>116.26</ele>
        <time>2018-01-19T08:58:15Z</time>
      </trkpt>
      <trkpt lat="47.79818" lon="-2.82457">
        <ele>117.75</ele>
        <time>2018-01-19T08:58:37Z</time>
      </trkpt>
      <trkpt lat="47.7982" lon="-2.82484">
        <ele>119.3</ele>
        <time>2018-01-19T08:58:52Z</time>
      </trkpt>
      <trkpt lat="47.7982" lon="-2.82507">
        <ele>121.1</ele>
        <time>2018-01-19T08:59:10Z</time>
      </trkpt>
      <trkpt lat="47.79821" lon="-2.8255">
        <ele>121.77</ele>
        <time>2018-01-19T08:59:24Z</time>
      </trkpt>
      <trkpt lat="47.79821" lon="-2.82584">
        <ele>124.24</ele>
        <time>2018-01-19T08:59:40Z</time>
      </trkpt>
      <trkpt lat="47.7982" lon="-2.82624">
        <ele>127.32</ele>
        <time>2018-01-19T08:59:56Z</time>
      </trkpt>
      <trkpt lat="47.79824" lon="-2.82656">
        <ele>128.91</ele>
        <time>2018-01-19T09:00:13Z</time>
      </trkpt>
      <trkpt lat="47.79824" lon="-2.82665">
        <ele>128.85</ele>
        <time>2018-01-19T09:00:16Z</time>
      </trkpt>
      <trkpt lat="47.79832" lon="-2.82692">
        <ele>129.05</ele>
        <time>2018-01-19T09:00:29Z</time>
      </trkpt>
      <trkpt lat="47.79833" lon="-2.827">
        <ele>129.04</ele>
        <time>2018-01-19T09:00:32Z</time>
      </trkpt>
      <trkpt lat="47.79834" lon="-2.82735">
        <ele>130.04</ele>
        <time>2018-01-19T09:00:46Z</time>
      </trkpt>
      <trkpt lat="47.79835" lon="-2.82773">
        <ele>131.46</ele>
        <time>2018-01-19T09:01:04Z</time>
      </trkpt>
      <trkpt lat="47.79825" lon="-2.82808">
        <ele>132.74</ele>
        <time>2018-01-19T09:01:22Z</time>
      </trkpt>
      <trkpt lat="47.79824" lon="-2.82816">
        <ele>132.84</ele>
        <time>2018-01-19T09:01:24Z</time>
      </trkpt>
      <trkpt lat="47.79823" lon="-2.82845">
        <ele>133.55</ele>
        <time>2018-01-19T09:01:38Z</time>
      </trkpt>
      <trkpt lat="47.79825" lon="-2.82856">
        <ele>133.9</ele>
        <time>2018-01-19T09:01:43Z</time>
      </trkpt>
      <trkpt lat="47.79831" lon="-2.82867">
        <ele>135.65</ele>
        <time>2018-01-19T09:01:57Z</time>
      </trkpt>
      <trkpt lat="47.79848" lon="-2.82863">
        <ele>138.02</ele>
        <time>2018-01-19T09:02:14Z</time>
      </trkpt>
      <trkpt lat="47.79863" lon="-2.82849">
        <ele>139.38</ele>
        <time>2018-01-19T09:02:29Z</time>
      </trkpt>
      <trkpt lat="47.79867" lon="-2.82849">
        <ele>139.63</ele>
        <time>2018-01-19T09:02:32Z</time>
      </trkpt>
      <trkpt lat="47.79888" lon="-2.82841">
        <ele>139.99</ele>
        <time>2018-01-19T09:02:49Z</time>
      </trkpt>
      <trkpt lat="47.79906" lon="-2.82844">
        <ele>139.92</ele>
        <time>2018-01-19T09:03:05Z</time>
      </trkpt>
      <trkpt lat="47.79928" lon="-2.8285">
        <ele>139.7</ele>
        <time>2018-01-19T09:03:21Z</time>
      </trkpt>
      <trkpt lat="47.79945" lon="-2.82863">
        <ele>139.08</ele>
        <time>2018-01-19T09:03:32Z</time>
      </trkpt>
      <trkpt lat="47.79951" lon="-2.82872">
        <ele>139.06</ele>
        <time>2018-01-19T09:03:37Z</time>
      </trkpt>
      <trkpt lat="47.79965" lon="-2.82893">
        <ele>139.79</ele>
        <time>2018-01-19T09:03:49Z</time>
      </trkpt>
      <trkpt lat="47.79969" lon="-2.82902">
        <ele>139.92</ele>
        <time>2018-01-19T09:03:54Z</time>
      </trkpt>
      <trkpt lat="47.79969" lon="-2.82907">
        <ele>139.94</ele>
        <time>2018-01-19T09:03:56Z</time>
      </trkpt>
      <trkpt lat="47.79985" lon="-2.82936">
        <ele>140.1</ele>
        <time>2018-01-19T09:04:11Z</time>
      </trkpt>
      <trkpt lat="47.79999" lon="-2.82961">
        <ele>139.22</ele>
        <time>2018-01-19T09:04:24Z</time>
      </trkpt>
      <trkpt lat="47.80007" lon="-2.82996">
        <ele>138.87</ele>
        <time>2018-01-19T09:04:39Z</time>
      </trkpt>
      <trkpt lat="47.80008" lon="-2.8302">
        <ele>139.7</ele>
        <time>2018-01-19T09:04:58Z</time>
      </trkpt>
      <trkpt lat="47.80009" lon="-2.83027">
        <ele>139.75</ele>
        <time>2018-01-19T09:05:02Z</time>
      </trkpt>
      <trkpt lat="47.80009" lon="-2.83038">
        <ele>139.87</ele>
        <time>2018-01-19T09:05:08Z</time>
      </trkpt>
      <trkpt lat="47.80014" lon="-2.83062">
        <ele>140.35</ele>
        <time>2018-01-19T09:05:17Z</time>
      </trkpt>
      <trkpt lat="47.80019" lon="-2.83074">
        <ele>139.77</ele>
        <time>2018-01-19T09:05:25Z</time>
      </trkpt>
      <trkpt lat="47.80026" lon="-2.83085">
        <ele>138.54</ele>
        <time>2018-01-19T09:05:36Z</time>
      </trkpt>
      <trkpt lat="47.80032" lon="-2.83082">
        <ele>137.43</ele>
        <time>2018-01-19T09:05:41Z</time>
      </trkpt>
      <trkpt lat="47.80037" lon="-2.83073">
        <ele>135.93</ele>
        <time>2018-01-19T09:05:47Z</time>
      </trkpt>
      <trkpt lat="47.80057" lon="-2.83043">
        <ele>132.75</ele>
        <time>2018-01-19T09:06:07Z</time>
      </trkpt>
      <trkpt lat="47.8006" lon="-2.83038">
        <ele>132.18</ele>
        <time>2018-01-19T09:06:11Z</time>
      </trkpt>
      <trkpt lat="47.80077" lon="-2.83042">
        <ele>130.55</ele>
        <time>2018-01-19T09:06:25Z</time>
      </trkpt>
      <trkpt lat="47.8008" lon="-2.83043">
        <ele>130.19</ele>
        <time>2018-01-19T09:06:28Z</time>
      </trkpt>
      <trkpt lat="47.80084" lon="-2.83044">
        <ele>129.87</ele>
        <time>2018-01-19T09:06:31Z</time>
      </trkpt>
      <trkpt lat="47.80097" lon="-2.83063">
        <ele>129.07</ele>
        <time>2018-01-19T09:06:43Z</time>
      </trkpt>
      <trkpt lat="47.8012" lon="-2.83082">
        <ele>129.12</ele>
        <time>2018-01-19T09:06:57Z</time>
      </trkpt>
      <trkpt lat="47.80123" lon="-2.83084">
        <ele>129.09</ele>
        <time>2018-01-19T09:06:58Z</time>
      </trkpt>
      <trkpt lat="47.8014" lon="-2.83093">
        <ele>128.61</ele>
        <time>2018-01-19T09:07:10Z</time>
      </trkpt>
      <trkpt lat="47.80158" lon="-2.83097">
        <ele>128.74</ele>
        <time>2018-01-19T09:07:25Z</time>
      </trkpt>
      <trkpt lat="47.80164" lon="-2.83101">
        <ele>128.76</ele>
        <time>2018-01-19T09:07:29Z</time>
      </trkpt>
      <trkpt lat="47.80175" lon="-2.83106">
        <ele>128.79</ele>
        <time>2018-01-19T09:07:37Z</time>
      </trkpt>
      <trkpt lat="47.80206" lon="-2.83113">
        <ele>129.54</ele>
        <time>2018-01-19T09:07:59Z</time>
      </trkpt>
      <trkpt lat="47.80228" lon="-2.83122">
        <ele>130.47</ele>
        <time>2018-01-19T09:08:14Z</time>
      </trkpt>
      <trkpt lat="47.80229" lon="-2.83124">
        <ele>130.57</ele>
        <time>2018-01-19T09:08:15Z</time>
      </trkpt>
      <trkpt lat="47.8024" lon="-2.83144">
        <ele>132.11</ele>
        <time>2018-01-19T09:08:28Z</time>
      </trkpt>
      <trkpt lat="47.80253" lon="-2.83175">
        <ele>133.67</ele>
        <time>2018-01-19T09:08:41Z</time>
      </trkpt>
      <trkpt lat="47.80259" lon="-2.83197">
        <ele>134.64</ele>
        <time>2018-01-19T09:08:53Z</time>
      </trkpt>
      <trkpt lat="47.80258" lon="-2.83208">
        <ele>135.53</ele>
        <time>2018-01-19T09:09:02Z</time>
      </trkpt>
      <trkpt lat="47.80246" lon="-2.83236">
        <ele>136.39</ele>
        <time>2018-01-19T09:09:21Z</time>
      </trkpt>
      <trkpt lat="47.80223" lon="-2.83245">
        <ele>135.64</ele>
        <time>2018-01-19T09:09:40Z</time>
      </trkpt>
      <trkpt lat="47.80196" lon="-2.83259">
        <ele>136.63</ele>
        <time>2018-01-19T09:09:59Z</time>
      </trkpt>
      <trkpt lat="47.80194" lon="-2.83259">
        <ele>136.7</ele>
        <time>2018-01-19T09:10:00Z</time>
      </trkpt>
      <trkpt lat="47.80176" lon="-2.83263">
        <ele>137.67</ele>
        <time>2018-01-19T09:10:13Z</time>
      </trkpt>
      <trkpt lat="47.80172" lon="-2.83264">
        <ele>137.85</ele>
        <time>2018-01-19T09:10:16Z</time>
      </trkpt>
      <trkpt lat="47.80169" lon="-2.83263">
        <ele>138.14</ele>
        <time>2018-01-19T09:10:18Z</time>
      </trkpt>
      <trkpt lat="47.80148" lon="-2.83266">
        <ele>138.7</ele>
        <time>2018-01-19T09:10:32Z</time>
      </trkpt>
      <trkpt lat="47.80118" lon="-2.83276">
        <ele>139.17</ele>
        <time>2018-01-19T09:10:53Z</time>
      </trkpt>
      <trkpt lat="47.80115" lon="-2.83277">
        <ele>139.26</ele>
        <time>2018-01-19T09:10:55Z</time>
      </trkpt>
      <trkpt lat="47.80112" lon="-2.83276">
        <ele>139.3</ele>
        <time>2018-01-19T09:10:57Z</time>
      </trkpt>
      <trkpt lat="47.80093" lon="-2.83283">
        <ele>139.37</ele>
        <time>2018-01-19T09:11:09Z</time>
      </trkpt>
      <trkpt lat="47.8008" lon="-2.83293">
        <ele>139.83</ele>
        <time>2018-01-19T09:11:20Z</time>
      </trkpt>
      <trkpt lat="47.80055" lon="-2.83311">
        <ele>140.37</ele>
        <time>2018-01-19T09:11:38Z</time>
      </trkpt>
      <trkpt lat="47.80048" lon="-2.83317">
        <ele>140.64</ele>
        <time>2018-01-19T09:11:45Z</time>
      </trkpt>
      <trkpt lat="47.80034" lon="-2.83324">
        <ele>141.74</ele>
        <time>2018-01-19T09:12:01Z</time>
      </trkpt>
      <trkpt lat="47.80032" lon="-2.83331">
        <ele>142.58</ele>
        <time>2018-01-19T09:12:20Z</time>
      </trkpt>
      <trkpt lat="47.80031" lon="-2.83331">
        <ele>142.6</ele>
        <time>2018-01-19T09:12:22Z</time>
      </trkpt>
      <trkpt lat="47.80037" lon="-2.83342">
        <ele>142.73</ele>
        <time>2018-01-19T09:12:40Z</time>
      </trkpt>
      <trkpt lat="47.80045" lon="-2.83348">
        <ele>142.6</ele>
        <time>2018-01-19T09:12:51Z</time>
      </trkpt>
      <trkpt lat="47.80068" lon="-2.83358">
        <ele>142.17</ele>
        <time>2018-01-19T09:13:04Z</time>
      </trkpt>
      <trkpt lat="47.8007" lon="-2.8336">
        <ele>142.27</ele>
        <time>2018-01-19T09:13:06Z</time>
      </trkpt>
      <trkpt lat="47.80072" lon="-2.83362">
        <ele>142.32</ele>
        <time>2018-01-19T09:13:07Z</time>
      </trkpt>
      <trkpt lat="47.80075" lon="-2.83363">
        <ele>142.33</ele>
        <time>2018-01-19T09:13:08Z</time>
      </trkpt>
      <trkpt lat="47.80108" lon="-2.83371">
        <ele>141.08</ele>
        <time>2018-01-19T09:13:19Z</time>
      </trkpt>
      <trkpt lat="47.80115" lon="-2.83371">
        <ele>140.48</ele>
        <time>2018-01-19T09:13:22Z</time>
      </trkpt>
      <trkpt lat="47.80118" lon="-2.8337">
        <ele>140.26</ele>
        <time>2018-01-19T09:13:23Z</time>
      </trkpt>
      <trkpt lat="47.80122" lon="-2.8337">
        <ele>140.02</ele>
        <time>2018-01-19T09:13:24Z</time>
      </trkpt>
      <trkpt lat="47.80125" lon="-2.83369">
        <ele>139.78</ele>
        <time>2018-01-19T09:13:25Z</time>
      </trkpt>
      <trkpt lat="47.80129" lon="-2.83369">
        <ele>139.56</ele>
        <time>2018-01-19T09:13:26Z</time>
      </trkpt>
      <trkpt lat="47.80132" lon="-2.83368">
        <ele>139.37</ele>
        <time>2018-01-19T09:13:27Z</time>
      </trkpt>
      <trkpt lat="47.80134" lon="-2.83366">
        <ele>139.16</ele>
        <time>2018-01-19T09:13:28Z</time>
      </trkpt>
      <trkpt lat="47.80136" lon="-2.83365">
        <ele>138.97</ele>
        <time>2018-01-19T09:13:29Z</time>
      </trkpt>
      <trkpt lat="47.80139" lon="-2.83363">
        <ele>138.77</ele>
        <time>2018-01-19T09:13:30Z</time>
      </trkpt>
      <trkpt lat="47.80141" lon="-2.83362">
        <ele>138.57</ele>
        <time>2018-01-19T09:13:31Z</time>
      </trkpt>
      <trkpt lat="47.80144" lon="-2.8336">
        <ele>138.36</ele>
        <time>2018-01-19T09:13:32Z</time>
      </trkpt>
      <trkpt lat="47.80146" lon="-2.83357">
        <ele>138.22</ele>
        <time>2018-01-19T09:13:33Z</time>
      </trkpt>
      <trkpt lat="47.80149" lon="-2.83355">
        <ele>138.04</ele>
        <time>2018-01-19T09:13:34Z</time>
      </trkpt>
      <trkpt lat="47.80161" lon="-2.83341">
        <ele>137.28</ele>
        <time>2018-01-19T09:13:41Z</time>
      </trkpt>
      <trkpt lat="47.80176" lon="-2.83336">
        <ele>137.57</ele>
        <time>2018-01-19T09:14:03Z</time>
      </trkpt>
      <trkpt lat="47.80179" lon="-2.83335">
        <ele>137.57</ele>
        <time>2018-01-19T09:14:29Z</time>
      </trkpt>
      <trkpt lat="47.80205" lon="-2.83313">
        <ele>137.68</ele>
        <time>2018-01-19T09:14:44Z</time>
      </trkpt>
      <trkpt lat="47.80209" lon="-2.83308">
        <ele>137.78</ele>
        <time>2018-01-19T09:14:47Z</time>
      </trkpt>
      <trkpt lat="47.80232" lon="-2.8328">
        <ele>137.16</ele>
        <time>2018-01-19T09:14:58Z</time>
      </trkpt>
      <trkpt lat="47.80252" lon="-2.83242">
        <ele>134.91</ele>
        <time>2018-01-19T09:15:09Z</time>
      </trkpt>
      <trkpt lat="47.80262" lon="-2.83232">
        <ele>133.83</ele>
        <time>2018-01-19T09:15:13Z</time>
      </trkpt>
      <trkpt lat="47.80279" lon="-2.832">
        <ele>131.03</ele>
        <time>2018-01-19T09:15:22Z</time>
      </trkpt>
      <trkpt lat="47.80291" lon="-2.83148">
        <ele>127.69</ele>
        <time>2018-01-19T09:15:34Z</time>
      </trkpt>
      <trkpt lat="47.80292" lon="-2.83141">
        <ele>127.12</ele>
        <time>2018-01-19T09:15:36Z</time>
      </trkpt>
      <trkpt lat="47.80294" lon="-2.83111">
        <ele>125.12</ele>
        <time>2018-01-19T09:15:46Z</time>
      </trkpt>
      <trkpt lat="47.80288" lon="-2.83103">
        <ele>124.92</ele>
        <time>2018-01-19T09:15:47Z</time>
      </trkpt>
      <trkpt lat="47.80287" lon="-2.83098">
        <ele>124.72</ele>
        <time>2018-01-19T09:15:48Z</time>
      </trkpt>
      <trkpt lat="47.80285" lon="-2.83052">
        <ele>122.74</ele>
        <time>2018-01-19T09:16:06Z</time>
      </trkpt>
      <trkpt lat="47.80284" lon="-2.83004">
        <ele>121.16</ele>
        <time>2018-01-19T09:16:26Z</time>
      </trkpt>
      <trkpt lat="47.80279" lon="-2.8295">
        <ele>120.13</ele>
        <time>2018-01-19T09:16:42Z</time>
      </trkpt>
      <trkpt lat="47.80276" lon="-2.82928">
        <ele>119.36</ele>
        <time>2018-01-19T09:16:50Z</time>
      </trkpt>
      <trkpt lat="47.80277" lon="-2.82905">
        <ele>118.34</ele>
        <time>2018-01-19T09:16:58Z</time>
      </trkpt>
      <trkpt lat="47.80291" lon="-2.82882">
        <ele>117.07</ele>
        <time>2018-01-19T09:17:12Z</time>
      </trkpt>
      <trkpt lat="47.80293" lon="-2.82879">
        <ele>117.02</ele>
        <time>2018-01-19T09:17:14Z</time>
      </trkpt>
      <trkpt lat="47.80306" lon="-2.82863">
        <ele>116.07</ele>
        <time>2018-01-19T09:17:25Z</time>
      </trkpt>
      <trkpt lat="47.8033" lon="-2.82849">
        <ele>115.74</ele>
        <time>2018-01-19T09:17:41Z</time>
      </trkpt>
      <trkpt lat="47.80339" lon="-2.82841">
        <ele>115.86</ele>
        <time>2018-01-19T09:17:46Z</time>
      </trkpt>
      <trkpt lat="47.80346" lon="-2.82836">
        <ele>116.21</ele>
        <time>2018-01-19T09:17:49Z</time>
      </trkpt>
      <trkpt lat="47.80352" lon="-2.82828">
        <ele>117.03</ele>
        <time>2018-01-19T09:17:53Z</time>
      </trkpt>
      <trkpt lat="47.80364" lon="-2.82788">
        <ele>120.4</ele>
        <time>2018-01-19T09:18:05Z</time>
      </trkpt>
      <trkpt lat="47.80377" lon="-2.82769">
        <ele>122.05</ele>
        <time>2018-01-19T09:18:13Z</time>
      </trkpt>
      <trkpt lat="47.80411" lon="-2.82744">
        <ele>123.8</ele>
        <time>2018-01-19T09:18:24Z</time>
      </trkpt>
      <trkpt lat="47.8044" lon="-2.82723">
        <ele>125.19</ele>
        <time>2018-01-19T09:18:34Z</time>
      </trkpt>
      <trkpt lat="47.80456" lon="-2.82712">
        <ele>125.43</ele>
        <time>2018-01-19T09:18:40Z</time>
      </trkpt>
      <trkpt lat="47.8049" lon="-2.82692">
        <ele>126.02</ele>
        <time>2018-01-19T09:18:50Z</time>
      </trkpt>
      <trkpt lat="47.80496" lon="-2.82687">
        <ele>126.29</ele>
        <time>2018-01-19T09:18:52Z</time>
      </trkpt>
      <trkpt lat="47.80508" lon="-2.82681">
        <ele>126.98</ele>
        <time>2018-01-19T09:18:57Z</time>
      </trkpt>
      <trkpt lat="47.80597" lon="-2.83037">
        <ele>10.94</ele>
        <time>2018-01-19T09:26:12Z</time>
      </trkpt>
      <trkpt lat="47.806" lon="-2.83061">
        <ele>9.66</ele>
        <time>2018-01-19T09:26:21Z</time>
      </trkpt>
      <trkpt lat="47.80597" lon="-2.8306">
        <ele>8.95</ele>
        <time>2018-01-19T09:26:33Z</time>
      </trkpt>
      <trkpt lat="47.80595" lon="-2.83058">
        <ele>9.35</ele>
        <time>2018-01-19T09:26:36Z</time>
      </trkpt>
      <trkpt lat="47.80575" lon="-2.83064">
        <ele>9.2</ele>
        <time>2018-01-19T09:26:41Z</time>
      </trkpt>
      <trkpt lat="47.80539" lon="-2.83061">
        <ele>9.31</ele>
        <time>2018-01-19T09:26:51Z</time>
      </trkpt>
      <trkpt lat="47.80521" lon="-2.83065">
        <ele>8.6</ele>
        <time>2018-01-19T09:27:02Z</time>
      </trkpt>
      <trkpt lat="47.80517" lon="-2.83067">
        <ele>7.8</ele>
        <time>2018-01-19T09:27:07Z</time>
      </trkpt>
      <trkpt lat="47.80492" lon="-2.83081">
        <ele>5.76</ele>
        <time>2018-01-19T09:27:22Z</time>
      </trkpt>
      <trkpt lat="47.80481" lon="-2.83099">
        <ele>5.8</ele>
        <time>2018-01-19T09:27:32Z</time>
      </trkpt>
      <trkpt lat="47.80474" lon="-2.83109">
        <ele>5.89</ele>
        <time>2018-01-19T09:27:36Z</time>
      </trkpt>
      <trkpt lat="47.80444" lon="-2.83151">
        <ele>7.41</ele>
        <time>2018-01-19T09:27:48Z</time>
      </trkpt>
      <trkpt lat="47.80435" lon="-2.83169">
        <ele>9.62</ele>
        <time>2018-01-19T09:27:59Z</time>
      </trkpt>
      <trkpt lat="47.80434" lon="-2.83173">
        <ele>9.89</ele>
        <time>2018-01-19T09:28:05Z</time>
      </trkpt>
      <trkpt lat="47.80431" lon="-2.83176">
        <ele>9.96</ele>
        <time>2018-01-19T09:28:08Z</time>
      </trkpt>
      <trkpt lat="47.80433" lon="-2.83174">
        <ele>9.35</ele>
        <time>2018-01-19T09:28:28Z</time>
      </trkpt>
      <trkpt lat="47.80436" lon="-2.83174">
        <ele>8.42</ele>
        <time>2018-01-19T09:28:49Z</time>
      </trkpt>
      <trkpt lat="47.80436" lon="-2.83178">
        <ele>8.07</ele>
        <time>2018-01-19T09:29:13Z</time>
      </trkpt>
      <trkpt lat="47.80431" lon="-2.8318">
        <ele>8.85</ele>
        <time>2018-01-19T09:29:35Z</time>
      </trkpt>
      <trkpt lat="47.8043" lon="-2.8318">
        <ele>8.69</ele>
        <time>2018-01-19T09:29:58Z</time>
      </trkpt>
      <trkpt lat="47.80425" lon="-2.83166">
        <ele>8.9</ele>
        <time>2018-01-19T09:30:33Z</time>
      </trkpt>
      <trkpt lat="47.80425" lon="-2.83167">
        <ele>8.89</ele>
        <time>2018-01-19T09:30:53Z</time>
      </trkpt>
      <trkpt lat="47.80426" lon="-2.83171">
        <ele>9.08</ele>
        <time>2018-01-19T09:30:56Z</time>
      </trkpt>
      <trkpt lat="47.80428" lon="-2.83181">
        <ele>9.3</ele>
        <time>2018-01-19T09:31:00Z</time>
      </trkpt>
      <trkpt lat="47.80427" lon="-2.83191">
        <ele>9.28</ele>
        <time>2018-01-19T09:31:04Z</time>
      </trkpt>
      <trkpt lat="47.80429" lon="-2.832">
        <ele>9.43</ele>
        <time>2018-01-19T09:31:08Z</time>
      </trkpt>
      <trkpt lat="47.80429" lon="-2.83224">
        <ele>9.88</ele>
        <time>2018-01-19T09:31:18Z</time>
      </trkpt>
      <trkpt lat="47.8043" lon="-2.8323">
        <ele>10.09</ele>
        <time>2018-01-19T09:31:21Z</time>
      </trkpt>
      <trkpt lat="47.80431" lon="-2.83245">
        <ele>10.37</ele>
        <time>2018-01-19T09:31:28Z</time>
      </trkpt>
      <trkpt lat="47.80431" lon="-2.83269">
        <ele>10.57</ele>
        <time>2018-01-19T09:31:38Z</time>
      </trkpt>
      <trkpt lat="47.80433" lon="-2.83299">
        <ele>11.14</ele>
        <time>2018-01-19T09:31:48Z</time>
      </trkpt>
      <trkpt lat="47.80433" lon="-2.83314">
        <ele>11.6</ele>
        <time>2018-01-19T09:31:53Z</time>
      </trkpt>
      <trkpt lat="47.80434" lon="-2.83328">
        <ele>12.13</ele>
        <time>2018-01-19T09:31:59Z</time>
      </trkpt>
      <trkpt lat="47.80435" lon="-2.83336">
        <ele>12.31</ele>
        <time>2018-01-19T09:32:03Z</time>
      </trkpt>
      <trkpt lat="47.80436" lon="-2.83355">
        <ele>12.49</ele>
        <time>2018-01-19T09:32:11Z</time>
      </trkpt>
      <trkpt lat="47.80438" lon="-2.83387">
        <ele>13.32</ele>
        <time>2018-01-19T09:32:25Z</time>
      </trkpt>
      <trkpt lat="47.80438" lon="-2.83405">
        <ele>13.41</ele>
        <time>2018-01-19T09:32:30Z</time>
      </trkpt>
      <trkpt lat="47.80439" lon="-2.83418">
        <ele>13.56</ele>
        <time>2018-01-19T09:32:35Z</time>
      </trkpt>
      <trkpt lat="47.80447" lon="-2.83426">
        <ele>13.6</ele>
        <time>2018-01-19T09:33:02Z</time>
      </trkpt>
      <trkpt lat="47.80447" lon="-2.83427">
        <ele>13.66</ele>
        <time>2018-01-19T09:33:04Z</time>
      </trkpt>
      <trkpt lat="47.80446" lon="-2.83431">
        <ele>13.72</ele>
        <time>2018-01-19T09:33:06Z</time>
      </trkpt>
      <trkpt lat="47.80447" lon="-2.83435">
        <ele>13.74</ele>
        <time>2018-01-19T09:33:07Z</time>
      </trkpt>
      <trkpt lat="47.80447" lon="-2.83439">
        <ele>13.76</ele>
        <time>2018-01-19T09:33:08Z</time>
      </trkpt>
      <trkpt lat="47.80447" lon="-2.83444">
        <ele>13.91</ele>
        <time>2018-01-19T09:33:09Z</time>
      </trkpt>
      <trkpt lat="47.80452" lon="-2.83457">
        <ele>14.49</ele>
        <time>2018-01-19T09:33:13Z</time>
      </trkpt>
      <trkpt lat="47.80455" lon="-2.83458">
        <ele>14.61</ele>
        <time>2018-01-19T09:33:14Z</time>
      </trkpt>
      <trkpt lat="47.80457" lon="-2.83459">
        <ele>14.74</ele>
        <time>2018-01-19T09:33:15Z</time>
      </trkpt>
      <trkpt lat="47.80458" lon="-2.83459">
        <ele>14.85</ele>
        <time>2018-01-19T09:33:16Z</time>
      </trkpt>
      <trkpt lat="47.80461" lon="-2.83459">
        <ele>14.94</ele>
        <time>2018-01-19T09:33:17Z</time>
      </trkpt>
      <trkpt lat="47.80464" lon="-2.83458">
        <ele>15.08</ele>
        <time>2018-01-19T09:33:18Z</time>
      </trkpt>
      <trkpt lat="47.80467" lon="-2.83457">
        <ele>15.26</ele>
        <time>2018-01-19T09:33:19Z</time>
      </trkpt>
      <trkpt lat="47.80469" lon="-2.83456">
        <ele>15.45</ele>
        <time>2018-01-19T09:33:20Z</time>
      </trkpt>
      <trkpt lat="47.80471" lon="-2.83456">
        <ele>15.6</ele>
        <time>2018-01-19T09:33:21Z</time>
      </trkpt>
      <trkpt lat="47.80473" lon="-2.83455">
        <ele>15.75</ele>
        <time>2018-01-19T09:33:22Z</time>
      </trkpt>
      <trkpt lat="47.80501" lon="-2.83449">
        <ele>16.68</ele>
        <time>2018-01-19T09:33:34Z</time>
      </trkpt>
      <trkpt lat="47.80531" lon="-2.83444">
        <ele>16.45</ele>
        <time>2018-01-19T09:33:42Z</time>
      </trkpt>
      <trkpt lat="47.80566" lon="-2.83434">
        <ele>14.79</ele>
        <time>2018-01-19T09:33:51Z</time>
      </trkpt>
      <trkpt lat="47.80569" lon="-2.83434">
        <ele>14.57</ele>
        <time>2018-01-19T09:33:52Z</time>
      </trkpt>
      <trkpt lat="47.80573" lon="-2.83434">
        <ele>14.35</ele>
        <time>2018-01-19T09:33:53Z</time>
      </trkpt>
      <trkpt lat="47.80576" lon="-2.83434">
        <ele>14.12</ele>
        <time>2018-01-19T09:33:54Z</time>
      </trkpt>
      <trkpt lat="47.8058" lon="-2.83435">
        <ele>13.89</ele>
        <time>2018-01-19T09:33:55Z</time>
      </trkpt>
      <trkpt lat="47.80583" lon="-2.83436">
        <ele>13.63</ele>
        <time>2018-01-19T09:33:56Z</time>
      </trkpt>
      <trkpt lat="47.80586" lon="-2.83437">
        <ele>13.31</ele>
        <time>2018-01-19T09:33:57Z</time>
      </trkpt>
      <trkpt lat="47.80588" lon="-2.83437">
        <ele>12.96</ele>
        <time>2018-01-19T09:33:58Z</time>
      </trkpt>
      <trkpt lat="47.8059" lon="-2.83438">
        <ele>12.62</ele>
        <time>2018-01-19T09:33:59Z</time>
      </trkpt>
      <trkpt lat="47.80593" lon="-2.83439">
        <ele>12.03</ele>
        <time>2018-01-19T09:34:00Z</time>
      </trkpt>
      <trkpt lat="47.80596" lon="-2.83439">
        <ele>11.79</ele>
        <time>2018-01-19T09:34:01Z</time>
      </trkpt>
      <trkpt lat="47.80599" lon="-2.83441">
        <ele>11.57</ele>
        <time>2018-01-19T09:34:02Z</time>
      </trkpt>
      <trkpt lat="47.80602" lon="-2.83442">
        <ele>11.36</ele>
        <time>2018-01-19T09:34:03Z</time>
      </trkpt>
      <trkpt lat="47.80606" lon="-2.83443">
        <ele>11.15</ele>
        <time>2018-01-19T09:34:04Z</time>
      </trkpt>
      <trkpt lat="47.80609" lon="-2.83445">
        <ele>10.97</ele>
        <time>2018-01-19T09:34:05Z</time>
      </trkpt>
      <trkpt lat="47.80661" lon="-2.8346">
        <ele>9.94</ele>
        <time>2018-01-19T09:34:15Z</time>
      </trkpt>
      <trkpt lat="47.80667" lon="-2.83461">
        <ele>9.97</ele>
        <time>2018-01-19T09:34:16Z</time>
      </trkpt>
      <trkpt lat="47.80708" lon="-2.83462">
        <ele>11.09</ele>
        <time>2018-01-19T09:34:21Z</time>
      </trkpt>
      <trkpt lat="47.80748" lon="-2.83465">
        <ele>14.54</ele>
        <time>2018-01-19T09:34:26Z</time>
      </trkpt>
      <trkpt lat="47.80785" lon="-2.83471">
        <ele>17.85</ele>
        <time>2018-01-19T09:34:32Z</time>
      </trkpt>
      <trkpt lat="47.80829" lon="-2.83474">
        <ele>20.9</ele>
        <time>2018-01-19T09:34:42Z</time>
      </trkpt>
      <trkpt lat="47.80857" lon="-2.83474">
        <ele>21.73</ele>
        <time>2018-01-19T09:34:48Z</time>
      </trkpt>
      <trkpt lat="47.80907" lon="-2.83474">
        <ele>23.29</ele>
        <time>2018-01-19T09:35:00Z</time>
      </trkpt>
      <trkpt lat="47.8096" lon="-2.83475">
        <ele>24.97</ele>
        <time>2018-01-19T09:35:14Z</time>
      </trkpt>
      <trkpt lat="47.80979" lon="-2.83475">
        <ele>25.8</ele>
        <time>2018-01-19T09:35:25Z</time>
      </trkpt>
      <trkpt lat="47.81002" lon="-2.83472">
        <ele>26.86</ele>
        <time>2018-01-19T09:35:39Z</time>
      </trkpt>
      <trkpt lat="47.81003" lon="-2.83471">
        <ele>26.89</ele>
        <time>2018-01-19T09:35:40Z</time>
      </trkpt>
      <trkpt lat="47.81005" lon="-2.83439">
        <ele>26.5</ele>
        <time>2018-01-19T09:35:54Z</time>
      </trkpt>
      <trkpt lat="47.81005" lon="-2.83405">
        <ele>25.79</ele>
        <time>2018-01-19T09:36:09Z</time>
      </trkpt>
      <trkpt lat="47.81005" lon="-2.83371">
        <ele>24.57</ele>
        <time>2018-01-19T09:36:24Z</time>
      </trkpt>
      <trkpt lat="47.81003" lon="-2.83332">
        <ele>23.19</ele>
        <time>2018-01-19T09:36:40Z</time>
      </trkpt>
      <trkpt lat="47.81003" lon="-2.83289">
        <ele>22.26</ele>
        <time>2018-01-19T09:36:57Z</time>
      </trkpt>
      <trkpt lat="47.81023" lon="-2.8327">
        <ele>21.43</ele>
        <time>2018-01-19T09:37:11Z</time>
      </trkpt>
      <trkpt lat="47.81048" lon="-2.83263">
        <ele>21.49</ele>
        <time>2018-01-19T09:37:26Z</time>
      </trkpt>
      <trkpt lat="47.81074" lon="-2.83259">
        <ele>22.11</ele>
        <time>2018-01-19T09:37:41Z</time>
      </trkpt>
      <trkpt lat="47.81103" lon="-2.83255">
        <ele>22.54</ele>
        <time>2018-01-19T09:37:58Z</time>
      </trkpt>
      <trkpt lat="47.81128" lon="-2.83251">
        <ele>23.09</ele>
        <time>2018-01-19T09:38:13Z</time>
      </trkpt>
      <trkpt lat="47.81159" lon="-2.83247">
        <ele>23.55</ele>
        <time>2018-01-19T09:38:30Z</time>
      </trkpt>
      <trkpt lat="47.81183" lon="-2.83243">
        <ele>24.1</ele>
        <time>2018-01-19T09:38:44Z</time>
      </trkpt>
      <trkpt lat="47.81208" lon="-2.8324">
        <ele>24.54</ele>
        <time>2018-01-19T09:38:59Z</time>
      </trkpt>
      <trkpt lat="47.81227" lon="-2.83235">
        <ele>25.07</ele>
        <time>2018-01-19T09:39:11Z</time>
      </trkpt>
      <trkpt lat="47.8125" lon="-2.83232">
        <ele>25.73</ele>
        <time>2018-01-19T09:39:25Z</time>
      </trkpt>
      <trkpt lat="47.81276" lon="-2.8323">
        <ele>25.91</ele>
        <time>2018-01-19T09:39:39Z</time>
      </trkpt>
      <trkpt lat="47.813" lon="-2.83229">
        <ele>26.6</ele>
        <time>2018-01-19T09:39:54Z</time>
      </trkpt>
      <trkpt lat="47.81302" lon="-2.83229">
        <ele>26.62</ele>
        <time>2018-01-19T09:39:55Z</time>
      </trkpt>
      <trkpt lat="47.81304" lon="-2.83229">
        <ele>26.62</ele>
        <time>2018-01-19T09:39:56Z</time>
      </trkpt>
      <trkpt lat="47.81306" lon="-2.83229">
        <ele>26.61</ele>
        <time>2018-01-19T09:39:57Z</time>
      </trkpt>
      <trkpt lat="47.81307" lon="-2.83228">
        <ele>26.6</ele>
        <time>2018-01-19T09:39:58Z</time>
      </trkpt>
      <trkpt lat="47.81313" lon="-2.83227">
        <ele>26.59</ele>
        <time>2018-01-19T09:40:02Z</time>
      </trkpt>
      <trkpt lat="47.81315" lon="-2.83227">
        <ele>26.59</ele>
        <time>2018-01-19T09:40:03Z</time>
      </trkpt>
      <trkpt lat="47.81317" lon="-2.83226">
        <ele>26.59</ele>
        <time>2018-01-19T09:40:04Z</time>
      </trkpt>
      <trkpt lat="47.81335" lon="-2.83223">
        <ele>26.51</ele>
        <time>2018-01-19T09:40:16Z</time>
      </trkpt>
      <trkpt lat="47.81337" lon="-2.83221">
        <ele>26.54</ele>
        <time>2018-01-19T09:40:17Z</time>
      </trkpt>
      <trkpt lat="47.81338" lon="-2.8322">
        <ele>26.58</ele>
        <time>2018-01-19T09:40:18Z</time>
      </trkpt>
      <trkpt lat="47.81339" lon="-2.83218">
        <ele>26.61</ele>
        <time>2018-01-19T09:40:19Z</time>
      </trkpt>
      <trkpt lat="47.8134" lon="-2.83216">
        <ele>26.6</ele>
        <time>2018-01-19T09:40:20Z</time>
      </trkpt>
      <trkpt lat="47.81341" lon="-2.83213">
        <ele>26.6</ele>
        <time>2018-01-19T09:40:21Z</time>
      </trkpt>
      <trkpt lat="47.81342" lon="-2.83211">
        <ele>26.58</ele>
        <time>2018-01-19T09:40:22Z</time>
      </trkpt>
      <trkpt lat="47.81342" lon="-2.83208">
        <ele>26.54</ele>
        <time>2018-01-19T09:40:23Z</time>
      </trkpt>
      <trkpt lat="47.81342" lon="-2.83206">
        <ele>26.5</ele>
        <time>2018-01-19T09:40:24Z</time>
      </trkpt>
      <trkpt lat="47.81341" lon="-2.83203">
        <ele>26.46</ele>
        <time>2018-01-19T09:40:25Z</time>
      </trkpt>
      <trkpt lat="47.81334" lon="-2.83167">
        <ele>25.86</ele>
        <time>2018-01-19T09:40:41Z</time>
      </trkpt>
      <trkpt lat="47.81333" lon="-2.83161">
        <ele>25.71</ele>
        <time>2018-01-19T09:40:44Z</time>
      </trkpt>
      <trkpt lat="47.81333" lon="-2.83158">
        <ele>25.64</ele>
        <time>2018-01-19T09:40:45Z</time>
      </trkpt>
      <trkpt lat="47.81333" lon="-2.83156">
        <ele>25.58</ele>
        <time>2018-01-19T09:40:46Z</time>
      </trkpt>
      <trkpt lat="47.81333" lon="-2.83154">
        <ele>25.52</ele>
        <time>2018-01-19T09:40:47Z</time>
      </trkpt>
      <trkpt lat="47.81332" lon="-2.83134">
        <ele>25.32</ele>
        <time>2018-01-19T09:40:55Z</time>
      </trkpt>
      <trkpt lat="47.8133" lon="-2.83124">
        <ele>25.23</ele>
        <time>2018-01-19T09:40:59Z</time>
      </trkpt>
      <trkpt lat="47.81331" lon="-2.83122">
        <ele>25.21</ele>
        <time>2018-01-19T09:41:00Z</time>
      </trkpt>
      <trkpt lat="47.81327" lon="-2.83093">
        <ele>24.99</ele>
        <time>2018-01-19T09:41:12Z</time>
      </trkpt>
      <trkpt lat="47.81325" lon="-2.83087">
        <ele>24.96</ele>
        <time>2018-01-19T09:41:14Z</time>
      </trkpt>
      <trkpt lat="47.81325" lon="-2.83085">
        <ele>24.95</ele>
        <time>2018-01-19T09:41:15Z</time>
      </trkpt>
      <trkpt lat="47.81324" lon="-2.83082">
        <ele>24.94</ele>
        <time>2018-01-19T09:41:16Z</time>
      </trkpt>
      <trkpt lat="47.81318" lon="-2.83048">
        <ele>24.53</ele>
        <time>2018-01-19T09:41:30Z</time>
      </trkpt>
      <trkpt lat="47.8131" lon="-2.8301">
        <ele>24.34</ele>
        <time>2018-01-19T09:41:45Z</time>
      </trkpt>
      <trkpt lat="47.81306" lon="-2.82977">
        <ele>23.92</ele>
        <time>2018-01-19T09:42:00Z</time>
      </trkpt>
      <trkpt lat="47.81299" lon="-2.82938">
        <ele>23.52</ele>
        <time>2018-01-19T09:42:17Z</time>
      </trkpt>
      <trkpt lat="47.81291" lon="-2.82904">
        <ele>23</ele>
        <time>2018-01-19T09:42:31Z</time>
      </trkpt>
      <trkpt lat="47.81286" lon="-2.82875">
        <ele>22.89</ele>
        <time>2018-01-19T09:42:43Z</time>
      </trkpt>
      <trkpt lat="47.81279" lon="-2.82845">
        <ele>22.82</ele>
        <time>2018-01-19T09:42:53Z</time>
      </trkpt>
      <trkpt lat="47.81279" lon="-2.82842">
        <ele>22.82</ele>
        <time>2018-01-19T09:42:54Z</time>
      </trkpt>
      <trkpt lat="47.81279" lon="-2.82839">
        <ele>22.78</ele>
        <time>2018-01-19T09:42:55Z</time>
      </trkpt>
      <trkpt lat="47.81293" lon="-2.8283">
        <ele>22.28</ele>
        <time>2018-01-19T09:43:08Z</time>
      </trkpt>
      <trkpt lat="47.81312" lon="-2.82833">
        <ele>22.67</ele>
        <time>2018-01-19T09:43:20Z</time>
      </trkpt>
      <trkpt lat="47.81331" lon="-2.82833">
        <ele>22.66</ele>
        <time>2018-01-19T09:43:31Z</time>
      </trkpt>
      <trkpt lat="47.81347" lon="-2.82838">
        <ele>22.75</ele>
        <time>2018-01-19T09:43:41Z</time>
      </trkpt>
      <trkpt lat="47.81349" lon="-2.82839">
        <ele>22.75</ele>
        <time>2018-01-19T09:43:42Z</time>
      </trkpt>
      <trkpt lat="47.8135" lon="-2.82839">
        <ele>22.75</ele>
        <time>2018-01-19T09:43:43Z</time>
      </trkpt>
      <trkpt lat="47.81369" lon="-2.82841">
        <ele>22.81</ele>
        <time>2018-01-19T09:43:57Z</time>
      </trkpt>
      <trkpt lat="47.81378" lon="-2.82843">
        <ele>22.72</ele>
        <time>2018-01-19T09:44:04Z</time>
      </trkpt>
      <trkpt lat="47.8138" lon="-2.82844">
        <ele>22.71</ele>
        <time>2018-01-19T09:44:05Z</time>
      </trkpt>
      <trkpt lat="47.81413" lon="-2.82854">
        <ele>21.85</ele>
        <time>2018-01-19T09:44:24Z</time>
      </trkpt>
      <trkpt lat="47.81423" lon="-2.82857">
        <ele>21.71</ele>
        <time>2018-01-19T09:44:29Z</time>
      </trkpt>
      <trkpt lat="47.81426" lon="-2.82857">
        <ele>21.64</ele>
        <time>2018-01-19T09:44:30Z</time>
      </trkpt>
      <trkpt lat="47.81427" lon="-2.82858">
        <ele>21.55</ele>
        <time>2018-01-19T09:44:31Z</time>
      </trkpt>
      <trkpt lat="47.81441" lon="-2.82863">
        <ele>20.95</ele>
        <time>2018-01-19T09:44:38Z</time>
      </trkpt>
      <trkpt lat="47.81442" lon="-2.82864">
        <ele>20.9</ele>
        <time>2018-01-19T09:44:39Z</time>
      </trkpt>
      <trkpt lat="47.81443" lon="-2.82865">
        <ele>20.85</ele>
        <time>2018-01-19T09:44:40Z</time>
      </trkpt>
      <trkpt lat="47.81466" lon="-2.82878">
        <ele>20.37</ele>
        <time>2018-01-19T09:44:54Z</time>
      </trkpt>
      <trkpt lat="47.81485" lon="-2.82884">
        <ele>20</ele>
        <time>2018-01-19T09:45:06Z</time>
      </trkpt>
      <trkpt lat="47.81507" lon="-2.82893">
        <ele>19.64</ele>
        <time>2018-01-19T09:45:19Z</time>
      </trkpt>
      <trkpt lat="47.81521" lon="-2.82899">
        <ele>19.09</ele>
        <time>2018-01-19T09:45:29Z</time>
      </trkpt>
      <trkpt lat="47.8154" lon="-2.82911">
        <ele>18.32</ele>
        <time>2018-01-19T09:45:41Z</time>
      </trkpt>
      <trkpt lat="47.81542" lon="-2.82911">
        <ele>18.27</ele>
        <time>2018-01-19T09:45:42Z</time>
      </trkpt>
      <trkpt lat="47.81567" lon="-2.82926">
        <ele>17.23</ele>
        <time>2018-01-19T09:45:57Z</time>
      </trkpt>
      <trkpt lat="47.81588" lon="-2.82935">
        <ele>16.31</ele>
        <time>2018-01-19T09:46:09Z</time>
      </trkpt>
      <trkpt lat="47.81603" lon="-2.82944">
        <ele>15.81</ele>
        <time>2018-01-19T09:46:19Z</time>
      </trkpt>
      <trkpt lat="47.81621" lon="-2.82956">
        <ele>14.99</ele>
        <time>2018-01-19T09:46:30Z</time>
      </trkpt>
      <trkpt lat="47.81641" lon="-2.82964">
        <ele>14.47</ele>
        <time>2018-01-19T09:46:42Z</time>
      </trkpt>
      <trkpt lat="47.81655" lon="-2.82975">
        <ele>13.83</ele>
        <time>2018-01-19T09:46:53Z</time>
      </trkpt>
      <trkpt lat="47.8166" lon="-2.82978">
        <ele>13.34</ele>
        <time>2018-01-19T09:46:57Z</time>
      </trkpt>
      <trkpt lat="47.81661" lon="-2.82979">
        <ele>13.19</ele>
        <time>2018-01-19T09:46:58Z</time>
      </trkpt>
      <trkpt lat="47.81663" lon="-2.8298">
        <ele>13.08</ele>
        <time>2018-01-19T09:46:59Z</time>
      </trkpt>
      <trkpt lat="47.81685" lon="-2.82988">
        <ele>12.29</ele>
        <time>2018-01-19T09:47:11Z</time>
      </trkpt>
      <trkpt lat="47.81709" lon="-2.83004">
        <ele>11.21</ele>
        <time>2018-01-19T09:47:25Z</time>
      </trkpt>
      <trkpt lat="47.81731" lon="-2.83016">
        <ele>9.72</ele>
        <time>2018-01-19T09:47:38Z</time>
      </trkpt>
      <trkpt lat="47.8175" lon="-2.83029">
        <ele>8.4</ele>
        <time>2018-01-19T09:47:50Z</time>
      </trkpt>
      <trkpt lat="47.81773" lon="-2.83043">
        <ele>7.64</ele>
        <time>2018-01-19T09:48:05Z</time>
      </trkpt>
      <trkpt lat="47.81798" lon="-2.83059">
        <ele>7.78</ele>
        <time>2018-01-19T09:48:20Z</time>
      </trkpt>
      <trkpt lat="47.81819" lon="-2.83071">
        <ele>8.36</ele>
        <time>2018-01-19T09:48:35Z</time>
      </trkpt>
      <trkpt lat="47.81845" lon="-2.83086">
        <ele>9.44</ele>
        <time>2018-01-19T09:48:51Z</time>
      </trkpt>
      <trkpt lat="47.81849" lon="-2.83088">
        <ele>9.65</ele>
        <time>2018-01-19T09:48:54Z</time>
      </trkpt>
      <trkpt lat="47.81851" lon="-2.83089">
        <ele>9.82</ele>
        <time>2018-01-19T09:48:56Z</time>
      </trkpt>
      <trkpt lat="47.81852" lon="-2.8309">
        <ele>9.88</ele>
        <time>2018-01-19T09:48:57Z</time>
      </trkpt>
      <trkpt lat="47.81854" lon="-2.83091">
        <ele>9.93</ele>
        <time>2018-01-19T09:48:58Z</time>
      </trkpt>
      <trkpt lat="47.81875" lon="-2.83103">
        <ele>10.19</ele>
        <time>2018-01-19T09:49:11Z</time>
      </trkpt>
      <trkpt lat="47.81901" lon="-2.83113">
        <ele>11.3</ele>
        <time>2018-01-19T09:49:26Z</time>
      </trkpt>
      <trkpt lat="47.81922" lon="-2.83117">
        <ele>11.98</ele>
        <time>2018-01-19T09:49:40Z</time>
      </trkpt>
      <trkpt lat="47.81947" lon="-2.83115">
        <ele>12.61</ele>
        <time>2018-01-19T09:49:55Z</time>
      </trkpt>
      <trkpt lat="47.81975" lon="-2.831">
        <ele>13.28</ele>
        <time>2018-01-19T09:50:12Z</time>
      </trkpt>
      <trkpt lat="47.81999" lon="-2.83088">
        <ele>14.02</ele>
        <time>2018-01-19T09:50:27Z</time>
      </trkpt>
      <trkpt lat="47.82016" lon="-2.83079">
        <ele>14.29</ele>
        <time>2018-01-19T09:50:38Z</time>
      </trkpt>
      <trkpt lat="47.82018" lon="-2.83078">
        <ele>14.35</ele>
        <time>2018-01-19T09:50:39Z</time>
      </trkpt>
      <trkpt lat="47.82019" lon="-2.83077">
        <ele>14.41</ele>
        <time>2018-01-19T09:50:40Z</time>
      </trkpt>
      <trkpt lat="47.8202" lon="-2.83077">
        <ele>14.43</ele>
        <time>2018-01-19T09:50:41Z</time>
      </trkpt>
      <trkpt lat="47.82022" lon="-2.83076">
        <ele>14.44</ele>
        <time>2018-01-19T09:50:42Z</time>
      </trkpt>
      <trkpt lat="47.82023" lon="-2.83076">
        <ele>14.45</ele>
        <time>2018-01-19T09:50:43Z</time>
      </trkpt>
      <trkpt lat="47.82041" lon="-2.83072">
        <ele>14.31</ele>
        <time>2018-01-19T09:50:54Z</time>
      </trkpt>
      <trkpt lat="47.82043" lon="-2.83071">
        <ele>14.28</ele>
        <time>2018-01-19T09:50:55Z</time>
      </trkpt>
      <trkpt lat="47.82057" lon="-2.83064">
        <ele>13.85</ele>
        <time>2018-01-19T09:51:05Z</time>
      </trkpt>
      <trkpt lat="47.82067" lon="-2.83061">
        <ele>13.78</ele>
        <time>2018-01-19T09:51:10Z</time>
      </trkpt>
      <trkpt lat="47.82068" lon="-2.83061">
        <ele>13.77</ele>
        <time>2018-01-19T09:51:11Z</time>
      </trkpt>
      <trkpt lat="47.8207" lon="-2.83061">
        <ele>13.7</ele>
        <time>2018-01-19T09:51:12Z</time>
      </trkpt>
      <trkpt lat="47.82072" lon="-2.8306">
        <ele>13.7</ele>
        <time>2018-01-19T09:51:13Z</time>
      </trkpt>
      <trkpt lat="47.82074" lon="-2.83058">
        <ele>13.66</ele>
        <time>2018-01-19T09:51:14Z</time>
      </trkpt>
      <trkpt lat="47.82089" lon="-2.83048">
        <ele>13.03</ele>
        <time>2018-01-19T09:51:25Z</time>
      </trkpt>
      <trkpt lat="47.82095" lon="-2.83045">
        <ele>12.54</ele>
        <time>2018-01-19T09:51:30Z</time>
      </trkpt>
      <trkpt lat="47.82099" lon="-2.83043">
        <ele>12.34</ele>
        <time>2018-01-19T09:51:33Z</time>
      </trkpt>
      <trkpt lat="47.821" lon="-2.83042">
        <ele>12.26</ele>
        <time>2018-01-19T09:51:34Z</time>
      </trkpt>
      <trkpt lat="47.82104" lon="-2.83042">
        <ele>12.06</ele>
        <time>2018-01-19T09:51:37Z</time>
      </trkpt>
      <trkpt lat="47.82137" lon="-2.83029">
        <ele>10.47</ele>
        <time>2018-01-19T09:51:58Z</time>
      </trkpt>
      <trkpt lat="47.82146" lon="-2.83027">
        <ele>10.16</ele>
        <time>2018-01-19T09:52:02Z</time>
      </trkpt>
      <trkpt lat="47.82148" lon="-2.83026">
        <ele>10.07</ele>
        <time>2018-01-19T09:52:03Z</time>
      </trkpt>
      <trkpt lat="47.82182" lon="-2.83015">
        <ele>8.03</ele>
        <time>2018-01-19T09:52:24Z</time>
      </trkpt>
      <trkpt lat="47.8219" lon="-2.83011">
        <ele>7.58</ele>
        <time>2018-01-19T09:52:29Z</time>
      </trkpt>
      <trkpt lat="47.82192" lon="-2.8301">
        <ele>7.44</ele>
        <time>2018-01-19T09:52:30Z</time>
      </trkpt>
      <trkpt lat="47.82194" lon="-2.83009">
        <ele>7.2</ele>
        <time>2018-01-19T09:52:31Z</time>
      </trkpt>
      <trkpt lat="47.82196" lon="-2.83009">
        <ele>7.09</ele>
        <time>2018-01-19T09:52:32Z</time>
      </trkpt>
      <trkpt lat="47.82198" lon="-2.83009">
        <ele>6.96</ele>
        <time>2018-01-19T09:52:33Z</time>
      </trkpt>
      <trkpt lat="47.82201" lon="-2.83008">
        <ele>6.83</ele>
        <time>2018-01-19T09:52:34Z</time>
      </trkpt>
      <trkpt lat="47.82202" lon="-2.83007">
        <ele>6.74</ele>
        <time>2018-01-19T09:52:35Z</time>
      </trkpt>
      <trkpt lat="47.82204" lon="-2.83006">
        <ele>6.66</ele>
        <time>2018-01-19T09:52:36Z</time>
      </trkpt>
      <trkpt lat="47.82206" lon="-2.83006">
        <ele>6.55</ele>
        <time>2018-01-19T09:52:38Z</time>
      </trkpt>
      <trkpt lat="47.8222" lon="-2.83012">
        <ele>5.63</ele>
        <time>2018-01-19T09:52:50Z</time>
      </trkpt>
      <trkpt lat="47.82222" lon="-2.83018">
        <ele>5.46</ele>
        <time>2018-01-19T09:52:53Z</time>
      </trkpt>
      <trkpt lat="47.82222" lon="-2.83019">
        <ele>5.4</ele>
        <time>2018-01-19T09:52:54Z</time>
      </trkpt>
      <trkpt lat="47.82223" lon="-2.83023">
        <ele>5.37</ele>
        <time>2018-01-19T09:52:56Z</time>
      </trkpt>
      <trkpt lat="47.82232" lon="-2.8304">
        <ele>4.64</ele>
        <time>2018-01-19T09:53:07Z</time>
      </trkpt>
      <trkpt lat="47.8225" lon="-2.83071">
        <ele>3.8</ele>
        <time>2018-01-19T09:53:23Z</time>
      </trkpt>
      <trkpt lat="47.82251" lon="-2.83073">
        <ele>3.76</ele>
        <time>2018-01-19T09:53:24Z</time>
      </trkpt>
      <trkpt lat="47.82252" lon="-2.83074">
        <ele>3.75</ele>
        <time>2018-01-19T09:53:25Z</time>
      </trkpt>
      <trkpt lat="47.82263" lon="-2.8309">
        <ele>3.73</ele>
        <time>2018-01-19T09:53:38Z</time>
      </trkpt>
      <trkpt lat="47.8228" lon="-2.83122">
        <ele>2.09</ele>
        <time>2018-01-19T09:53:53Z</time>
      </trkpt>
      <trkpt lat="47.82286" lon="-2.83144">
        <ele>0.88</ele>
        <time>2018-01-19T09:54:03Z</time>
      </trkpt>
      <trkpt lat="47.82286" lon="-2.83146">
        <ele>0.76</ele>
        <time>2018-01-19T09:54:04Z</time>
      </trkpt>
      <trkpt lat="47.82298" lon="-2.83171">
        <ele>-0.33</ele>
        <time>2018-01-19T09:54:18Z</time>
      </trkpt>
      <trkpt lat="47.8232" lon="-2.83186">
        <ele>-1.53</ele>
        <time>2018-01-19T09:54:35Z</time>
      </trkpt>
      <trkpt lat="47.82334" lon="-2.83207">
        <ele>-2.75</ele>
        <time>2018-01-19T09:54:50Z</time>
      </trkpt>
      <trkpt lat="47.82338" lon="-2.8321">
        <ele>-2.93</ele>
        <time>2018-01-19T09:54:52Z</time>
      </trkpt>
      <trkpt lat="47.82359" lon="-2.83227">
        <ele>-4.34</ele>
        <time>2018-01-19T09:55:09Z</time>
      </trkpt>
      <trkpt lat="47.82385" lon="-2.83254">
        <ele>-6.96</ele>
        <time>2018-01-19T09:55:26Z</time>
      </trkpt>
      <trkpt lat="47.82391" lon="-2.8326">
        <ele>-7.81</ele>
        <time>2018-01-19T09:55:31Z</time>
      </trkpt>
      <trkpt lat="47.8241" lon="-2.83274">
        <ele>-10.71</ele>
        <time>2018-01-19T09:55:45Z</time>
      </trkpt>
      <trkpt lat="47.82426" lon="-2.83282">
        <ele>-12.88</ele>
        <time>2018-01-19T09:55:59Z</time>
      </trkpt>
      <trkpt lat="47.8243" lon="-2.83281">
        <ele>-13.25</ele>
        <time>2018-01-19T09:56:01Z</time>
      </trkpt>
      <trkpt lat="47.82432" lon="-2.8328">
        <ele>-13.44</ele>
        <time>2018-01-19T09:56:02Z</time>
      </trkpt>
      <trkpt lat="47.82457" lon="-2.83275">
        <ele>-15.77</ele>
        <time>2018-01-19T09:56:19Z</time>
      </trkpt>
      <trkpt lat="47.82475" lon="-2.83277">
        <ele>-16.38</ele>
        <time>2018-01-19T09:56:28Z</time>
      </trkpt>
      <trkpt lat="47.82484" lon="-2.83282">
        <ele>-16.76</ele>
        <time>2018-01-19T09:56:33Z</time>
      </trkpt>
      <trkpt lat="47.82488" lon="-2.83286">
        <ele>-17.1</ele>
        <time>2018-01-19T09:56:36Z</time>
      </trkpt>
      <trkpt lat="47.8249" lon="-2.83288">
        <ele>-17.17</ele>
        <time>2018-01-19T09:56:37Z</time>
      </trkpt>
      <trkpt lat="47.82492" lon="-2.83289">
        <ele>-17.25</ele>
        <time>2018-01-19T09:56:38Z</time>
      </trkpt>
      <trkpt lat="47.82494" lon="-2.83292">
        <ele>-17.31</ele>
        <time>2018-01-19T09:56:39Z</time>
      </trkpt>
      <trkpt lat="47.82496" lon="-2.83294">
        <ele>-17.37</ele>
        <time>2018-01-19T09:56:40Z</time>
      </trkpt>
      <trkpt lat="47.82511" lon="-2.83313">
        <ele>-17.35</ele>
        <time>2018-01-19T09:56:47Z</time>
      </trkpt>
      <trkpt lat="47.82538" lon="-2.83351">
        <ele>-17.24</ele>
        <time>2018-01-19T09:56:55Z</time>
      </trkpt>
      <trkpt lat="47.82542" lon="-2.83356">
        <ele>-17.28</ele>
        <time>2018-01-19T09:56:56Z</time>
      </trkpt>
      <trkpt lat="47.82546" lon="-2.83361">
        <ele>-17.3</ele>
        <time>2018-01-19T09:56:57Z</time>
      </trkpt>
      <trkpt lat="47.8255" lon="-2.83367">
        <ele>-17.32</ele>
        <time>2018-01-19T09:56:58Z</time>
      </trkpt>
      <trkpt lat="47.82554" lon="-2.83372">
        <ele>-17.3</ele>
        <time>2018-01-19T09:56:59Z</time>
      </trkpt>
      <trkpt lat="47.82557" lon="-2.83378">
        <ele>-17.3</ele>
        <time>2018-01-19T09:57:00Z</time>
      </trkpt>
      <trkpt lat="47.82561" lon="-2.83384">
        <ele>-17.22</ele>
        <time>2018-01-19T09:57:01Z</time>
      </trkpt>
      <trkpt lat="47.82565" lon="-2.83391">
        <ele>-17.1</ele>
        <time>2018-01-19T09:57:02Z</time>
      </trkpt>
      <trkpt lat="47.82584" lon="-2.83428">
        <ele>-15.59</ele>
        <time>2018-01-19T09:57:07Z</time>
      </trkpt>
      <trkpt lat="47.82587" lon="-2.83433">
        <ele>-15.09</ele>
        <time>2018-01-19T09:57:08Z</time>
      </trkpt>
      <trkpt lat="47.82591" lon="-2.83438">
        <ele>-15.09</ele>
        <time>2018-01-19T09:57:09Z</time>
      </trkpt>
      <trkpt lat="47.82594" lon="-2.83443">
        <ele>-14.5</ele>
        <time>2018-01-19T09:57:10Z</time>
      </trkpt>
      <trkpt lat="47.82597" lon="-2.83446">
        <ele>-13.81</ele>
        <time>2018-01-19T09:57:11Z</time>
      </trkpt>
      <trkpt lat="47.826" lon="-2.83447">
        <ele>-13.13</ele>
        <time>2018-01-19T09:57:12Z</time>
      </trkpt>
      <trkpt lat="47.82603" lon="-2.83448">
        <ele>-12.42</ele>
        <time>2018-01-19T09:57:13Z</time>
      </trkpt>
      <trkpt lat="47.82607" lon="-2.83449">
        <ele>-11.57</ele>
        <time>2018-01-19T09:57:14Z</time>
      </trkpt>
      <trkpt lat="47.82616" lon="-2.8345">
        <ele>-9.9</ele>
        <time>2018-01-19T09:57:16Z</time>
      </trkpt>
      <trkpt lat="47.82621" lon="-2.8345">
        <ele>-8.18</ele>
        <time>2018-01-19T09:57:17Z</time>
      </trkpt>
      <trkpt lat="47.82647" lon="-2.83452">
        <ele>-4.85</ele>
        <time>2018-01-19T09:57:22Z</time>
      </trkpt>
      <trkpt lat="47.82695" lon="-2.83454">
        <ele>-1.81</ele>
        <time>2018-01-19T09:57:29Z</time>
      </trkpt>
      <trkpt lat="47.82748" lon="-2.83452">
        <ele>1.44</ele>
        <time>2018-01-19T09:57:36Z</time>
      </trkpt>
      <trkpt lat="47.82793" lon="-2.8345">
        <ele>5.01</ele>
        <time>2018-01-19T09:57:42Z</time>
      </trkpt>
      <trkpt lat="47.82813" lon="-2.83448">
        <ele>8.11</ele>
        <time>2018-01-19T09:57:47Z</time>
      </trkpt>
      <trkpt lat="47.82815" lon="-2.83447">
        <ele>8.68</ele>
        <time>2018-01-19T09:57:48Z</time>
      </trkpt>
      <trkpt lat="47.82818" lon="-2.83445">
        <ele>9.21</ele>
        <time>2018-01-19T09:57:49Z</time>
      </trkpt>
      <trkpt lat="47.8282" lon="-2.83445">
        <ele>9.69</ele>
        <time>2018-01-19T09:57:50Z</time>
      </trkpt>
      <trkpt lat="47.82838" lon="-2.83444">
        <ele>12.9</ele>
        <time>2018-01-19T09:57:59Z</time>
      </trkpt>
      <trkpt lat="47.82865" lon="-2.83449">
        <ele>15.24</ele>
        <time>2018-01-19T09:58:10Z</time>
      </trkpt>
      <trkpt lat="47.82902" lon="-2.83452">
        <ele>16.74</ele>
        <time>2018-01-19T09:58:22Z</time>
      </trkpt>
      <trkpt lat="47.82944" lon="-2.83447">
        <ele>16.18</ele>
        <time>2018-01-19T09:58:35Z</time>
      </trkpt>
      <trkpt lat="47.82998" lon="-2.8344">
        <ele>14.86</ele>
        <time>2018-01-19T09:58:52Z</time>
      </trkpt>
      <trkpt lat="47.83033" lon="-2.83433">
        <ele>13.61</ele>
        <time>2018-01-19T09:59:05Z</time>
      </trkpt>
      <trkpt lat="47.83059" lon="-2.83433">
        <ele>13.26</ele>
        <time>2018-01-19T09:59:14Z</time>
      </trkpt>
      <trkpt lat="47.83093" lon="-2.83449">
        <ele>12.36</ele>
        <time>2018-01-19T09:59:28Z</time>
      </trkpt>
      <trkpt lat="47.83092" lon="-2.83447">
        <ele>12.47</ele>
        <time>2018-01-19T09:59:32Z</time>
      </trkpt>
      <trkpt lat="47.83092" lon="-2.83446">
        <ele>12.51</ele>
        <time>2018-01-19T09:59:33Z</time>
      </trkpt>
      <trkpt lat="47.8309" lon="-2.83443">
        <ele>12.54</ele>
        <time>2018-01-19T09:59:36Z</time>
      </trkpt>
      <trkpt lat="47.83088" lon="-2.83438">
        <ele>12.9</ele>
        <time>2018-01-19T09:59:51Z</time>
      </trkpt>
      <trkpt lat="47.83087" lon="-2.83436">
        <ele>12.39</ele>
        <time>2018-01-19T10:00:09Z</time>
      </trkpt>
      <trkpt lat="47.83088" lon="-2.83438">
        <ele>12.06</ele>
        <time>2018-01-19T10:00:28Z</time>
      </trkpt>
      <trkpt lat="47.83089" lon="-2.83437">
        <ele>11.85</ele>
        <time>2018-01-19T10:00:50Z</time>
      </trkpt>
      <trkpt lat="47.8309" lon="-2.83441">
        <ele>12.22</ele>
        <time>2018-01-19T10:01:08Z</time>
      </trkpt>
      <trkpt lat="47.83092" lon="-2.83445">
        <ele>11.68</ele>
        <time>2018-01-19T10:01:34Z</time>
      </trkpt>
      <trkpt lat="47.83093" lon="-2.83447">
        <ele>11.71</ele>
        <time>2018-01-19T10:01:35Z</time>
      </trkpt>
      <trkpt lat="47.83095" lon="-2.83449">
        <ele>11.76</ele>
        <time>2018-01-19T10:01:37Z</time>
      </trkpt>
      <trkpt lat="47.83113" lon="-2.83457">
        <ele>11.63</ele>
        <time>2018-01-19T10:01:52Z</time>
      </trkpt>
      <trkpt lat="47.83119" lon="-2.83459">
        <ele>11.06</ele>
        <time>2018-01-19T10:02:11Z</time>
      </trkpt>
      <trkpt lat="47.83117" lon="-2.83459">
        <ele>10.89</ele>
        <time>2018-01-19T10:02:26Z</time>
      </trkpt>
      <trkpt lat="47.83119" lon="-2.83463">
        <ele>10.91</ele>
        <time>2018-01-19T10:02:31Z</time>
      </trkpt>
      <trkpt lat="47.8312" lon="-2.83464">
        <ele>10.96</ele>
        <time>2018-01-19T10:02:32Z</time>
      </trkpt>
      <trkpt lat="47.83121" lon="-2.83465">
        <ele>11.02</ele>
        <time>2018-01-19T10:02:33Z</time>
      </trkpt>
      <trkpt lat="47.83122" lon="-2.83466">
        <ele>11.1</ele>
        <time>2018-01-19T10:02:34Z</time>
      </trkpt>
      <trkpt lat="47.83124" lon="-2.83466">
        <ele>11.15</ele>
        <time>2018-01-19T10:02:35Z</time>
      </trkpt>
      <trkpt lat="47.83151" lon="-2.83479">
        <ele>9.44</ele>
        <time>2018-01-19T10:02:51Z</time>
      </trkpt>
      <trkpt lat="47.83177" lon="-2.83485">
        <ele>7.53</ele>
        <time>2018-01-19T10:03:06Z</time>
      </trkpt>
      <trkpt lat="47.83199" lon="-2.83492">
        <ele>5.58</ele>
        <time>2018-01-19T10:03:21Z</time>
      </trkpt>
      <trkpt lat="47.83229" lon="-2.835">
        <ele>3.92</ele>
        <time>2018-01-19T10:03:37Z</time>
      </trkpt>
      <trkpt lat="47.83261" lon="-2.83511">
        <ele>3.23</ele>
        <time>2018-01-19T10:03:54Z</time>
      </trkpt>
      <trkpt lat="47.83291" lon="-2.8352">
        <ele>3.88</ele>
        <time>2018-01-19T10:04:11Z</time>
      </trkpt>
      <trkpt lat="47.83313" lon="-2.83526">
        <ele>5.47</ele>
        <time>2018-01-19T10:04:24Z</time>
      </trkpt>
      <trkpt lat="47.83325" lon="-2.83513">
        <ele>6.45</ele>
        <time>2018-01-19T10:04:35Z</time>
      </trkpt>
      <trkpt lat="47.83325" lon="-2.8347">
        <ele>5.87</ele>
        <time>2018-01-19T10:04:51Z</time>
      </trkpt>
      <trkpt lat="47.83329" lon="-2.83441">
        <ele>5.43</ele>
        <time>2018-01-19T10:05:05Z</time>
      </trkpt>
      <trkpt lat="47.83339" lon="-2.83416">
        <ele>4.66</ele>
        <time>2018-01-19T10:05:17Z</time>
      </trkpt>
      <trkpt lat="47.83349" lon="-2.8338">
        <ele>3.74</ele>
        <time>2018-01-19T10:05:31Z</time>
      </trkpt>
      <trkpt lat="47.83349" lon="-2.83378">
        <ele>3.67</ele>
        <time>2018-01-19T10:05:32Z</time>
      </trkpt>
      <trkpt lat="47.83355" lon="-2.83347">
        <ele>2.83</ele>
        <time>2018-01-19T10:05:45Z</time>
      </trkpt>
      <trkpt lat="47.83355" lon="-2.83344">
        <ele>2.67</ele>
        <time>2018-01-19T10:05:46Z</time>
      </trkpt>
      <trkpt lat="47.83357" lon="-2.83339">
        <ele>2.36</ele>
        <time>2018-01-19T10:05:48Z</time>
      </trkpt>
      <trkpt lat="47.83357" lon="-2.83336">
        <ele>2.22</ele>
        <time>2018-01-19T10:05:49Z</time>
      </trkpt>
      <trkpt lat="47.83358" lon="-2.83331">
        <ele>2</ele>
        <time>2018-01-19T10:05:51Z</time>
      </trkpt>
      <trkpt lat="47.83358" lon="-2.83328">
        <ele>1.9</ele>
        <time>2018-01-19T10:05:52Z</time>
      </trkpt>
      <trkpt lat="47.83359" lon="-2.8332">
        <ele>1.47</ele>
        <time>2018-01-19T10:05:55Z</time>
      </trkpt>
      <trkpt lat="47.83359" lon="-2.83318">
        <ele>1.39</ele>
        <time>2018-01-19T10:05:56Z</time>
      </trkpt>
      <trkpt lat="47.8336" lon="-2.83316">
        <ele>1.39</ele>
        <time>2018-01-19T10:05:57Z</time>
      </trkpt>
      <trkpt lat="47.83361" lon="-2.83313">
        <ele>1.24</ele>
        <time>2018-01-19T10:05:58Z</time>
      </trkpt>
      <trkpt lat="47.83362" lon="-2.8331">
        <ele>1.12</ele>
        <time>2018-01-19T10:05:59Z</time>
      </trkpt>
      <trkpt lat="47.83362" lon="-2.83307">
        <ele>0.98</ele>
        <time>2018-01-19T10:06:00Z</time>
      </trkpt>
      <trkpt lat="47.83363" lon="-2.83305">
        <ele>0.83</ele>
        <time>2018-01-19T10:06:01Z</time>
      </trkpt>
      <trkpt lat="47.83364" lon="-2.83302">
        <ele>0.69</ele>
        <time>2018-01-19T10:06:02Z</time>
      </trkpt>
      <trkpt lat="47.83365" lon="-2.833">
        <ele>0.57</ele>
        <time>2018-01-19T10:06:03Z</time>
      </trkpt>
      <trkpt lat="47.83365" lon="-2.83297">
        <ele>0.45</ele>
        <time>2018-01-19T10:06:04Z</time>
      </trkpt>
      <trkpt lat="47.83371" lon="-2.83271">
        <ele>-1.03</ele>
        <time>2018-01-19T10:06:15Z</time>
      </trkpt>
      <trkpt lat="47.83372" lon="-2.83269">
        <ele>-1.21</ele>
        <time>2018-01-19T10:06:16Z</time>
      </trkpt>
      <trkpt lat="47.83372" lon="-2.83267">
        <ele>-1.37</ele>
        <time>2018-01-19T10:06:17Z</time>
      </trkpt>
      <trkpt lat="47.83373" lon="-2.83264">
        <ele>-1.52</ele>
        <time>2018-01-19T10:06:18Z</time>
      </trkpt>
      <trkpt lat="47.83374" lon="-2.83262">
        <ele>-1.64</ele>
        <time>2018-01-19T10:06:19Z</time>
      </trkpt>
      <trkpt lat="47.83374" lon="-2.8326">
        <ele>-1.89</ele>
        <time>2018-01-19T10:06:20Z</time>
      </trkpt>
      <trkpt lat="47.83375" lon="-2.83257">
        <ele>-1.89</ele>
        <time>2018-01-19T10:06:21Z</time>
      </trkpt>
      <trkpt lat="47.83375" lon="-2.83255">
        <ele>-2.17</ele>
        <time>2018-01-19T10:06:22Z</time>
      </trkpt>
      <trkpt lat="47.83376" lon="-2.83252">
        <ele>-2.36</ele>
        <time>2018-01-19T10:06:23Z</time>
      </trkpt>
      <trkpt lat="47.83376" lon="-2.83249">
        <ele>-2.59</ele>
        <time>2018-01-19T10:06:24Z</time>
      </trkpt>
      <trkpt lat="47.83377" lon="-2.83247">
        <ele>-2.8</ele>
        <time>2018-01-19T10:06:25Z</time>
      </trkpt>
      <trkpt lat="47.83378" lon="-2.83244">
        <ele>-2.99</ele>
        <time>2018-01-19T10:06:26Z</time>
      </trkpt>
      <trkpt lat="47.83379" lon="-2.83242">
        <ele>-3.15</ele>
        <time>2018-01-19T10:06:27Z</time>
      </trkpt>
      <trkpt lat="47.8338" lon="-2.8324">
        <ele>-3.29</ele>
        <time>2018-01-19T10:06:28Z</time>
      </trkpt>
      <trkpt lat="47.83381" lon="-2.83238">
        <ele>-3.45</ele>
        <time>2018-01-19T10:06:29Z</time>
      </trkpt>
      <trkpt lat="47.83382" lon="-2.83235">
        <ele>-3.63</ele>
        <time>2018-01-19T10:06:30Z</time>
      </trkpt>
      <trkpt lat="47.83398" lon="-2.83225">
        <ele>-5.6</ele>
        <time>2018-01-19T10:06:43Z</time>
      </trkpt>
      <trkpt lat="47.83419" lon="-2.83231">
        <ele>-5.32</ele>
        <time>2018-01-19T10:06:56Z</time>
      </trkpt>
      <trkpt lat="47.83434" lon="-2.83237">
        <ele>-5.05</ele>
        <time>2018-01-19T10:07:05Z</time>
      </trkpt>
      <trkpt lat="47.83436" lon="-2.83237">
        <ele>-5.01</ele>
        <time>2018-01-19T10:07:06Z</time>
      </trkpt>
      <trkpt lat="47.83437" lon="-2.83238">
        <ele>-5</ele>
        <time>2018-01-19T10:07:07Z</time>
      </trkpt>
      <trkpt lat="47.83449" lon="-2.83244">
        <ele>-4.82</ele>
        <time>2018-01-19T10:07:14Z</time>
      </trkpt>
      <trkpt lat="47.83475" lon="-2.83252">
        <ele>-4.13</ele>
        <time>2018-01-19T10:07:29Z</time>
      </trkpt>
      <trkpt lat="47.83498" lon="-2.83261">
        <ele>-2.82</ele>
        <time>2018-01-19T10:07:43Z</time>
      </trkpt>
      <trkpt lat="47.83522" lon="-2.83279">
        <ele>-1.31</ele>
        <time>2018-01-19T10:08:00Z</time>
      </trkpt>
      <trkpt lat="47.83547" lon="-2.83298">
        <ele>-1.36</ele>
        <time>2018-01-19T10:08:16Z</time>
      </trkpt>
      <trkpt lat="47.83573" lon="-2.83307">
        <ele>-2.52</ele>
        <time>2018-01-19T10:08:30Z</time>
      </trkpt>
      <trkpt lat="47.83592" lon="-2.83295">
        <ele>-3.69</ele>
        <time>2018-01-19T10:08:42Z</time>
      </trkpt>
      <trkpt lat="47.83602" lon="-2.8328">
        <ele>-4.38</ele>
        <time>2018-01-19T10:08:51Z</time>
      </trkpt>
      <trkpt lat="47.83607" lon="-2.83266">
        <ele>-5.18</ele>
        <time>2018-01-19T10:08:57Z</time>
      </trkpt>
      <trkpt lat="47.83607" lon="-2.83264">
        <ele>-5.28</ele>
        <time>2018-01-19T10:08:58Z</time>
      </trkpt>
      <trkpt lat="47.83608" lon="-2.83262">
        <ele>-5.36</ele>
        <time>2018-01-19T10:08:59Z</time>
      </trkpt>
      <trkpt lat="47.83608" lon="-2.8326">
        <ele>-5.43</ele>
        <time>2018-01-19T10:09:00Z</time>
      </trkpt>
      <trkpt lat="47.83608" lon="-2.83258">
        <ele>-5.49</ele>
        <time>2018-01-19T10:09:01Z</time>
      </trkpt>
      <trkpt lat="47.83608" lon="-2.83255">
        <ele>-5.59</ele>
        <time>2018-01-19T10:09:02Z</time>
      </trkpt>
      <trkpt lat="47.83607" lon="-2.83234">
        <ele>-6.05</ele>
        <time>2018-01-19T10:09:11Z</time>
      </trkpt>
      <trkpt lat="47.83608" lon="-2.83236">
        <ele>-6.09</ele>
        <time>2018-01-19T10:09:15Z</time>
      </trkpt>
      <trkpt lat="47.83608" lon="-2.83238">
        <ele>-6.1</ele>
        <time>2018-01-19T10:09:16Z</time>
      </trkpt>
      <trkpt lat="47.83609" lon="-2.8324">
        <ele>-6.12</ele>
        <time>2018-01-19T10:09:17Z</time>
      </trkpt>
      <trkpt lat="47.83609" lon="-2.83242">
        <ele>-6.15</ele>
        <time>2018-01-19T10:09:18Z</time>
      </trkpt>
      <trkpt lat="47.8361" lon="-2.83243">
        <ele>-6.18</ele>
        <time>2018-01-19T10:09:19Z</time>
      </trkpt>
      <trkpt lat="47.83611" lon="-2.83244">
        <ele>-6.2</ele>
        <time>2018-01-19T10:09:20Z</time>
      </trkpt>
      <trkpt lat="47.83612" lon="-2.83245">
        <ele>-6.23</ele>
        <time>2018-01-19T10:09:21Z</time>
      </trkpt>
      <trkpt lat="47.83614" lon="-2.83245">
        <ele>-6.27</ele>
        <time>2018-01-19T10:09:22Z</time>
      </trkpt>
      <trkpt lat="47.83616" lon="-2.83245">
        <ele>-6.31</ele>
        <time>2018-01-19T10:09:23Z</time>
      </trkpt>
      <trkpt lat="47.83618" lon="-2.83245">
        <ele>-6.39</ele>
        <time>2018-01-19T10:09:24Z</time>
      </trkpt>
      <trkpt lat="47.83649" lon="-2.83249">
        <ele>-7.01</ele>
        <time>2018-01-19T10:09:40Z</time>
      </trkpt>
      <trkpt lat="47.83676" lon="-2.83257">
        <ele>-7.47</ele>
        <time>2018-01-19T10:09:55Z</time>
      </trkpt>
      <trkpt lat="47.837" lon="-2.83268">
        <ele>-7.94</ele>
        <time>2018-01-19T10:10:09Z</time>
      </trkpt>
      <trkpt lat="47.83722" lon="-2.83277">
        <ele>-8.73</ele>
        <time>2018-01-19T10:10:22Z</time>
      </trkpt>
      <trkpt lat="47.83745" lon="-2.8328">
        <ele>-10.87</ele>
        <time>2018-01-19T10:10:36Z</time>
      </trkpt>
      <trkpt lat="47.83773" lon="-2.83275">
        <ele>-13.53</ele>
        <time>2018-01-19T10:10:51Z</time>
      </trkpt>
      <trkpt lat="47.83804" lon="-2.83267">
        <ele>-15.36</ele>
        <time>2018-01-19T10:11:08Z</time>
      </trkpt>
      <trkpt lat="47.83837" lon="-2.83254">
        <ele>-16.52</ele>
        <time>2018-01-19T10:11:28Z</time>
      </trkpt>
      <trkpt lat="47.83872" lon="-2.8324">
        <ele>-17.76</ele>
        <time>2018-01-19T10:11:48Z</time>
      </trkpt>
      <trkpt lat="47.83883" lon="-2.83238">
        <ele>-17.89</ele>
        <time>2018-01-19T10:11:51Z</time>
      </trkpt>
      <trkpt lat="47.83955" lon="-2.8321">
        <ele>-18.91</ele>
        <time>2018-01-19T10:12:04Z</time>
      </trkpt>
      <trkpt lat="47.84028" lon="-2.83183">
        <ele>-18.17</ele>
        <time>2018-01-19T10:12:18Z</time>
      </trkpt>
      <trkpt lat="47.84032" lon="-2.83182">
        <ele>-18.01</ele>
        <time>2018-01-19T10:12:19Z</time>
      </trkpt>
      <trkpt lat="47.84059" lon="-2.83172">
        <ele>-16.7</ele>
        <time>2018-01-19T10:12:26Z</time>
      </trkpt>
      <trkpt lat="47.84063" lon="-2.8317">
        <ele>-16.63</ele>
        <time>2018-01-19T10:12:27Z</time>
      </trkpt>
      <trkpt lat="47.84067" lon="-2.83166">
        <ele>-16.6</ele>
        <time>2018-01-19T10:12:28Z</time>
      </trkpt>
      <trkpt lat="47.8407" lon="-2.83161">
        <ele>-16.58</ele>
        <time>2018-01-19T10:12:29Z</time>
      </trkpt>
      <trkpt lat="47.84073" lon="-2.83155">
        <ele>-16.57</ele>
        <time>2018-01-19T10:12:30Z</time>
      </trkpt>
      <trkpt lat="47.84076" lon="-2.83149">
        <ele>-16.57</ele>
        <time>2018-01-19T10:12:31Z</time>
      </trkpt>
      <trkpt lat="47.8408" lon="-2.83144">
        <ele>-16.58</ele>
        <time>2018-01-19T10:12:32Z</time>
      </trkpt>
      <trkpt lat="47.84123" lon="-2.83055">
        <ele>-17.08</ele>
        <time>2018-01-19T10:12:46Z</time>
      </trkpt>
      <trkpt lat="47.84153" lon="-2.82993">
        <ele>-18.56</ele>
        <time>2018-01-19T10:12:59Z</time>
      </trkpt>
      <trkpt lat="47.84188" lon="-2.82926">
        <ele>-19.09</ele>
        <time>2018-01-19T10:13:13Z</time>
      </trkpt>
      <trkpt lat="47.842" lon="-2.82903">
        <ele>-18.82</ele>
        <time>2018-01-19T10:13:18Z</time>
      </trkpt>
      <trkpt lat="47.8422" lon="-2.82838">
        <ele>-18</ele>
        <time>2018-01-19T10:13:29Z</time>
      </trkpt>
      <trkpt lat="47.84221" lon="-2.82825">
        <ele>-17.89</ele>
        <time>2018-01-19T10:13:31Z</time>
      </trkpt>
      <trkpt lat="47.8422" lon="-2.82818">
        <ele>-17.84</ele>
        <time>2018-01-19T10:13:32Z</time>
      </trkpt>
      <trkpt lat="47.8422" lon="-2.82811">
        <ele>-17.8</ele>
        <time>2018-01-19T10:13:33Z</time>
      </trkpt>
      <trkpt lat="47.84219" lon="-2.82804">
        <ele>-17.76</ele>
        <time>2018-01-19T10:13:34Z</time>
      </trkpt>
      <trkpt lat="47.84218" lon="-2.82798">
        <ele>-17.72</ele>
        <time>2018-01-19T10:13:35Z</time>
      </trkpt>
      <trkpt lat="47.84216" lon="-2.82778">
        <ele>-17.59</ele>
        <time>2018-01-19T10:13:38Z</time>
      </trkpt>
      <trkpt lat="47.84215" lon="-2.82772">
        <ele>-17.56</ele>
        <time>2018-01-19T10:13:39Z</time>
      </trkpt>
      <trkpt lat="47.84214" lon="-2.82766">
        <ele>-17.56</ele>
        <time>2018-01-19T10:13:40Z</time>
      </trkpt>
      <trkpt lat="47.84213" lon="-2.8276">
        <ele>-17.58</ele>
        <time>2018-01-19T10:13:41Z</time>
      </trkpt>
      <trkpt lat="47.84212" lon="-2.82755">
        <ele>-17.61</ele>
        <time>2018-01-19T10:13:42Z</time>
      </trkpt>
      <trkpt lat="47.84212" lon="-2.8275">
        <ele>-17.64</ele>
        <time>2018-01-19T10:13:43Z</time>
      </trkpt>
      <trkpt lat="47.84211" lon="-2.82745">
        <ele>-17.67</ele>
        <time>2018-01-19T10:13:44Z</time>
      </trkpt>
      <trkpt lat="47.8421" lon="-2.82741">
        <ele>-17.7</ele>
        <time>2018-01-19T10:13:45Z</time>
      </trkpt>
      <trkpt lat="47.8421" lon="-2.82736">
        <ele>-17.7</ele>
        <time>2018-01-19T10:13:46Z</time>
      </trkpt>
      <trkpt lat="47.84206" lon="-2.82707">
        <ele>-17.73</ele>
        <time>2018-01-19T10:13:56Z</time>
      </trkpt>
      <trkpt lat="47.84203" lon="-2.82669">
        <ele>-17.7</ele>
        <time>2018-01-19T10:14:11Z</time>
      </trkpt>
      <trkpt lat="47.842" lon="-2.82626">
        <ele>-17.92</ele>
        <time>2018-01-19T10:14:27Z</time>
      </trkpt>
      <trkpt lat="47.84198" lon="-2.82614">
        <ele>-18.11</ele>
        <time>2018-01-19T10:14:32Z</time>
      </trkpt>
      <trkpt lat="47.84198" lon="-2.82611">
        <ele>-18.12</ele>
        <time>2018-01-19T10:14:33Z</time>
      </trkpt>
      <trkpt lat="47.84197" lon="-2.82609">
        <ele>-18.14</ele>
        <time>2018-01-19T10:14:34Z</time>
      </trkpt>
      <trkpt lat="47.84197" lon="-2.82606">
        <ele>-18.18</ele>
        <time>2018-01-19T10:14:35Z</time>
      </trkpt>
      <trkpt lat="47.84197" lon="-2.82604">
        <ele>-18.24</ele>
        <time>2018-01-19T10:14:36Z</time>
      </trkpt>
      <trkpt lat="47.84197" lon="-2.82601">
        <ele>-18.31</ele>
        <time>2018-01-19T10:14:37Z</time>
      </trkpt>
      <trkpt lat="47.84197" lon="-2.82598">
        <ele>-18.37</ele>
        <time>2018-01-19T10:14:38Z</time>
      </trkpt>
      <trkpt lat="47.84196" lon="-2.82595">
        <ele>-18.43</ele>
        <time>2018-01-19T10:14:39Z</time>
      </trkpt>
      <trkpt lat="47.84192" lon="-2.82555">
        <ele>-19.16</ele>
        <time>2018-01-19T10:14:54Z</time>
      </trkpt>
      <trkpt lat="47.84188" lon="-2.82517">
        <ele>-19.47</ele>
        <time>2018-01-19T10:15:08Z</time>
      </trkpt>
      <trkpt lat="47.84188" lon="-2.82481">
        <ele>-19.99</ele>
        <time>2018-01-19T10:15:21Z</time>
      </trkpt>
      <trkpt lat="47.84191" lon="-2.82434">
        <ele>-20.38</ele>
        <time>2018-01-19T10:15:38Z</time>
      </trkpt>
      <trkpt lat="47.84195" lon="-2.82384">
        <ele>-20.07</ele>
        <time>2018-01-19T10:15:56Z</time>
      </trkpt>
      <trkpt lat="47.84205" lon="-2.82334">
        <ele>-20.07</ele>
        <time>2018-01-19T10:16:17Z</time>
      </trkpt>
      <trkpt lat="47.8421" lon="-2.82322">
        <ele>-19.54</ele>
        <time>2018-01-19T10:16:33Z</time>
      </trkpt>
      <trkpt lat="47.84211" lon="-2.8232">
        <ele>-19.53</ele>
        <time>2018-01-19T10:16:43Z</time>
      </trkpt>
      <trkpt lat="47.84211" lon="-2.82319">
        <ele>-19.52</ele>
        <time>2018-01-19T10:16:44Z</time>
      </trkpt>
      <trkpt lat="47.84211" lon="-2.82316">
        <ele>-19.54</ele>
        <time>2018-01-19T10:16:45Z</time>
      </trkpt>
      <trkpt lat="47.84212" lon="-2.82314">
        <ele>-19.57</ele>
        <time>2018-01-19T10:16:46Z</time>
      </trkpt>
      <trkpt lat="47.84212" lon="-2.82311">
        <ele>-19.58</ele>
        <time>2018-01-19T10:16:47Z</time>
      </trkpt>
      <trkpt lat="47.84213" lon="-2.82307">
        <ele>-19.6</ele>
        <time>2018-01-19T10:16:48Z</time>
      </trkpt>
      <trkpt lat="47.8424" lon="-2.8226">
        <ele>-20.22</ele>
        <time>2018-01-19T10:17:00Z</time>
      </trkpt>
      <trkpt lat="47.84271" lon="-2.82261">
        <ele>-20.47</ele>
        <time>2018-01-19T10:17:08Z</time>
      </trkpt>
      <trkpt lat="47.84317" lon="-2.82294">
        <ele>-19.99</ele>
        <time>2018-01-19T10:17:18Z</time>
      </trkpt>
      <trkpt lat="47.84347" lon="-2.82328">
        <ele>-19.61</ele>
        <time>2018-01-19T10:17:24Z</time>
      </trkpt>
      <trkpt lat="47.84355" lon="-2.82337">
        <ele>-19.65</ele>
        <time>2018-01-19T10:17:26Z</time>
      </trkpt>
      <trkpt lat="47.84362" lon="-2.82346">
        <ele>-19.7</ele>
        <time>2018-01-19T10:17:28Z</time>
      </trkpt>
      <trkpt lat="47.84422" lon="-2.82413">
        <ele>-19.87</ele>
        <time>2018-01-19T10:17:41Z</time>
      </trkpt>
      <trkpt lat="47.84446" lon="-2.82437">
        <ele>-19.46</ele>
        <time>2018-01-19T10:17:47Z</time>
      </trkpt>
      <trkpt lat="47.84449" lon="-2.8244">
        <ele>-19.39</ele>
        <time>2018-01-19T10:17:48Z</time>
      </trkpt>
      <trkpt lat="47.84464" lon="-2.82443">
        <ele>-19.18</ele>
        <time>2018-01-19T10:17:52Z</time>
      </trkpt>
      <trkpt lat="47.84467" lon="-2.82439">
        <ele>-19.15</ele>
        <time>2018-01-19T10:17:53Z</time>
      </trkpt>
      <trkpt lat="47.8447" lon="-2.82433">
        <ele>-19.15</ele>
        <time>2018-01-19T10:17:54Z</time>
      </trkpt>
      <trkpt lat="47.84472" lon="-2.82427">
        <ele>-19.19</ele>
        <time>2018-01-19T10:17:55Z</time>
      </trkpt>
      <trkpt lat="47.84473" lon="-2.82421">
        <ele>-19.23</ele>
        <time>2018-01-19T10:17:56Z</time>
      </trkpt>
      <trkpt lat="47.84492" lon="-2.82342">
        <ele>-18.96</ele>
        <time>2018-01-19T10:18:07Z</time>
      </trkpt>
      <trkpt lat="47.84493" lon="-2.82335">
        <ele>-18.89</ele>
        <time>2018-01-19T10:18:08Z</time>
      </trkpt>
      <trkpt lat="47.84494" lon="-2.82328">
        <ele>-18.82</ele>
        <time>2018-01-19T10:18:09Z</time>
      </trkpt>
      <trkpt lat="47.84513" lon="-2.8225">
        <ele>-18.23</ele>
        <time>2018-01-19T10:18:22Z</time>
      </trkpt>
      <trkpt lat="47.84525" lon="-2.82199">
        <ele>-18.49</ele>
        <time>2018-01-19T10:18:37Z</time>
      </trkpt>
      <trkpt lat="47.84517" lon="-2.82168">
        <ele>-18.68</ele>
        <time>2018-01-19T10:18:52Z</time>
      </trkpt>
      <trkpt lat="47.84503" lon="-2.82153">
        <ele>-18.84</ele>
        <time>2018-01-19T10:19:03Z</time>
      </trkpt>
      <trkpt lat="47.84501" lon="-2.82146">
        <ele>-19.02</ele>
        <time>2018-01-19T10:19:09Z</time>
      </trkpt>
      <trkpt lat="47.84499" lon="-2.82138">
        <ele>-19.37</ele>
        <time>2018-01-19T10:19:22Z</time>
      </trkpt>
      <trkpt lat="47.84498" lon="-2.82135">
        <ele>-19.45</ele>
        <time>2018-01-19T10:19:45Z</time>
      </trkpt>
      <trkpt lat="47.84497" lon="-2.82134">
        <ele>-18.98</ele>
        <time>2018-01-19T10:20:11Z</time>
      </trkpt>
      <trkpt lat="47.84496" lon="-2.82133">
        <ele>-18.86</ele>
        <time>2018-01-19T10:20:35Z</time>
      </trkpt>
      <trkpt lat="47.84497" lon="-2.82131">
        <ele>-18.9</ele>
        <time>2018-01-19T10:21:09Z</time>
      </trkpt>
      <trkpt lat="47.845" lon="-2.82135">
        <ele>-18.91</ele>
        <time>2018-01-19T10:21:38Z</time>
      </trkpt>
      <trkpt lat="47.84501" lon="-2.82148">
        <ele>-18.83</ele>
        <time>2018-01-19T10:21:57Z</time>
      </trkpt>
      <trkpt lat="47.84501" lon="-2.82151">
        <ele>-19.18</ele>
        <time>2018-01-19T10:22:22Z</time>
      </trkpt>
      <trkpt lat="47.84504" lon="-2.82152">
        <ele>-19.28</ele>
        <time>2018-01-19T10:22:58Z</time>
      </trkpt>
      <trkpt lat="47.84501" lon="-2.82147">
        <ele>-19.06</ele>
        <time>2018-01-19T10:23:30Z</time>
      </trkpt>
      <trkpt lat="47.845" lon="-2.82142">
        <ele>-19.18</ele>
        <time>2018-01-19T10:24:01Z</time>
      </trkpt>
      <trkpt lat="47.84499" lon="-2.8214">
        <ele>-19.64</ele>
        <time>2018-01-19T10:24:24Z</time>
      </trkpt>
      <trkpt lat="47.84499" lon="-2.82138">
        <ele>-19.53</ele>
        <time>2018-01-19T10:24:25Z</time>
      </trkpt>
      <trkpt lat="47.845" lon="-2.82134">
        <ele>-19.49</ele>
        <time>2018-01-19T10:24:26Z</time>
      </trkpt>
      <trkpt lat="47.84501" lon="-2.82131">
        <ele>-19.45</ele>
        <time>2018-01-19T10:24:27Z</time>
      </trkpt>
      <trkpt lat="47.84502" lon="-2.82127">
        <ele>-19.42</ele>
        <time>2018-01-19T10:24:28Z</time>
      </trkpt>
      <trkpt lat="47.84503" lon="-2.82123">
        <ele>-19.42</ele>
        <time>2018-01-19T10:24:29Z</time>
      </trkpt>
      <trkpt lat="47.84513" lon="-2.82093">
        <ele>-20.36</ele>
        <time>2018-01-19T10:24:41Z</time>
      </trkpt>
      <trkpt lat="47.84534" lon="-2.82089">
        <ele>-20.03</ele>
        <time>2018-01-19T10:24:55Z</time>
      </trkpt>
      <trkpt lat="47.84556" lon="-2.82097">
        <ele>-19.83</ele>
        <time>2018-01-19T10:25:09Z</time>
      </trkpt>
      <trkpt lat="47.84576" lon="-2.82091">
        <ele>-18.94</ele>
        <time>2018-01-19T10:25:23Z</time>
      </trkpt>
      <trkpt lat="47.84577" lon="-2.82089">
        <ele>-18.92</ele>
        <time>2018-01-19T10:25:24Z</time>
      </trkpt>
      <trkpt lat="47.84577" lon="-2.82085">
        <ele>-18.91</ele>
        <time>2018-01-19T10:25:25Z</time>
      </trkpt>
      <trkpt lat="47.84489" lon="-2.81968">
        <ele>94.671875</ele>
      </trkpt>
      <trkpt lat="47.84463" lon="-2.81753">
        <ele>92.125</ele>
      </trkpt>
      <trkpt lat="47.84383" lon="-2.81604">
        <ele>90.28125</ele>
      </trkpt>
      <trkpt lat="47.84432" lon="-2.80225">
        <ele>78.4375</ele>
      </trkpt>
      <trkpt lat="47.84481" lon="-2.80167">
        <ele>68.90234375</ele>
      </trkpt>
      <trkpt lat="47.84578" lon="-2.8023">
        <ele>73.828125</ele>
      </trkpt>
      <trkpt lat="47.84696" lon="-2.8027">
        <ele>74.6015625</ele>
      </trkpt>
      <trkpt lat="47.84782" lon="-2.80341">
        <ele>76.75</ele>
      </trkpt>
      <trkpt lat="47.84862" lon="-2.80467">
        <ele>78.3984375</ele>
      </trkpt>
      <trkpt lat="47.84886" lon="-2.80592">
        <ele>83.94921875</ele>
      </trkpt>
      <trkpt lat="47.84904" lon="-2.80654">
        <ele>-36.19</ele>
        <time>2018-01-19T10:34:38Z</time>
      </trkpt>
      <trkpt lat="47.84926" lon="-2.8069">
        <ele>-35.38</ele>
        <time>2018-01-19T10:34:45Z</time>
      </trkpt>
      <trkpt lat="47.84929" lon="-2.80695">
        <ele>-35.29</ele>
        <time>2018-01-19T10:34:46Z</time>
      </trkpt>
      <trkpt lat="47.84933" lon="-2.807">
        <ele>-35.2</ele>
        <time>2018-01-19T10:34:47Z</time>
      </trkpt>
      <trkpt lat="47.84936" lon="-2.80705">
        <ele>-35.13</ele>
        <time>2018-01-19T10:34:48Z</time>
      </trkpt>
      <trkpt lat="47.8494" lon="-2.8071">
        <ele>-34.97</ele>
        <time>2018-01-19T10:34:49Z</time>
      </trkpt>
      <trkpt lat="47.84944" lon="-2.80715">
        <ele>-34.99</ele>
        <time>2018-01-19T10:34:50Z</time>
      </trkpt>
      <trkpt lat="47.84948" lon="-2.80719">
        <ele>-35.02</ele>
        <time>2018-01-19T10:34:51Z</time>
      </trkpt>
      <trkpt lat="47.8498" lon="-2.80749">
        <ele>-35.37</ele>
        <time>2018-01-19T10:34:58Z</time>
      </trkpt>
      <trkpt lat="47.84984" lon="-2.80753">
        <ele>-35.41</ele>
        <time>2018-01-19T10:34:59Z</time>
      </trkpt>
      <trkpt lat="47.85012" lon="-2.80775">
        <ele>-34.73</ele>
        <time>2018-01-19T10:35:06Z</time>
      </trkpt>
      <trkpt lat="47.85045" lon="-2.80773">
        <ele>-33.77</ele>
        <time>2018-01-19T10:35:16Z</time>
      </trkpt>
      <trkpt lat="47.85049" lon="-2.80762">
        <ele>-33.72</ele>
        <time>2018-01-19T10:35:18Z</time>
      </trkpt>
      <trkpt lat="47.85053" lon="-2.8075">
        <ele>-33.75</ele>
        <time>2018-01-19T10:35:20Z</time>
      </trkpt>
      <trkpt lat="47.85055" lon="-2.80744">
        <ele>-33.81</ele>
        <time>2018-01-19T10:35:21Z</time>
      </trkpt>
      <trkpt lat="47.85079" lon="-2.80663">
        <ele>-35.72</ele>
        <time>2018-01-19T10:35:36Z</time>
      </trkpt>
      <trkpt lat="47.85091" lon="-2.80618">
        <ele>-38.87</ele>
        <time>2018-01-19T10:35:46Z</time>
      </trkpt>
      <trkpt lat="47.85103" lon="-2.80579">
        <ele>-41.98</ele>
        <time>2018-01-19T10:35:57Z</time>
      </trkpt>
      <trkpt lat="47.85107" lon="-2.8057">
        <ele>-42.93</ele>
        <time>2018-01-19T10:36:00Z</time>
      </trkpt>
      <trkpt lat="47.85107" lon="-2.80566">
        <ele>-43.2</ele>
        <time>2018-01-19T10:36:01Z</time>
      </trkpt>
      <trkpt lat="47.85108" lon="-2.80562">
        <ele>-43.47</ele>
        <time>2018-01-19T10:36:02Z</time>
      </trkpt>
      <trkpt lat="47.85109" lon="-2.80558">
        <ele>-43.88</ele>
        <time>2018-01-19T10:36:03Z</time>
      </trkpt>
      <trkpt lat="47.8511" lon="-2.80554">
        <ele>-43.88</ele>
        <time>2018-01-19T10:36:04Z</time>
      </trkpt>
      <trkpt lat="47.85111" lon="-2.80549">
        <ele>-44.16</ele>
        <time>2018-01-19T10:36:05Z</time>
      </trkpt>
      <trkpt lat="47.85123" lon="-2.80524">
        <ele>-44.23</ele>
        <time>2018-01-19T10:36:10Z</time>
      </trkpt>
      <trkpt lat="47.85126" lon="-2.80513">
        <ele>-43.79</ele>
        <time>2018-01-19T10:36:12Z</time>
      </trkpt>
      <trkpt lat="47.85146" lon="-2.80459">
        <ele>-41.15</ele>
        <time>2018-01-19T10:36:25Z</time>
      </trkpt>
      <trkpt lat="47.85148" lon="-2.80455">
        <ele>-40.92</ele>
        <time>2018-01-19T10:36:26Z</time>
      </trkpt>
      <trkpt lat="47.85157" lon="-2.80446">
        <ele>-38.58</ele>
        <time>2018-01-19T10:36:31Z</time>
      </trkpt>
      <trkpt lat="47.85179" lon="-2.8043">
        <ele>-35.54</ele>
        <time>2018-01-19T10:36:42Z</time>
      </trkpt>
      <trkpt lat="47.85184" lon="-2.80423">
        <ele>-34.65</ele>
        <time>2018-01-19T10:36:52Z</time>
      </trkpt>
      <trkpt lat="47.85177" lon="-2.80425">
        <ele>-35.83</ele>
        <time>2018-01-19T10:37:08Z</time>
      </trkpt>
      <trkpt lat="47.85177" lon="-2.80428">
        <ele>-36.17</ele>
        <time>2018-01-19T10:37:16Z</time>
      </trkpt>
      <trkpt lat="47.85203" lon="-2.80432">
        <ele>-34.9</ele>
        <time>2018-01-19T10:37:28Z</time>
      </trkpt>
      <trkpt lat="47.85214" lon="-2.80442">
        <ele>-34.1</ele>
        <time>2018-01-19T10:37:32Z</time>
      </trkpt>
      <trkpt lat="47.85256" lon="-2.80452">
        <ele>-32.72</ele>
        <time>2018-01-19T10:37:40Z</time>
      </trkpt>
      <trkpt lat="47.85292" lon="-2.80459">
        <ele>-29.22</ele>
        <time>2018-01-19T10:37:47Z</time>
      </trkpt>
      <trkpt lat="47.85311" lon="-2.80463">
        <ele>-26.03</ele>
        <time>2018-01-19T10:37:51Z</time>
      </trkpt>
      <trkpt lat="47.85342" lon="-2.8048">
        <ele>-22.08</ele>
        <time>2018-01-19T10:37:57Z</time>
      </trkpt>
      <trkpt lat="47.85357" lon="-2.80491">
        <ele>-18.96</ele>
        <time>2018-01-19T10:38:02Z</time>
      </trkpt>
      <trkpt lat="47.8536" lon="-2.80492">
        <ele>-18.35</ele>
        <time>2018-01-19T10:38:03Z</time>
      </trkpt>
      <trkpt lat="47.8537" lon="-2.80487">
        <ele>-14.5</ele>
        <time>2018-01-19T10:38:11Z</time>
      </trkpt>
      <trkpt lat="47.85379" lon="-2.80478">
        <ele>-11.72</ele>
        <time>2018-01-19T10:38:25Z</time>
      </trkpt>
      <trkpt lat="47.85381" lon="-2.80476">
        <ele>-11.49</ele>
        <time>2018-01-19T10:38:27Z</time>
      </trkpt>
      <trkpt lat="47.85387" lon="-2.8047">
        <ele>-10.45</ele>
        <time>2018-01-19T10:38:31Z</time>
      </trkpt>
      <trkpt lat="47.85395" lon="-2.80437">
        <ele>-8.06</ele>
        <time>2018-01-19T10:38:43Z</time>
      </trkpt>
      <trkpt lat="47.85402" lon="-2.80398">
        <ele>-4.97</ele>
        <time>2018-01-19T10:38:59Z</time>
      </trkpt>
      <trkpt lat="47.85406" lon="-2.80357">
        <ele>-1.79</ele>
        <time>2018-01-19T10:39:15Z</time>
      </trkpt>
      <trkpt lat="47.85406" lon="-2.80313">
        <ele>1.22</ele>
        <time>2018-01-19T10:39:33Z</time>
      </trkpt>
      <trkpt lat="47.85381" lon="-2.8029">
        <ele>2.16</ele>
        <time>2018-01-19T10:39:51Z</time>
      </trkpt>
      <trkpt lat="47.85354" lon="-2.80264">
        <ele>0.44</ele>
        <time>2018-01-19T10:40:11Z</time>
      </trkpt>
      <trkpt lat="47.85331" lon="-2.80235">
        <ele>-1.47</ele>
        <time>2018-01-19T10:40:29Z</time>
      </trkpt>
      <trkpt lat="47.85305" lon="-2.80197">
        <ele>-4.24</ele>
        <time>2018-01-19T10:40:50Z</time>
      </trkpt>
      <trkpt lat="47.85289" lon="-2.80162">
        <ele>-5.95</ele>
        <time>2018-01-19T10:41:07Z</time>
      </trkpt>
      <trkpt lat="47.85279" lon="-2.80127">
        <ele>-7.4</ele>
        <time>2018-01-19T10:41:22Z</time>
      </trkpt>
      <trkpt lat="47.85271" lon="-2.80091">
        <ele>-8.5</ele>
        <time>2018-01-19T10:41:37Z</time>
      </trkpt>
      <trkpt lat="47.85263" lon="-2.80033">
        <ele>-9.72</ele>
        <time>2018-01-19T10:41:59Z</time>
      </trkpt>
      <trkpt lat="47.85263" lon="-2.79979">
        <ele>-10.3</ele>
        <time>2018-01-19T10:42:19Z</time>
      </trkpt>
      <trkpt lat="47.85268" lon="-2.79928">
        <ele>-9.76</ele>
        <time>2018-01-19T10:42:39Z</time>
      </trkpt>
      <trkpt lat="47.85272" lon="-2.79876">
        <ele>-8.45</ele>
        <time>2018-01-19T10:43:00Z</time>
      </trkpt>
      <trkpt lat="47.85278" lon="-2.79837">
        <ele>-7.67</ele>
        <time>2018-01-19T10:43:17Z</time>
      </trkpt>
      <trkpt lat="47.85281" lon="-2.79802">
        <ele>-7.01</ele>
        <time>2018-01-19T10:43:33Z</time>
      </trkpt>
      <trkpt lat="47.85282" lon="-2.79772">
        <ele>-6.16</ele>
        <time>2018-01-19T10:43:46Z</time>
      </trkpt>
      <trkpt lat="47.85281" lon="-2.7976">
        <ele>-5.9</ele>
        <time>2018-01-19T10:43:51Z</time>
      </trkpt>
      <trkpt lat="47.85281" lon="-2.79758">
        <ele>-5.86</ele>
        <time>2018-01-19T10:43:52Z</time>
      </trkpt>
      <trkpt lat="47.85281" lon="-2.79756">
        <ele>-5.82</ele>
        <time>2018-01-19T10:43:53Z</time>
      </trkpt>
      <trkpt lat="47.85279" lon="-2.79724">
        <ele>-4.88</ele>
        <time>2018-01-19T10:44:06Z</time>
      </trkpt>
      <trkpt lat="47.85277" lon="-2.79687">
        <ele>-3.72</ele>
        <time>2018-01-19T10:44:20Z</time>
      </trkpt>
      <trkpt lat="47.85275" lon="-2.79653">
        <ele>-2.97</ele>
        <time>2018-01-19T10:44:33Z</time>
      </trkpt>
      <trkpt lat="47.85273" lon="-2.79613">
        <ele>-2.96</ele>
        <time>2018-01-19T10:44:48Z</time>
      </trkpt>
      <trkpt lat="47.85271" lon="-2.79576">
        <ele>-3.72</ele>
        <time>2018-01-19T10:45:03Z</time>
      </trkpt>
      <trkpt lat="47.85264" lon="-2.7954">
        <ele>-4.8</ele>
        <time>2018-01-19T10:45:19Z</time>
      </trkpt>
      <trkpt lat="47.85264" lon="-2.79537">
        <ele>-4.84</ele>
        <time>2018-01-19T10:45:20Z</time>
      </trkpt>
      <trkpt lat="47.85263" lon="-2.79534">
        <ele>-4.87</ele>
        <time>2018-01-19T10:45:21Z</time>
      </trkpt>
      <trkpt lat="47.8526" lon="-2.79519">
        <ele>-5.02</ele>
        <time>2018-01-19T10:45:27Z</time>
      </trkpt>
      <trkpt lat="47.8526" lon="-2.79516">
        <ele>-5.06</ele>
        <time>2018-01-19T10:45:28Z</time>
      </trkpt>
      <trkpt lat="47.85261" lon="-2.79512">
        <ele>-5.08</ele>
        <time>2018-01-19T10:45:30Z</time>
      </trkpt>
      <trkpt lat="47.85263" lon="-2.79511">
        <ele>-5.06</ele>
        <time>2018-01-19T10:45:31Z</time>
      </trkpt>
      <trkpt lat="47.85264" lon="-2.79512">
        <ele>-5.04</ele>
        <time>2018-01-19T10:45:32Z</time>
      </trkpt>
      <trkpt lat="47.85284" lon="-2.79538">
        <ele>-3.33</ele>
        <time>2018-01-19T10:45:43Z</time>
      </trkpt>
      <trkpt lat="47.85299" lon="-2.79538">
        <ele>-0.27</ele>
        <time>2018-01-19T10:45:49Z</time>
      </trkpt>
      <trkpt lat="47.85307" lon="-2.79521">
        <ele>2.85</ele>
        <time>2018-01-19T10:45:54Z</time>
      </trkpt>
      <trkpt lat="47.85309" lon="-2.7949">
        <ele>5.95</ele>
        <time>2018-01-19T10:46:01Z</time>
      </trkpt>
      <trkpt lat="47.85312" lon="-2.79452">
        <ele>7.4</ele>
        <time>2018-01-19T10:46:08Z</time>
      </trkpt>
      <trkpt lat="47.85313" lon="-2.79435">
        <ele>7.71</ele>
        <time>2018-01-19T10:46:10Z</time>
      </trkpt>
      <trkpt lat="47.85317" lon="-2.79407">
        <ele>8.12</ele>
        <time>2018-01-19T10:46:13Z</time>
      </trkpt>
      <trkpt lat="47.85318" lon="-2.79398">
        <ele>8.31</ele>
        <time>2018-01-19T10:46:14Z</time>
      </trkpt>
      <trkpt lat="47.85319" lon="-2.79389">
        <ele>8.54</ele>
        <time>2018-01-19T10:46:15Z</time>
      </trkpt>
      <trkpt lat="47.8532" lon="-2.7938">
        <ele>8.84</ele>
        <time>2018-01-19T10:46:16Z</time>
      </trkpt>
      <trkpt lat="47.85321" lon="-2.79372">
        <ele>9.18</ele>
        <time>2018-01-19T10:46:17Z</time>
      </trkpt>
      <trkpt lat="47.85321" lon="-2.79363">
        <ele>9.52</ele>
        <time>2018-01-19T10:46:18Z</time>
      </trkpt>
      <trkpt lat="47.85322" lon="-2.79355">
        <ele>9.86</ele>
        <time>2018-01-19T10:46:19Z</time>
      </trkpt>
      <trkpt lat="47.85319" lon="-2.79267">
        <ele>12.66</ele>
        <time>2018-01-19T10:46:29Z</time>
      </trkpt>
      <trkpt lat="47.8532" lon="-2.79256">
        <ele>12.82</ele>
        <time>2018-01-19T10:46:30Z</time>
      </trkpt>
      <trkpt lat="47.85322" lon="-2.79245">
        <ele>13.12</ele>
        <time>2018-01-19T10:46:31Z</time>
      </trkpt>
      <trkpt lat="47.85324" lon="-2.79237">
        <ele>13.12</ele>
        <time>2018-01-19T10:46:32Z</time>
      </trkpt>
      <trkpt lat="47.85327" lon="-2.79227">
        <ele>13.37</ele>
        <time>2018-01-19T10:46:33Z</time>
      </trkpt>
      <trkpt lat="47.85331" lon="-2.79218">
        <ele>13.49</ele>
        <time>2018-01-19T10:46:34Z</time>
      </trkpt>
      <trkpt lat="47.85335" lon="-2.79209">
        <ele>13.66</ele>
        <time>2018-01-19T10:46:35Z</time>
      </trkpt>
      <trkpt lat="47.85356" lon="-2.79155">
        <ele>15.69</ele>
        <time>2018-01-19T10:46:41Z</time>
      </trkpt>
      <trkpt lat="47.85359" lon="-2.79146">
        <ele>16.03</ele>
        <time>2018-01-19T10:46:42Z</time>
      </trkpt>
      <trkpt lat="47.85368" lon="-2.79126">
        <ele>17.23</ele>
        <time>2018-01-19T10:46:45Z</time>
      </trkpt>
      <trkpt lat="47.85371" lon="-2.79122">
        <ele>17.62</ele>
        <time>2018-01-19T10:46:46Z</time>
      </trkpt>
      <trkpt lat="47.85374" lon="-2.79119">
        <ele>18.01</ele>
        <time>2018-01-19T10:46:47Z</time>
      </trkpt>
      <trkpt lat="47.85376" lon="-2.79117">
        <ele>18.42</ele>
        <time>2018-01-19T10:46:48Z</time>
      </trkpt>
      <trkpt lat="47.85378" lon="-2.79114">
        <ele>18.88</ele>
        <time>2018-01-19T10:46:49Z</time>
      </trkpt>
      <trkpt lat="47.8538" lon="-2.7911">
        <ele>19.36</ele>
        <time>2018-01-19T10:46:50Z</time>
      </trkpt>
      <trkpt lat="47.85387" lon="-2.79102">
        <ele>20.62</ele>
        <time>2018-01-19T10:46:53Z</time>
      </trkpt>
      <trkpt lat="47.8539" lon="-2.791">
        <ele>21.07</ele>
        <time>2018-01-19T10:46:54Z</time>
      </trkpt>
      <trkpt lat="47.85392" lon="-2.79098">
        <ele>21.54</ele>
        <time>2018-01-19T10:46:55Z</time>
      </trkpt>
      <trkpt lat="47.85395" lon="-2.79096">
        <ele>22.01</ele>
        <time>2018-01-19T10:46:56Z</time>
      </trkpt>
      <trkpt lat="47.85398" lon="-2.79094">
        <ele>22.9</ele>
        <time>2018-01-19T10:46:57Z</time>
      </trkpt>
      <trkpt lat="47.854" lon="-2.79092">
        <ele>23.34</ele>
        <time>2018-01-19T10:46:58Z</time>
      </trkpt>
      <trkpt lat="47.85401" lon="-2.79091">
        <ele>23.75</ele>
        <time>2018-01-19T10:46:59Z</time>
      </trkpt>
      <trkpt lat="47.85406" lon="-2.79088">
        <ele>24.91</ele>
        <time>2018-01-19T10:47:02Z</time>
      </trkpt>
      <trkpt lat="47.85429" lon="-2.79074">
        <ele>27.94</ele>
        <time>2018-01-19T10:47:17Z</time>
      </trkpt>
      <trkpt lat="47.85432" lon="-2.7907">
        <ele>28.12</ele>
        <time>2018-01-19T10:47:20Z</time>
      </trkpt>
      <trkpt lat="47.85438" lon="-2.79062">
        <ele>27.89</ele>
        <time>2018-01-19T10:47:26Z</time>
      </trkpt>
      <trkpt lat="47.85451" lon="-2.79055">
        <ele>27.07</ele>
        <time>2018-01-19T10:47:41Z</time>
      </trkpt>
      <trkpt lat="47.85453" lon="-2.79058">
        <ele>26.38</ele>
        <time>2018-01-19T10:48:03Z</time>
      </trkpt>
      <trkpt lat="47.85451" lon="-2.7906">
        <ele>26.1</ele>
        <time>2018-01-19T10:48:25Z</time>
      </trkpt>
      <trkpt lat="47.85451" lon="-2.79057">
        <ele>25.26</ele>
        <time>2018-01-19T10:48:54Z</time>
      </trkpt>
      <trkpt lat="47.85454" lon="-2.79055">
        <ele>26.37</ele>
        <time>2018-01-19T10:49:16Z</time>
      </trkpt>
      <trkpt lat="47.85458" lon="-2.79047">
        <ele>26.77</ele>
        <time>2018-01-19T10:49:39Z</time>
      </trkpt>
      <trkpt lat="47.85459" lon="-2.79046">
        <ele>26.83</ele>
        <time>2018-01-19T10:49:40Z</time>
      </trkpt>
      <trkpt lat="47.8546" lon="-2.79043">
        <ele>26.88</ele>
        <time>2018-01-19T10:49:41Z</time>
      </trkpt>
      <trkpt lat="47.85461" lon="-2.7904">
        <ele>26.91</ele>
        <time>2018-01-19T10:49:42Z</time>
      </trkpt>
      <trkpt lat="47.85461" lon="-2.79037">
        <ele>27.03</ele>
        <time>2018-01-19T10:49:43Z</time>
      </trkpt>
      <trkpt lat="47.8546" lon="-2.79035">
        <ele>27.03</ele>
        <time>2018-01-19T10:49:44Z</time>
      </trkpt>
      <trkpt lat="47.85459" lon="-2.79034">
        <ele>27.1</ele>
        <time>2018-01-19T10:49:45Z</time>
      </trkpt>
      <trkpt lat="47.85457" lon="-2.79033">
        <ele>27.16</ele>
        <time>2018-01-19T10:49:46Z</time>
      </trkpt>
      <trkpt lat="47.85456" lon="-2.79032">
        <ele>27.22</ele>
        <time>2018-01-19T10:49:47Z</time>
      </trkpt>
      <trkpt lat="47.85455" lon="-2.79031">
        <ele>27.29</ele>
        <time>2018-01-19T10:49:48Z</time>
      </trkpt>
      <trkpt lat="47.85453" lon="-2.7903">
        <ele>27.34</ele>
        <time>2018-01-19T10:49:49Z</time>
      </trkpt>
      <trkpt lat="47.85452" lon="-2.79029">
        <ele>27.38</ele>
        <time>2018-01-19T10:49:50Z</time>
      </trkpt>
      <trkpt lat="47.85434" lon="-2.79016">
        <ele>26.04</ele>
        <time>2018-01-19T10:50:03Z</time>
      </trkpt>
      <trkpt lat="47.85431" lon="-2.79016">
        <ele>25.73</ele>
        <time>2018-01-19T10:50:05Z</time>
      </trkpt>
      <trkpt lat="47.85429" lon="-2.79015">
        <ele>25.55</ele>
        <time>2018-01-19T10:50:06Z</time>
      </trkpt>
      <trkpt lat="47.85416" lon="-2.79012">
        <ele>22.59</ele>
        <time>2018-01-19T10:50:17Z</time>
      </trkpt>
      <trkpt lat="47.85413" lon="-2.79013">
        <ele>21.92</ele>
        <time>2018-01-19T10:50:20Z</time>
      </trkpt>
      <trkpt lat="47.85409" lon="-2.79014">
        <ele>20.86</ele>
        <time>2018-01-19T10:50:23Z</time>
      </trkpt>
      <trkpt lat="47.85407" lon="-2.79013">
        <ele>20.36</ele>
        <time>2018-01-19T10:50:25Z</time>
      </trkpt>
      <trkpt lat="47.85396" lon="-2.79007">
        <ele>18.53</ele>
        <time>2018-01-19T10:50:34Z</time>
      </trkpt>
      <trkpt lat="47.85392" lon="-2.79003">
        <ele>17.81</ele>
        <time>2018-01-19T10:50:37Z</time>
      </trkpt>
      <trkpt lat="47.8539" lon="-2.79001">
        <ele>17.59</ele>
        <time>2018-01-19T10:50:38Z</time>
      </trkpt>
      <trkpt lat="47.85389" lon="-2.78999">
        <ele>17.38</ele>
        <time>2018-01-19T10:50:39Z</time>
      </trkpt>
      <trkpt lat="47.85378" lon="-2.78989">
        <ele>14.98</ele>
        <time>2018-01-19T10:50:48Z</time>
      </trkpt>
      <trkpt lat="47.85376" lon="-2.78988">
        <ele>14.69</ele>
        <time>2018-01-19T10:50:49Z</time>
      </trkpt>
      <trkpt lat="47.85371" lon="-2.78975">
        <ele>13.06</ele>
        <time>2018-01-19T10:50:56Z</time>
      </trkpt>
      <trkpt lat="47.8537" lon="-2.78972">
        <ele>12.86</ele>
        <time>2018-01-19T10:50:57Z</time>
      </trkpt>
      <trkpt lat="47.8537" lon="-2.78971">
        <ele>12.68</ele>
        <time>2018-01-19T10:50:58Z</time>
      </trkpt>
      <trkpt lat="47.8536" lon="-2.78944">
        <ele>9.34</ele>
        <time>2018-01-19T10:51:12Z</time>
      </trkpt>
      <trkpt lat="47.85358" lon="-2.7894">
        <ele>8.91</ele>
        <time>2018-01-19T10:51:14Z</time>
      </trkpt>
      <trkpt lat="47.85352" lon="-2.78911">
        <ele>5.84</ele>
        <time>2018-01-19T10:51:30Z</time>
      </trkpt>
      <trkpt lat="47.85344" lon="-2.78875">
        <ele>2.73</ele>
        <time>2018-01-19T10:51:44Z</time>
      </trkpt>
      <trkpt lat="47.85343" lon="-2.78872">
        <ele>2.52</ele>
        <time>2018-01-19T10:51:45Z</time>
      </trkpt>
      <trkpt lat="47.85342" lon="-2.78869">
        <ele>2.31</ele>
        <time>2018-01-19T10:51:46Z</time>
      </trkpt>
      <trkpt lat="47.85335" lon="-2.78846">
        <ele>0.1</ele>
        <time>2018-01-19T10:51:55Z</time>
      </trkpt>
      <trkpt lat="47.85336" lon="-2.78844">
        <ele>-0.13</ele>
        <time>2018-01-19T10:51:56Z</time>
      </trkpt>
      <trkpt lat="47.85352" lon="-2.78826">
        <ele>-0.41</ele>
        <time>2018-01-19T10:52:05Z</time>
      </trkpt>
      <trkpt lat="47.85382" lon="-2.78798">
        <ele>2.84</ele>
        <time>2018-01-19T10:52:14Z</time>
      </trkpt>
      <trkpt lat="47.85398" lon="-2.78768">
        <ele>6.16</ele>
        <time>2018-01-19T10:52:21Z</time>
      </trkpt>
      <trkpt lat="47.854" lon="-2.78767">
        <ele>6.63</ele>
        <time>2018-01-19T10:52:22Z</time>
      </trkpt>
      <trkpt lat="47.85401" lon="-2.78764">
        <ele>7.08</ele>
        <time>2018-01-19T10:52:23Z</time>
      </trkpt>
      <trkpt lat="47.85415" lon="-2.7874">
        <ele>8.58</ele>
        <time>2018-01-19T10:52:38Z</time>
      </trkpt>
      <trkpt lat="47.85425" lon="-2.78708">
        <ele>5.43</ele>
        <time>2018-01-19T10:52:53Z</time>
      </trkpt>
      <trkpt lat="47.85427" lon="-2.78665">
        <ele>5.09</ele>
        <time>2018-01-19T10:53:11Z</time>
      </trkpt>
      <trkpt lat="47.85426" lon="-2.78647">
        <ele>5.35</ele>
        <time>2018-01-19T10:53:17Z</time>
      </trkpt>
      <trkpt lat="47.85425" lon="-2.7864">
        <ele>5.38</ele>
        <time>2018-01-19T10:53:18Z</time>
      </trkpt>
      <trkpt lat="47.85427" lon="-2.78617">
        <ele>5.88</ele>
        <time>2018-01-19T10:53:26Z</time>
      </trkpt>
      <trkpt lat="47.85429" lon="-2.78603">
        <ele>6.13</ele>
        <time>2018-01-19T10:53:30Z</time>
      </trkpt>
      <trkpt lat="47.85432" lon="-2.78583">
        <ele>6.62</ele>
        <time>2018-01-19T10:53:39Z</time>
      </trkpt>
      <trkpt lat="47.85431" lon="-2.78557">
        <ele>6.05</ele>
        <time>2018-01-19T10:53:48Z</time>
      </trkpt>
      <trkpt lat="47.85435" lon="-2.78544">
        <ele>6.07</ele>
        <time>2018-01-19T10:53:55Z</time>
      </trkpt>
      <trkpt lat="47.85433" lon="-2.78515">
        <ele>6.4</ele>
        <time>2018-01-19T10:54:09Z</time>
      </trkpt>
      <trkpt lat="47.85429" lon="-2.785">
        <ele>4.99</ele>
        <time>2018-01-19T10:54:14Z</time>
      </trkpt>
      <trkpt lat="47.85432" lon="-2.78475">
        <ele>3.66</ele>
        <time>2018-01-19T10:54:24Z</time>
      </trkpt>
      <trkpt lat="47.8544" lon="-2.78447">
        <ele>4.46</ele>
        <time>2018-01-19T10:54:38Z</time>
      </trkpt>
      <trkpt lat="47.85444" lon="-2.78435">
        <ele>5.14</ele>
        <time>2018-01-19T10:54:45Z</time>
      </trkpt>
      <trkpt lat="47.85448" lon="-2.78415">
        <ele>5.43</ele>
        <time>2018-01-19T10:54:53Z</time>
      </trkpt>
      <trkpt lat="47.85451" lon="-2.78409">
        <ele>5.64</ele>
        <time>2018-01-19T10:54:56Z</time>
      </trkpt>
      <trkpt lat="47.85463" lon="-2.78388">
        <ele>7.1</ele>
        <time>2018-01-19T10:55:07Z</time>
      </trkpt>
      <trkpt lat="47.85468" lon="-2.78355">
        <ele>3.9</ele>
        <time>2018-01-19T10:55:27Z</time>
      </trkpt>
      <trkpt lat="47.85471" lon="-2.78325">
        <ele>0.86</ele>
        <time>2018-01-19T10:55:42Z</time>
      </trkpt>
      <trkpt lat="47.85471" lon="-2.78293">
        <ele>-1.5</ele>
        <time>2018-01-19T10:55:54Z</time>
      </trkpt>
      <trkpt lat="47.85481" lon="-2.78272">
        <ele>-0.21</ele>
        <time>2018-01-19T10:56:06Z</time>
      </trkpt>
      <trkpt lat="47.85484" lon="-2.78262">
        <ele>0.38</ele>
        <time>2018-01-19T10:56:13Z</time>
      </trkpt>
      <trkpt lat="47.85484" lon="-2.78253">
        <ele>0.41</ele>
        <time>2018-01-19T10:56:17Z</time>
      </trkpt>
      <trkpt lat="47.8549" lon="-2.78222">
        <ele>1.34</ele>
        <time>2018-01-19T10:56:32Z</time>
      </trkpt>
      <trkpt lat="47.85497" lon="-2.78212">
        <ele>2.01</ele>
        <time>2018-01-19T10:56:39Z</time>
      </trkpt>
      <trkpt lat="47.855" lon="-2.782">
        <ele>2.59</ele>
        <time>2018-01-19T10:56:43Z</time>
      </trkpt>
      <trkpt lat="47.85507" lon="-2.78167">
        <ele>3.89</ele>
        <time>2018-01-19T10:56:57Z</time>
      </trkpt>
      <trkpt lat="47.8552" lon="-2.78146">
        <ele>6.14</ele>
        <time>2018-01-19T10:57:10Z</time>
      </trkpt>
      <trkpt lat="47.85526" lon="-2.78119">
        <ele>7.71</ele>
        <time>2018-01-19T10:57:22Z</time>
      </trkpt>
      <trkpt lat="47.85533" lon="-2.78093">
        <ele>9.06</ele>
        <time>2018-01-19T10:57:35Z</time>
      </trkpt>
      <trkpt lat="47.85536" lon="-2.78083">
        <ele>9.55</ele>
        <time>2018-01-19T10:57:40Z</time>
      </trkpt>
      <trkpt lat="47.85542" lon="-2.7806">
        <ele>10.09</ele>
        <time>2018-01-19T10:57:50Z</time>
      </trkpt>
      <trkpt lat="47.85548" lon="-2.7805">
        <ele>10.66</ele>
        <time>2018-01-19T10:57:56Z</time>
      </trkpt>
      <trkpt lat="47.85552" lon="-2.78033">
        <ele>11.14</ele>
        <time>2018-01-19T10:58:03Z</time>
      </trkpt>
      <trkpt lat="47.85558" lon="-2.78008">
        <ele>11.2</ele>
        <time>2018-01-19T10:58:14Z</time>
      </trkpt>
      <trkpt lat="47.85578" lon="-2.77975">
        <ele>10.62</ele>
        <time>2018-01-19T10:58:31Z</time>
      </trkpt>
      <trkpt lat="47.85596" lon="-2.77951">
        <ele>8.84</ele>
        <time>2018-01-19T10:58:46Z</time>
      </trkpt>
      <trkpt lat="47.85606" lon="-2.77939">
        <ele>7.95</ele>
        <time>2018-01-19T10:58:56Z</time>
      </trkpt>
      <trkpt lat="47.85612" lon="-2.77935">
        <ele>7.54</ele>
        <time>2018-01-19T10:59:00Z</time>
      </trkpt>
      <trkpt lat="47.85635" lon="-2.77914">
        <ele>5.9</ele>
        <time>2018-01-19T10:59:15Z</time>
      </trkpt>
      <trkpt lat="47.85651" lon="-2.77901">
        <ele>4.25</ele>
        <time>2018-01-19T10:59:28Z</time>
      </trkpt>
      <trkpt lat="47.85654" lon="-2.779">
        <ele>3.79</ele>
        <time>2018-01-19T10:59:30Z</time>
      </trkpt>
      <trkpt lat="47.8566" lon="-2.77895">
        <ele>2.91</ele>
        <time>2018-01-19T10:59:35Z</time>
      </trkpt>
      <trkpt lat="47.85679" lon="-2.77879">
        <ele>-0.59</ele>
        <time>2018-01-19T10:59:49Z</time>
      </trkpt>
      <trkpt lat="47.8568" lon="-2.77876">
        <ele>-0.83</ele>
        <time>2018-01-19T10:59:50Z</time>
      </trkpt>
      <trkpt lat="47.85693" lon="-2.77868">
        <ele>-2.48</ele>
        <time>2018-01-19T10:59:59Z</time>
      </trkpt>
      <trkpt lat="47.8572" lon="-2.77858">
        <ele>-3.35</ele>
        <time>2018-01-19T11:00:17Z</time>
      </trkpt>
      <trkpt lat="47.85743" lon="-2.77852">
        <ele>-5.84</ele>
        <time>2018-01-19T11:00:32Z</time>
      </trkpt>
      <trkpt lat="47.8576" lon="-2.77831">
        <ele>-8.14</ele>
        <time>2018-01-19T11:00:47Z</time>
      </trkpt>
      <trkpt lat="47.85772" lon="-2.77812">
        <ele>-11.15</ele>
        <time>2018-01-19T11:00:59Z</time>
      </trkpt>
      <trkpt lat="47.85775" lon="-2.77797">
        <ele>-12.57</ele>
        <time>2018-01-19T11:01:07Z</time>
      </trkpt>
      <trkpt lat="47.85772" lon="-2.77788">
        <ele>-13.77</ele>
        <time>2018-01-19T11:01:12Z</time>
      </trkpt>
      <trkpt lat="47.85751" lon="-2.77777">
        <ele>-17.07</ele>
        <time>2018-01-19T11:01:25Z</time>
      </trkpt>
      <trkpt lat="47.85726" lon="-2.77774">
        <ele>-18.94</ele>
        <time>2018-01-19T11:01:41Z</time>
      </trkpt>
      <trkpt lat="47.85697" lon="-2.77761">
        <ele>-21.04</ele>
        <time>2018-01-19T11:01:58Z</time>
      </trkpt>
      <trkpt lat="47.85665" lon="-2.77751">
        <ele>-22.42</ele>
        <time>2018-01-19T11:02:16Z</time>
      </trkpt>
      <trkpt lat="47.85637" lon="-2.77743">
        <ele>-22.42</ele>
        <time>2018-01-19T11:02:32Z</time>
      </trkpt>
      <trkpt lat="47.85601" lon="-2.7774">
        <ele>-21.46</ele>
        <time>2018-01-19T11:02:47Z</time>
      </trkpt>
      <trkpt lat="47.85557" lon="-2.7773">
        <ele>-19.03</ele>
        <time>2018-01-19T11:03:03Z</time>
      </trkpt>
      <trkpt lat="47.85556" lon="-2.77728">
        <ele>-18.84</ele>
        <time>2018-01-19T11:03:04Z</time>
      </trkpt>
      <trkpt lat="47.85555" lon="-2.77725">
        <ele>-18.65</ele>
        <time>2018-01-19T11:03:05Z</time>
      </trkpt>
      <trkpt lat="47.85555" lon="-2.77721">
        <ele>-18.48</ele>
        <time>2018-01-19T11:03:06Z</time>
      </trkpt>
      <trkpt lat="47.85555" lon="-2.77718">
        <ele>-18.31</ele>
        <time>2018-01-19T11:03:07Z</time>
      </trkpt>
      <trkpt lat="47.85556" lon="-2.77714">
        <ele>-18.15</ele>
        <time>2018-01-19T11:03:08Z</time>
      </trkpt>
      <trkpt lat="47.85556" lon="-2.77711">
        <ele>-18.03</ele>
        <time>2018-01-19T11:03:09Z</time>
      </trkpt>
      <trkpt lat="47.85556" lon="-2.77708">
        <ele>-17.93</ele>
        <time>2018-01-19T11:03:10Z</time>
      </trkpt>
      <trkpt lat="47.85557" lon="-2.77705">
        <ele>-17.84</ele>
        <time>2018-01-19T11:03:11Z</time>
      </trkpt>
      <trkpt lat="47.85557" lon="-2.77702">
        <ele>-17.8</ele>
        <time>2018-01-19T11:03:12Z</time>
      </trkpt>
      <trkpt lat="47.85561" lon="-2.77651">
        <ele>-18.29</ele>
        <time>2018-01-19T11:03:29Z</time>
      </trkpt>
      <trkpt lat="47.85566" lon="-2.77611">
        <ele>-19.35</ele>
        <time>2018-01-19T11:03:46Z</time>
      </trkpt>
      <trkpt lat="47.85566" lon="-2.77609">
        <ele>-19.4</ele>
        <time>2018-01-19T11:03:47Z</time>
      </trkpt>
      <trkpt lat="47.85573" lon="-2.77576">
        <ele>-20.31</ele>
        <time>2018-01-19T11:04:02Z</time>
      </trkpt>
      <trkpt lat="47.85585" lon="-2.77538">
        <ele>-21.89</ele>
        <time>2018-01-19T11:04:20Z</time>
      </trkpt>
      <trkpt lat="47.85599" lon="-2.77505">
        <ele>-24.36</ele>
        <time>2018-01-19T11:04:36Z</time>
      </trkpt>
      <trkpt lat="47.85617" lon="-2.7747">
        <ele>-27.25</ele>
        <time>2018-01-19T11:04:53Z</time>
      </trkpt>
      <trkpt lat="47.85635" lon="-2.77424">
        <ele>-30.25</ele>
        <time>2018-01-19T11:05:15Z</time>
      </trkpt>
      <trkpt lat="47.85654" lon="-2.77386">
        <ele>-32.27</ele>
        <time>2018-01-19T11:05:34Z</time>
      </trkpt>
      <trkpt lat="47.85677" lon="-2.77364">
        <ele>-34.07</ele>
        <time>2018-01-19T11:05:51Z</time>
      </trkpt>
      <trkpt lat="47.85702" lon="-2.77369">
        <ele>-36.72</ele>
        <time>2018-01-19T11:06:06Z</time>
      </trkpt>
      <trkpt lat="47.85727" lon="-2.77376">
        <ele>-38.31</ele>
        <time>2018-01-19T11:06:22Z</time>
      </trkpt>
      <trkpt lat="47.85743" lon="-2.77364">
        <ele>-39.25</ele>
        <time>2018-01-19T11:06:36Z</time>
      </trkpt>
      <trkpt lat="47.85744" lon="-2.77362">
        <ele>-39.23</ele>
        <time>2018-01-19T11:06:38Z</time>
      </trkpt>
      <trkpt lat="47.85745" lon="-2.7736">
        <ele>-39.23</ele>
        <time>2018-01-19T11:06:39Z</time>
      </trkpt>
      <trkpt lat="47.85745" lon="-2.77358">
        <ele>-39.21</ele>
        <time>2018-01-19T11:06:40Z</time>
      </trkpt>
      <trkpt lat="47.85759" lon="-2.77337">
        <ele>-38.86</ele>
        <time>2018-01-19T11:06:52Z</time>
      </trkpt>
      <trkpt lat="47.8577" lon="-2.77301">
        <ele>-37.4</ele>
        <time>2018-01-19T11:07:05Z</time>
      </trkpt>
      <trkpt lat="47.8577" lon="-2.77299">
        <ele>-37.23</ele>
        <time>2018-01-19T11:07:06Z</time>
      </trkpt>
      <trkpt lat="47.85772" lon="-2.77278">
        <ele>-35.71</ele>
        <time>2018-01-19T11:07:15Z</time>
      </trkpt>
      <trkpt lat="47.85772" lon="-2.77277">
        <ele>-35.51</ele>
        <time>2018-01-19T11:07:16Z</time>
      </trkpt>
      <trkpt lat="47.85773" lon="-2.77274">
        <ele>-34.86</ele>
        <time>2018-01-19T11:07:19Z</time>
      </trkpt>
      <trkpt lat="47.85774" lon="-2.77273">
        <ele>-34.74</ele>
        <time>2018-01-19T11:07:20Z</time>
      </trkpt>
      <trkpt lat="47.85776" lon="-2.77273">
        <ele>-34.62</ele>
        <time>2018-01-19T11:07:21Z</time>
      </trkpt>
      <trkpt lat="47.85777" lon="-2.77272">
        <ele>-34.51</ele>
        <time>2018-01-19T11:07:22Z</time>
      </trkpt>
      <trkpt lat="47.85778" lon="-2.77271">
        <ele>-34.4</ele>
        <time>2018-01-19T11:07:23Z</time>
      </trkpt>
      <trkpt lat="47.85782" lon="-2.77262">
        <ele>-32.75</ele>
        <time>2018-01-19T11:07:29Z</time>
      </trkpt>
      <trkpt lat="47.85783" lon="-2.77261">
        <ele>-32.46</ele>
        <time>2018-01-19T11:07:30Z</time>
      </trkpt>
      <trkpt lat="47.85797" lon="-2.77257">
        <ele>-28.96</ele>
        <time>2018-01-19T11:07:43Z</time>
      </trkpt>
      <trkpt lat="47.85804" lon="-2.77245">
        <ele>-25.87</ele>
        <time>2018-01-19T11:07:53Z</time>
      </trkpt>
      <trkpt lat="47.85813" lon="-2.7723">
        <ele>-22.81</ele>
        <time>2018-01-19T11:08:06Z</time>
      </trkpt>
      <trkpt lat="47.85822" lon="-2.77219">
        <ele>-19.66</ele>
        <time>2018-01-19T11:08:18Z</time>
      </trkpt>
      <trkpt lat="47.85823" lon="-2.77208">
        <ele>-17.91</ele>
        <time>2018-01-19T11:08:30Z</time>
      </trkpt>
      <trkpt lat="47.85819" lon="-2.77189">
        <ele>-16.72</ele>
        <time>2018-01-19T11:08:47Z</time>
      </trkpt>
      <trkpt lat="47.8582" lon="-2.77183">
        <ele>-15.8</ele>
        <time>2018-01-19T11:08:51Z</time>
      </trkpt>
      <trkpt lat="47.85822" lon="-2.77168">
        <ele>-12.47</ele>
        <time>2018-01-19T11:09:02Z</time>
      </trkpt>
      <trkpt lat="47.85824" lon="-2.77154">
        <ele>-9.35</ele>
        <time>2018-01-19T11:09:13Z</time>
      </trkpt>
      <trkpt lat="47.85825" lon="-2.77122">
        <ele>-6.29</ele>
        <time>2018-01-19T11:09:27Z</time>
      </trkpt>
      <trkpt lat="47.85835" lon="-2.77093">
        <ele>-3.47</ele>
        <time>2018-01-19T11:09:45Z</time>
      </trkpt>
      <trkpt lat="47.85836" lon="-2.77091">
        <ele>-3.18</ele>
        <time>2018-01-19T11:09:46Z</time>
      </trkpt>
      <trkpt lat="47.85843" lon="-2.77049">
        <ele>-2.24</ele>
        <time>2018-01-19T11:10:04Z</time>
      </trkpt>
      <trkpt lat="47.85847" lon="-2.7702">
        <ele>-2.5</ele>
        <time>2018-01-19T11:10:16Z</time>
      </trkpt>
      <trkpt lat="47.85857" lon="-2.76983">
        <ele>-2.75</ele>
        <time>2018-01-19T11:10:33Z</time>
      </trkpt>
      <trkpt lat="47.85875" lon="-2.76963">
        <ele>-2.78</ele>
        <time>2018-01-19T11:10:50Z</time>
      </trkpt>
      <trkpt lat="47.85887" lon="-2.76958">
        <ele>-2.02</ele>
        <time>2018-01-19T11:11:03Z</time>
      </trkpt>
      <trkpt lat="47.85891" lon="-2.7695">
        <ele>-1.42</ele>
        <time>2018-01-19T11:11:08Z</time>
      </trkpt>
      <trkpt lat="47.85893" lon="-2.76902">
        <ele>-2.6</ele>
        <time>2018-01-19T11:11:27Z</time>
      </trkpt>
      <trkpt lat="47.8589" lon="-2.76868">
        <ele>-5.24</ele>
        <time>2018-01-19T11:11:41Z</time>
      </trkpt>
      <trkpt lat="47.85893" lon="-2.7686">
        <ele>-5.99</ele>
        <time>2018-01-19T11:11:45Z</time>
      </trkpt>
      <trkpt lat="47.85896" lon="-2.76858">
        <ele>-6.13</ele>
        <time>2018-01-19T11:11:46Z</time>
      </trkpt>
      <trkpt lat="47.85898" lon="-2.76858">
        <ele>-6.24</ele>
        <time>2018-01-19T11:11:47Z</time>
      </trkpt>
      <trkpt lat="47.85901" lon="-2.76858">
        <ele>-6.33</ele>
        <time>2018-01-19T11:11:48Z</time>
      </trkpt>
      <trkpt lat="47.85903" lon="-2.76858">
        <ele>-6.4</ele>
        <time>2018-01-19T11:11:49Z</time>
      </trkpt>
      <trkpt lat="47.85905" lon="-2.76859">
        <ele>-6.43</ele>
        <time>2018-01-19T11:11:50Z</time>
      </trkpt>
      <trkpt lat="47.85933" lon="-2.76885">
        <ele>-3.02</ele>
        <time>2018-01-19T11:12:02Z</time>
      </trkpt>
      <trkpt lat="47.85955" lon="-2.76901">
        <ele>123.3</ele>
        <time>2018-01-19T11:12:08Z</time>
      </trkpt>
      <trkpt lat="47.85964" lon="-2.76905">
        <ele>1.29</ele>
        <time>2018-01-19T11:12:10Z</time>
      </trkpt>
      <trkpt lat="47.85969" lon="-2.76907">
        <ele>2.02</ele>
        <time>2018-01-19T11:12:11Z</time>
      </trkpt>
      <trkpt lat="47.85975" lon="-2.76908">
        <ele>2.78</ele>
        <time>2018-01-19T11:12:12Z</time>
      </trkpt>
      <trkpt lat="47.8598" lon="-2.76909">
        <ele>3.57</ele>
        <time>2018-01-19T11:12:13Z</time>
      </trkpt>
      <trkpt lat="47.85985" lon="-2.7691">
        <ele>4.41</ele>
        <time>2018-01-19T11:12:14Z</time>
      </trkpt>
      <trkpt lat="47.8599" lon="-2.76911">
        <ele>5.26</ele>
        <time>2018-01-19T11:12:15Z</time>
      </trkpt>
      <trkpt lat="47.86002" lon="-2.76911">
        <ele>8.95</ele>
        <time>2018-01-19T11:12:19Z</time>
      </trkpt>
      <trkpt lat="47.86009" lon="-2.76911">
        <ele>12.18</ele>
        <time>2018-01-19T11:12:22Z</time>
      </trkpt>
      <trkpt lat="47.86025" lon="-2.76907">
        <ele>15.19</ele>
        <time>2018-01-19T11:12:28Z</time>
      </trkpt>
      <trkpt lat="47.86055" lon="-2.76883">
        <ele>17.98</ele>
        <time>2018-01-19T11:12:41Z</time>
      </trkpt>
      <trkpt lat="47.86078" lon="-2.76867">
        <ele>19.2</ele>
        <time>2018-01-19T11:12:53Z</time>
      </trkpt>
      <trkpt lat="47.86098" lon="-2.76856">
        <ele>19.42</ele>
        <time>2018-01-19T11:13:04Z</time>
      </trkpt>
      <trkpt lat="47.86114" lon="-2.76847">
        <ele>19.98</ele>
        <time>2018-01-19T11:13:13Z</time>
      </trkpt>
      <trkpt lat="47.86115" lon="-2.76845">
        <ele>20.02</ele>
        <time>2018-01-19T11:13:14Z</time>
      </trkpt>
      <trkpt lat="47.86117" lon="-2.76844">
        <ele>20.04</ele>
        <time>2018-01-19T11:13:15Z</time>
      </trkpt>
      <trkpt lat="47.86137" lon="-2.76826">
        <ele>19.94</ele>
        <time>2018-01-19T11:13:26Z</time>
      </trkpt>
      <trkpt lat="47.86153" lon="-2.76814">
        <ele>19.62</ele>
        <time>2018-01-19T11:13:37Z</time>
      </trkpt>
      <trkpt lat="47.86169" lon="-2.76816">
        <ele>20.13</ele>
        <time>2018-01-19T11:13:48Z</time>
      </trkpt>
      <trkpt lat="47.86175" lon="-2.76817">
        <ele>20.3</ele>
        <time>2018-01-19T11:13:51Z</time>
      </trkpt>
      <trkpt lat="47.86192" lon="-2.76814">
        <ele>20.35</ele>
        <time>2018-01-19T11:14:04Z</time>
      </trkpt>
      <trkpt lat="47.86215" lon="-2.76817">
        <ele>19.88</ele>
        <time>2018-01-19T11:14:22Z</time>
      </trkpt>
      <trkpt lat="47.8624" lon="-2.76821">
        <ele>19.8</ele>
        <time>2018-01-19T11:14:39Z</time>
      </trkpt>
      <trkpt lat="47.86258" lon="-2.76803">
        <ele>19.09</ele>
        <time>2018-01-19T11:14:55Z</time>
      </trkpt>
      <trkpt lat="47.8626" lon="-2.76791">
        <ele>17.93</ele>
        <time>2018-01-19T11:15:06Z</time>
      </trkpt>
      <trkpt lat="47.86253" lon="-2.76768">
        <ele>16.64</ele>
        <time>2018-01-19T11:15:21Z</time>
      </trkpt>
      <trkpt lat="47.86252" lon="-2.76747">
        <ele>14.77</ele>
        <time>2018-01-19T11:15:37Z</time>
      </trkpt>
      <trkpt lat="47.86259" lon="-2.76722">
        <ele>12.84</ele>
        <time>2018-01-19T11:15:54Z</time>
      </trkpt>
      <trkpt lat="47.86257" lon="-2.76695">
        <ele>9.75</ele>
        <time>2018-01-19T11:16:07Z</time>
      </trkpt>
      <trkpt lat="47.86258" lon="-2.76693">
        <ele>9.52</ele>
        <time>2018-01-19T11:16:08Z</time>
      </trkpt>
      <trkpt lat="47.86259" lon="-2.76691">
        <ele>9.29</ele>
        <time>2018-01-19T11:16:09Z</time>
      </trkpt>
      <trkpt lat="47.8627" lon="-2.76663">
        <ele>6.61</ele>
        <time>2018-01-19T11:16:24Z</time>
      </trkpt>
      <trkpt lat="47.86294" lon="-2.76642">
        <ele>6.96</ele>
        <time>2018-01-19T11:16:45Z</time>
      </trkpt>
      <trkpt lat="47.86312" lon="-2.76636">
        <ele>7.26</ele>
        <time>2018-01-19T11:17:00Z</time>
      </trkpt>
      <trkpt lat="47.86332" lon="-2.76634">
        <ele>8.04</ele>
        <time>2018-01-19T11:17:15Z</time>
      </trkpt>
      <trkpt lat="47.86355" lon="-2.76635">
        <ele>8.65</ele>
        <time>2018-01-19T11:17:32Z</time>
      </trkpt>
      <trkpt lat="47.86384" lon="-2.76641">
        <ele>11.4</ele>
        <time>2018-01-19T11:17:49Z</time>
      </trkpt>
      <trkpt lat="47.86405" lon="-2.7664">
        <ele>13.52</ele>
        <time>2018-01-19T11:18:03Z</time>
      </trkpt>
      <trkpt lat="47.86431" lon="-2.76647">
        <ele>15.19</ele>
        <time>2018-01-19T11:18:19Z</time>
      </trkpt>
      <trkpt lat="47.86453" lon="-2.76653">
        <ele>16.27</ele>
        <time>2018-01-19T11:18:32Z</time>
      </trkpt>
      <trkpt lat="47.86465" lon="-2.76658">
        <ele>16.86</ele>
        <time>2018-01-19T11:18:40Z</time>
      </trkpt>
      <trkpt lat="47.86492" lon="-2.76668">
        <ele>16.83</ele>
        <time>2018-01-19T11:18:56Z</time>
      </trkpt>
      <trkpt lat="47.86505" lon="-2.76674">
        <ele>16.58</ele>
        <time>2018-01-19T11:19:03Z</time>
      </trkpt>
      <trkpt lat="47.86509" lon="-2.76671">
        <ele>16.48</ele>
        <time>2018-01-19T11:19:05Z</time>
      </trkpt>
      <trkpt lat="47.86512" lon="-2.76667">
        <ele>16.18</ele>
        <time>2018-01-19T11:19:08Z</time>
      </trkpt>
      <trkpt lat="47.86517" lon="-2.76643">
        <ele>13.85</ele>
        <time>2018-01-19T11:19:19Z</time>
      </trkpt>
      <trkpt lat="47.86524" lon="-2.76621">
        <ele>11.98</ele>
        <time>2018-01-19T11:19:29Z</time>
      </trkpt>
      <trkpt lat="47.86528" lon="-2.76607">
        <ele>10.82</ele>
        <time>2018-01-19T11:19:35Z</time>
      </trkpt>
      <trkpt lat="47.86536" lon="-2.76575">
        <ele>8.44</ele>
        <time>2018-01-19T11:19:49Z</time>
      </trkpt>
      <trkpt lat="47.86537" lon="-2.76571">
        <ele>8.12</ele>
        <time>2018-01-19T11:19:51Z</time>
      </trkpt>
      <trkpt lat="47.86541" lon="-2.76555">
        <ele>6.74</ele>
        <time>2018-01-19T11:19:58Z</time>
      </trkpt>
      <trkpt lat="47.86543" lon="-2.76547">
        <ele>5.78</ele>
        <time>2018-01-19T11:20:02Z</time>
      </trkpt>
      <trkpt lat="47.86544" lon="-2.76542">
        <ele>4.89</ele>
        <time>2018-01-19T11:20:06Z</time>
      </trkpt>
      <trkpt lat="47.86547" lon="-2.76512">
        <ele>1.47</ele>
        <time>2018-01-19T11:20:20Z</time>
      </trkpt>
      <trkpt lat="47.86553" lon="-2.76492">
        <ele>-1.8</ele>
        <time>2018-01-19T11:20:29Z</time>
      </trkpt>
      <trkpt lat="47.86576" lon="-2.7648">
        <ele>-4.48</ele>
        <time>2018-01-19T11:20:43Z</time>
      </trkpt>
      <trkpt lat="47.86597" lon="-2.76472">
        <ele>-4.6</ele>
        <time>2018-01-19T11:20:57Z</time>
      </trkpt>
      <trkpt lat="47.866" lon="-2.76446">
        <ele>-6.65</ele>
        <time>2018-01-19T11:21:09Z</time>
      </trkpt>
      <trkpt lat="47.86599" lon="-2.76436">
        <ele>-8.98</ele>
        <time>2018-01-19T11:21:15Z</time>
      </trkpt>
      <trkpt lat="47.86598" lon="-2.76419">
        <ele>-12.25</ele>
        <time>2018-01-19T11:21:22Z</time>
      </trkpt>
      <trkpt lat="47.86598" lon="-2.76413">
        <ele>-13.44</ele>
        <time>2018-01-19T11:21:25Z</time>
      </trkpt>
      <trkpt lat="47.866" lon="-2.76398">
        <ele>-16.36</ele>
        <time>2018-01-19T11:21:33Z</time>
      </trkpt>
      <trkpt lat="47.866" lon="-2.76388">
        <ele>-17.74</ele>
        <time>2018-01-19T11:21:37Z</time>
      </trkpt>
      <trkpt lat="47.86595" lon="-2.76349">
        <ele>-21.58</ele>
        <time>2018-01-19T11:21:51Z</time>
      </trkpt>
      <trkpt lat="47.86591" lon="-2.76309">
        <ele>-24.67</ele>
        <time>2018-01-19T11:22:06Z</time>
      </trkpt>
      <trkpt lat="47.86585" lon="-2.76269">
        <ele>-27.15</ele>
        <time>2018-01-19T11:22:23Z</time>
      </trkpt>
      <trkpt lat="47.86563" lon="-2.76257">
        <ele>-28.32</ele>
        <time>2018-01-19T11:22:37Z</time>
      </trkpt>
      <trkpt lat="47.86537" lon="-2.76244">
        <ele>-28.26</ele>
        <time>2018-01-19T11:22:48Z</time>
      </trkpt>
      <trkpt lat="47.86521" lon="-2.76191">
        <ele>-28.34</ele>
        <time>2018-01-19T11:22:59Z</time>
      </trkpt>
      <trkpt lat="47.86519" lon="-2.76176">
        <ele>-28.23</ele>
        <time>2018-01-19T11:23:01Z</time>
      </trkpt>
      <trkpt lat="47.86502" lon="-2.76046">
        <ele>-26.06</ele>
        <time>2018-01-19T11:23:14Z</time>
      </trkpt>
      <trkpt lat="47.86492" lon="-2.75968">
        <ele>-22.63</ele>
        <time>2018-01-19T11:23:24Z</time>
      </trkpt>
      <trkpt lat="47.86484" lon="-2.75942">
        <ele>-19.58</ele>
        <time>2018-01-19T11:23:33Z</time>
      </trkpt>
      <trkpt lat="47.86476" lon="-2.75918">
        <ele>-18.31</ele>
        <time>2018-01-19T11:23:45Z</time>
      </trkpt>
      <trkpt lat="47.86466" lon="-2.75892">
        <ele>-17.78</ele>
        <time>2018-01-19T11:23:58Z</time>
      </trkpt>
      <trkpt lat="47.86454" lon="-2.75854">
        <ele>-17.92</ele>
        <time>2018-01-19T11:24:14Z</time>
      </trkpt>
      <trkpt lat="47.86441" lon="-2.75812">
        <ele>-17.94</ele>
        <time>2018-01-19T11:24:32Z</time>
      </trkpt>
      <trkpt lat="47.86428" lon="-2.75766">
        <ele>-18.62</ele>
        <time>2018-01-19T11:24:51Z</time>
      </trkpt>
      <trkpt lat="47.86416" lon="-2.75726">
        <ele>-19.55</ele>
        <time>2018-01-19T11:25:09Z</time>
      </trkpt>
      <trkpt lat="47.86405" lon="-2.75684">
        <ele>-20.27</ele>
        <time>2018-01-19T11:25:27Z</time>
      </trkpt>
      <trkpt lat="47.86399" lon="-2.7563">
        <ele>-21.27</ele>
        <time>2018-01-19T11:25:48Z</time>
      </trkpt>
      <trkpt lat="47.86399" lon="-2.75582">
        <ele>-22.32</ele>
        <time>2018-01-19T11:26:07Z</time>
      </trkpt>
      <trkpt lat="47.86395" lon="-2.75538">
        <ele>-23.66</ele>
        <time>2018-01-19T11:26:26Z</time>
      </trkpt>
      <trkpt lat="47.86368" lon="-2.75532">
        <ele>-23.69</ele>
        <time>2018-01-19T11:26:43Z</time>
      </trkpt>
      <trkpt lat="47.86337" lon="-2.75539">
        <ele>-23.95</ele>
        <time>2018-01-19T11:27:03Z</time>
      </trkpt>
      <trkpt lat="47.86327" lon="-2.75544">
        <ele>-24.4</ele>
        <time>2018-01-19T11:27:11Z</time>
      </trkpt>
      <trkpt lat="47.86325" lon="-2.75543">
        <ele>-24.45</ele>
        <time>2018-01-19T11:27:12Z</time>
      </trkpt>
      <trkpt lat="47.863" lon="-2.75536">
        <ele>-25.83</ele>
        <time>2018-01-19T11:27:27Z</time>
      </trkpt>
      <trkpt lat="47.86278" lon="-2.7552">
        <ele>-27.33</ele>
        <time>2018-01-19T11:27:42Z</time>
      </trkpt>
      <trkpt lat="47.86245" lon="-2.75524">
        <ele>-29.75</ele>
        <time>2018-01-19T11:28:00Z</time>
      </trkpt>
      <trkpt lat="47.86222" lon="-2.75534">
        <ele>-32.31</ele>
        <time>2018-01-19T11:28:14Z</time>
      </trkpt>
      <trkpt lat="47.86221" lon="-2.75534">
        <ele>-32.45</ele>
        <time>2018-01-19T11:28:15Z</time>
      </trkpt>
      <trkpt lat="47.86219" lon="-2.75535">
        <ele>-32.58</ele>
        <time>2018-01-19T11:28:16Z</time>
      </trkpt>
      <trkpt lat="47.86217" lon="-2.75535">
        <ele>-32.72</ele>
        <time>2018-01-19T11:28:17Z</time>
      </trkpt>
      <trkpt lat="47.86216" lon="-2.75536">
        <ele>-32.86</ele>
        <time>2018-01-19T11:28:18Z</time>
      </trkpt>
      <trkpt lat="47.86214" lon="-2.75536">
        <ele>-32.99</ele>
        <time>2018-01-19T11:28:19Z</time>
      </trkpt>
      <trkpt lat="47.86212" lon="-2.75537">
        <ele>-33.13</ele>
        <time>2018-01-19T11:28:20Z</time>
      </trkpt>
      <trkpt lat="47.86209" lon="-2.75537">
        <ele>-33.3</ele>
        <time>2018-01-19T11:28:21Z</time>
      </trkpt>
      <trkpt lat="47.86208" lon="-2.75538">
        <ele>-33.47</ele>
        <time>2018-01-19T11:28:22Z</time>
      </trkpt>
      <trkpt lat="47.86206" lon="-2.75538">
        <ele>-33.62</ele>
        <time>2018-01-19T11:28:23Z</time>
      </trkpt>
      <trkpt lat="47.86205" lon="-2.75538">
        <ele>-33.75</ele>
        <time>2018-01-19T11:28:24Z</time>
      </trkpt>
      <trkpt lat="47.86185" lon="-2.75545">
        <ele>-35.54</ele>
        <time>2018-01-19T11:28:37Z</time>
      </trkpt>
      <trkpt lat="47.86171" lon="-2.75551">
        <ele>-36.85</ele>
        <time>2018-01-19T11:28:45Z</time>
      </trkpt>
      <trkpt lat="47.8617" lon="-2.75551">
        <ele>-37.01</ele>
        <time>2018-01-19T11:28:46Z</time>
      </trkpt>
      <trkpt lat="47.86168" lon="-2.75552">
        <ele>-37.17</ele>
        <time>2018-01-19T11:28:47Z</time>
      </trkpt>
      <trkpt lat="47.86142" lon="-2.75554">
        <ele>-39.38</ele>
        <time>2018-01-19T11:29:01Z</time>
      </trkpt>
      <trkpt lat="47.86116" lon="-2.75553">
        <ele>-42.32</ele>
        <time>2018-01-19T11:29:16Z</time>
      </trkpt>
      <trkpt lat="47.86094" lon="-2.75546">
        <ele>-45.41</ele>
        <time>2018-01-19T11:29:28Z</time>
      </trkpt>
      <trkpt lat="47.86069" lon="-2.75536">
        <ele>-48.35</ele>
        <time>2018-01-19T11:29:44Z</time>
      </trkpt>
      <trkpt lat="47.8605" lon="-2.75513">
        <ele>-50.77</ele>
        <time>2018-01-19T11:29:59Z</time>
      </trkpt>
      <trkpt lat="47.86039" lon="-2.75485">
        <ele>-51.83</ele>
        <time>2018-01-19T11:30:13Z</time>
      </trkpt>
      <trkpt lat="47.86038" lon="-2.75484">
        <ele>-51.9</ele>
        <time>2018-01-19T11:30:14Z</time>
      </trkpt>
      <trkpt lat="47.86037" lon="-2.75483">
        <ele>-51.99</ele>
        <time>2018-01-19T11:30:15Z</time>
      </trkpt>
      <trkpt lat="47.86032" lon="-2.75476">
        <ele>-52.42</ele>
        <time>2018-01-19T11:30:20Z</time>
      </trkpt>
      <trkpt lat="47.86031" lon="-2.75475">
        <ele>-52.42</ele>
        <time>2018-01-19T11:30:21Z</time>
      </trkpt>
      <trkpt lat="47.86002" lon="-2.75462">
        <ele>-51.44</ele>
        <time>2018-01-19T11:30:40Z</time>
      </trkpt>
      <trkpt lat="47.85971" lon="-2.75448">
        <ele>-51.25</ele>
        <time>2018-01-19T11:30:57Z</time>
      </trkpt>
      <trkpt lat="47.85941" lon="-2.75434">
        <ele>-51.23</ele>
        <time>2018-01-19T11:31:13Z</time>
      </trkpt>
      <trkpt lat="47.85922" lon="-2.75425">
        <ele>-50.39</ele>
        <time>2018-01-19T11:31:18Z</time>
      </trkpt>
      <trkpt lat="47.85917" lon="-2.75421">
        <ele>-50.08</ele>
        <time>2018-01-19T11:31:19Z</time>
      </trkpt>
      <trkpt lat="47.85912" lon="-2.75417">
        <ele>-49.83</ele>
        <time>2018-01-19T11:31:20Z</time>
      </trkpt>
      <trkpt lat="47.85907" lon="-2.75412">
        <ele>-49.54</ele>
        <time>2018-01-19T11:31:21Z</time>
      </trkpt>
      <trkpt lat="47.85903" lon="-2.75407">
        <ele>-49.26</ele>
        <time>2018-01-19T11:31:22Z</time>
      </trkpt>
      <trkpt lat="47.85899" lon="-2.754">
        <ele>-48.99</ele>
        <time>2018-01-19T11:31:23Z</time>
      </trkpt>
      <trkpt lat="47.85891" lon="-2.75386">
        <ele>-48.43</ele>
        <time>2018-01-19T11:31:25Z</time>
      </trkpt>
      <trkpt lat="47.85889" lon="-2.75378">
        <ele>-48.09</ele>
        <time>2018-01-19T11:31:26Z</time>
      </trkpt>
      <trkpt lat="47.85884" lon="-2.75362">
        <ele>-47.29</ele>
        <time>2018-01-19T11:31:28Z</time>
      </trkpt>
      <trkpt lat="47.85881" lon="-2.75346">
        <ele>-46.46</ele>
        <time>2018-01-19T11:31:30Z</time>
      </trkpt>
      <trkpt lat="47.8588" lon="-2.75338">
        <ele>-45.99</ele>
        <time>2018-01-19T11:31:31Z</time>
      </trkpt>
      <trkpt lat="47.85878" lon="-2.75281">
        <ele>-42.85</ele>
        <time>2018-01-19T11:31:37Z</time>
      </trkpt>
      <trkpt lat="47.85878" lon="-2.75263">
        <ele>-42.06</ele>
        <time>2018-01-19T11:31:39Z</time>
      </trkpt>
      <trkpt lat="47.85878" lon="-2.75184">
        <ele>-38.85</ele>
        <time>2018-01-19T11:31:48Z</time>
      </trkpt>
      <trkpt lat="47.85879" lon="-2.75092">
        <ele>-35.62</ele>
        <time>2018-01-19T11:31:58Z</time>
      </trkpt>
      <trkpt lat="47.8588" lon="-2.74993">
        <ele>-32.28</ele>
        <time>2018-01-19T11:32:07Z</time>
      </trkpt>
      <trkpt lat="47.8588" lon="-2.74934">
        <ele>-29.13</ele>
        <time>2018-01-19T11:32:13Z</time>
      </trkpt>
      <trkpt lat="47.8588" lon="-2.74919">
        <ele>-28.14</ele>
        <time>2018-01-19T11:32:15Z</time>
      </trkpt>
      <trkpt lat="47.85879" lon="-2.74879">
        <ele>-25.41</ele>
        <time>2018-01-19T11:32:22Z</time>
      </trkpt>
      <trkpt lat="47.85876" lon="-2.74832">
        <ele>-22.67</ele>
        <time>2018-01-19T11:32:36Z</time>
      </trkpt>
      <trkpt lat="47.85874" lon="-2.74824">
        <ele>-22.24</ele>
        <time>2018-01-19T11:32:40Z</time>
      </trkpt>
      <trkpt lat="47.85872" lon="-2.74822">
        <ele>-22.14</ele>
        <time>2018-01-19T11:32:41Z</time>
      </trkpt>
      <trkpt lat="47.85871" lon="-2.74822">
        <ele>-22.03</ele>
        <time>2018-01-19T11:32:42Z</time>
      </trkpt>
      <trkpt lat="47.85869" lon="-2.74821">
        <ele>-21.88</ele>
        <time>2018-01-19T11:32:43Z</time>
      </trkpt>
      <trkpt lat="47.85867" lon="-2.74821">
        <ele>-21.8</ele>
        <time>2018-01-19T11:32:44Z</time>
      </trkpt>
      <trkpt lat="47.85865" lon="-2.74822">
        <ele>-21.74</ele>
        <time>2018-01-19T11:32:45Z</time>
      </trkpt>
      <trkpt lat="47.85863" lon="-2.74822">
        <ele>-21.58</ele>
        <time>2018-01-19T11:32:46Z</time>
      </trkpt>
      <trkpt lat="47.85839" lon="-2.74829">
        <ele>-21.7</ele>
        <time>2018-01-19T11:33:01Z</time>
      </trkpt>
      <trkpt lat="47.85815" lon="-2.74836">
        <ele>-21.6</ele>
        <time>2018-01-19T11:33:17Z</time>
      </trkpt>
      <trkpt lat="47.8579" lon="-2.74847">
        <ele>-21.42</ele>
        <time>2018-01-19T11:33:32Z</time>
      </trkpt>
      <trkpt lat="47.85757" lon="-2.74858">
        <ele>-21.19</ele>
        <time>2018-01-19T11:33:52Z</time>
      </trkpt>
      <trkpt lat="47.85723" lon="-2.74872">
        <ele>-20.65</ele>
        <time>2018-01-19T11:34:13Z</time>
      </trkpt>
      <trkpt lat="47.85692" lon="-2.74882">
        <ele>-20.21</ele>
        <time>2018-01-19T11:34:32Z</time>
      </trkpt>
      <trkpt lat="47.85663" lon="-2.74889">
        <ele>-20.94</ele>
        <time>2018-01-19T11:34:51Z</time>
      </trkpt>
      <trkpt lat="47.85654" lon="-2.74884">
        <ele>-21.33</ele>
        <time>2018-01-19T11:35:00Z</time>
      </trkpt>
      <trkpt lat="47.85653" lon="-2.74876">
        <ele>-21.73</ele>
        <time>2018-01-19T11:35:04Z</time>
      </trkpt>
      <trkpt lat="47.85652" lon="-2.74838">
        <ele>-24.52</ele>
        <time>2018-01-19T11:35:20Z</time>
      </trkpt>
      <trkpt lat="47.85652" lon="-2.74836">
        <ele>-24.68</ele>
        <time>2018-01-19T11:35:21Z</time>
      </trkpt>
      <trkpt lat="47.85651" lon="-2.74834">
        <ele>-24.87</ele>
        <time>2018-01-19T11:35:22Z</time>
      </trkpt>
      <trkpt lat="47.8565" lon="-2.74832">
        <ele>-25.07</ele>
        <time>2018-01-19T11:35:23Z</time>
      </trkpt>
      <trkpt lat="47.85649" lon="-2.74829">
        <ele>-25.28</ele>
        <time>2018-01-19T11:35:24Z</time>
      </trkpt>
      <trkpt lat="47.85649" lon="-2.74827">
        <ele>-25.51</ele>
        <time>2018-01-19T11:35:25Z</time>
      </trkpt>
      <trkpt lat="47.85642" lon="-2.74783">
        <ele>-28.7</ele>
        <time>2018-01-19T11:35:40Z</time>
      </trkpt>
      <trkpt lat="47.85633" lon="-2.74734">
        <ele>-31.53</ele>
        <time>2018-01-19T11:35:58Z</time>
      </trkpt>
      <trkpt lat="47.85627" lon="-2.74698">
        <ele>-32.03</ele>
        <time>2018-01-19T11:36:16Z</time>
      </trkpt>
      <trkpt lat="47.85624" lon="-2.74683">
        <ele>-32.05</ele>
        <time>2018-01-19T11:36:42Z</time>
      </trkpt>
      <trkpt lat="47.85621" lon="-2.74645">
        <ele>-32.02</ele>
        <time>2018-01-19T11:36:57Z</time>
      </trkpt>
      <trkpt lat="47.85615" lon="-2.74596">
        <ele>-31</ele>
        <time>2018-01-19T11:37:17Z</time>
      </trkpt>
      <trkpt lat="47.85608" lon="-2.74545">
        <ele>-30.14</ele>
        <time>2018-01-19T11:37:38Z</time>
      </trkpt>
      <trkpt lat="47.85601" lon="-2.74491">
        <ele>-29.27</ele>
        <time>2018-01-19T11:38:00Z</time>
      </trkpt>
      <trkpt lat="47.85598" lon="-2.74469">
        <ele>-28.97</ele>
        <time>2018-01-19T11:38:18Z</time>
      </trkpt>
      <trkpt lat="47.85598" lon="-2.74463">
        <ele>-28.97</ele>
        <time>2018-01-19T11:38:21Z</time>
      </trkpt>
      <trkpt lat="47.85597" lon="-2.7446">
        <ele>-28.98</ele>
        <time>2018-01-19T11:38:22Z</time>
      </trkpt>
      <trkpt lat="47.85596" lon="-2.74455">
        <ele>-28.98</ele>
        <time>2018-01-19T11:38:23Z</time>
      </trkpt>
      <trkpt lat="47.85589" lon="-2.7441">
        <ele>-29.07</ele>
        <time>2018-01-19T11:38:36Z</time>
      </trkpt>
      <trkpt lat="47.85582" lon="-2.74363">
        <ele>-28.71</ele>
        <time>2018-01-19T11:38:55Z</time>
      </trkpt>
      <trkpt lat="47.85575" lon="-2.74315">
        <ele>-28.83</ele>
        <time>2018-01-19T11:39:14Z</time>
      </trkpt>
      <trkpt lat="47.85571" lon="-2.74275">
        <ele>-29.33</ele>
        <time>2018-01-19T11:39:30Z</time>
      </trkpt>
      <trkpt lat="47.85563" lon="-2.74235">
        <ele>-29.96</ele>
        <time>2018-01-19T11:39:46Z</time>
      </trkpt>
      <trkpt lat="47.85556" lon="-2.74193">
        <ele>-30.72</ele>
        <time>2018-01-19T11:40:02Z</time>
      </trkpt>
      <trkpt lat="47.8555" lon="-2.7415">
        <ele>-32.2</ele>
        <time>2018-01-19T11:40:19Z</time>
      </trkpt>
      <trkpt lat="47.85546" lon="-2.74099">
        <ele>-33</ele>
        <time>2018-01-19T11:40:38Z</time>
      </trkpt>
      <trkpt lat="47.85539" lon="-2.74049">
        <ele>-33.28</ele>
        <time>2018-01-19T11:40:57Z</time>
      </trkpt>
      <trkpt lat="47.85533" lon="-2.74002">
        <ele>-33.07</ele>
        <time>2018-01-19T11:41:16Z</time>
      </trkpt>
      <trkpt lat="47.85526" lon="-2.7395">
        <ele>-33.18</ele>
        <time>2018-01-19T11:41:36Z</time>
      </trkpt>
      <trkpt lat="47.85519" lon="-2.73901">
        <ele>-34.31</ele>
        <time>2018-01-19T11:41:55Z</time>
      </trkpt>
      <trkpt lat="47.85514" lon="-2.73861">
        <ele>-35.69</ele>
        <time>2018-01-19T11:42:11Z</time>
      </trkpt>
      <trkpt lat="47.8551" lon="-2.73829">
        <ele>-36.57</ele>
        <time>2018-01-19T11:42:24Z</time>
      </trkpt>
      <trkpt lat="47.85507" lon="-2.73797">
        <ele>-36.68</ele>
        <time>2018-01-19T11:42:37Z</time>
      </trkpt>
      <trkpt lat="47.855" lon="-2.73737">
        <ele>-35.29</ele>
        <time>2018-01-19T11:42:47Z</time>
      </trkpt>
      <trkpt lat="47.85487" lon="-2.73646">
        <ele>-32.16</ele>
        <time>2018-01-19T11:42:58Z</time>
      </trkpt>
      <trkpt lat="47.85476" lon="-2.7357">
        <ele>-28.97</ele>
        <time>2018-01-19T11:43:08Z</time>
      </trkpt>
      <trkpt lat="47.85466" lon="-2.73497">
        <ele>-27.89</ele>
        <time>2018-01-19T11:43:21Z</time>
      </trkpt>
      <trkpt lat="47.85462" lon="-2.73459">
        <ele>-27.74</ele>
        <time>2018-01-19T11:43:29Z</time>
      </trkpt>
      <trkpt lat="47.85451" lon="-2.73383">
        <ele>-28.52</ele>
        <time>2018-01-19T11:43:43Z</time>
      </trkpt>
      <trkpt lat="47.85441" lon="-2.73306">
        <ele>-30.68</ele>
        <time>2018-01-19T11:43:57Z</time>
      </trkpt>
      <trkpt lat="47.85433" lon="-2.73267">
        <ele>-31.79</ele>
        <time>2018-01-19T11:44:07Z</time>
      </trkpt>
      <trkpt lat="47.85432" lon="-2.73265">
        <ele>-31.89</ele>
        <time>2018-01-19T11:44:08Z</time>
      </trkpt>
      <trkpt lat="47.8543" lon="-2.73262">
        <ele>-31.98</ele>
        <time>2018-01-19T11:44:09Z</time>
      </trkpt>
      <trkpt lat="47.854" lon="-2.73231">
        <ele>-32.76</ele>
        <time>2018-01-19T11:44:21Z</time>
      </trkpt>
      <trkpt lat="47.85382" lon="-2.73212">
        <ele>-33.13</ele>
        <time>2018-01-19T11:44:29Z</time>
      </trkpt>
      <trkpt lat="47.85359" lon="-2.73186">
        <ele>-33.59</ele>
        <time>2018-01-19T11:44:44Z</time>
      </trkpt>
      <trkpt lat="47.85341" lon="-2.7317">
        <ele>-34.1</ele>
        <time>2018-01-19T11:44:57Z</time>
      </trkpt>
      <trkpt lat="47.85324" lon="-2.73153">
        <ele>-34.47</ele>
        <time>2018-01-19T11:45:09Z</time>
      </trkpt>
      <trkpt lat="47.85306" lon="-2.73135">
        <ele>-35.11</ele>
        <time>2018-01-19T11:45:23Z</time>
      </trkpt>
      <trkpt lat="47.85299" lon="-2.73129">
        <ele>-35.41</ele>
        <time>2018-01-19T11:45:28Z</time>
      </trkpt>
      <trkpt lat="47.85279" lon="-2.73111">
        <ele>-35.9</ele>
        <time>2018-01-19T11:45:43Z</time>
      </trkpt>
      <trkpt lat="47.85256" lon="-2.73088">
        <ele>-36.54</ele>
        <time>2018-01-19T11:45:58Z</time>
      </trkpt>
      <trkpt lat="47.85236" lon="-2.73071">
        <ele>-37.72</ele>
        <time>2018-01-19T11:46:12Z</time>
      </trkpt>
      <trkpt lat="47.85235" lon="-2.73071">
        <ele>-37.8</ele>
        <time>2018-01-19T11:46:13Z</time>
      </trkpt>
      <trkpt lat="47.85226" lon="-2.73071">
        <ele>-38.4</ele>
        <time>2018-01-19T11:46:19Z</time>
      </trkpt>
      <trkpt lat="47.85223" lon="-2.73068">
        <ele>-38.61</ele>
        <time>2018-01-19T11:46:22Z</time>
      </trkpt>
      <trkpt lat="47.85222" lon="-2.73066">
        <ele>-38.68</ele>
        <time>2018-01-19T11:46:23Z</time>
      </trkpt>
      <trkpt lat="47.852" lon="-2.73046">
        <ele>-39.82</ele>
        <time>2018-01-19T11:46:40Z</time>
      </trkpt>
      <trkpt lat="47.85173" lon="-2.73035">
        <ele>-40.75</ele>
        <time>2018-01-19T11:46:57Z</time>
      </trkpt>
      <trkpt lat="47.85145" lon="-2.73008">
        <ele>-41.27</ele>
        <time>2018-01-19T11:47:15Z</time>
      </trkpt>
      <trkpt lat="47.85128" lon="-2.72991">
        <ele>-41.82</ele>
        <time>2018-01-19T11:47:30Z</time>
      </trkpt>
      <trkpt lat="47.85112" lon="-2.72964">
        <ele>-42.38</ele>
        <time>2018-01-19T11:47:45Z</time>
      </trkpt>
      <trkpt lat="47.85091" lon="-2.72932">
        <ele>-43.32</ele>
        <time>2018-01-19T11:48:02Z</time>
      </trkpt>
      <trkpt lat="47.85072" lon="-2.72911">
        <ele>-44.5</ele>
        <time>2018-01-19T11:48:17Z</time>
      </trkpt>
      <trkpt lat="47.8507" lon="-2.72909">
        <ele>-44.53</ele>
        <time>2018-01-19T11:48:19Z</time>
      </trkpt>
      <trkpt lat="47.85068" lon="-2.72908">
        <ele>-44.51</ele>
        <time>2018-01-19T11:48:21Z</time>
      </trkpt>
      <trkpt lat="47.85054" lon="-2.72889">
        <ele>-44.8</ele>
        <time>2018-01-19T11:48:33Z</time>
      </trkpt>
      <trkpt lat="47.85037" lon="-2.72865">
        <ele>-44.61</ele>
        <time>2018-01-19T11:48:47Z</time>
      </trkpt>
      <trkpt lat="47.85026" lon="-2.72847">
        <ele>-44.79</ele>
        <time>2018-01-19T11:48:59Z</time>
      </trkpt>
      <trkpt lat="47.85012" lon="-2.72809">
        <ele>-45.03</ele>
        <time>2018-01-19T11:49:14Z</time>
      </trkpt>
      <trkpt lat="47.85003" lon="-2.72781">
        <ele>-45.27</ele>
        <time>2018-01-19T11:49:26Z</time>
      </trkpt>
      <trkpt lat="47.84993" lon="-2.72763">
        <ele>-45.24</ele>
        <time>2018-01-19T11:49:34Z</time>
      </trkpt>
      <trkpt lat="47.84992" lon="-2.72759">
        <ele>-45.25</ele>
        <time>2018-01-19T11:49:35Z</time>
      </trkpt>
      <trkpt lat="47.84991" lon="-2.72756">
        <ele>-45.27</ele>
        <time>2018-01-19T11:49:36Z</time>
      </trkpt>
      <trkpt lat="47.8499" lon="-2.72754">
        <ele>-45.27</ele>
        <time>2018-01-19T11:49:37Z</time>
      </trkpt>
      <trkpt lat="47.84989" lon="-2.7275">
        <ele>-45.3</ele>
        <time>2018-01-19T11:49:38Z</time>
      </trkpt>
      <trkpt lat="47.84975" lon="-2.72711">
        <ele>-45.69</ele>
        <time>2018-01-19T11:49:53Z</time>
      </trkpt>
      <trkpt lat="47.84967" lon="-2.72691">
        <ele>-45.61</ele>
        <time>2018-01-19T11:50:05Z</time>
      </trkpt>
      <trkpt lat="47.84966" lon="-2.72687">
        <ele>-45.66</ele>
        <time>2018-01-19T11:50:08Z</time>
      </trkpt>
      <trkpt lat="47.84965" lon="-2.72685">
        <ele>-45.67</ele>
        <time>2018-01-19T11:50:09Z</time>
      </trkpt>
      <trkpt lat="47.84964" lon="-2.72683">
        <ele>-45.66</ele>
        <time>2018-01-19T11:50:10Z</time>
      </trkpt>
      <trkpt lat="47.84953" lon="-2.72656">
        <ele>-45.55</ele>
        <time>2018-01-19T11:50:24Z</time>
      </trkpt>
      <trkpt lat="47.84931" lon="-2.72618">
        <ele>-45.23</ele>
        <time>2018-01-19T11:50:38Z</time>
      </trkpt>
      <trkpt lat="47.84903" lon="-2.72588">
        <ele>-44.27</ele>
        <time>2018-01-19T11:50:50Z</time>
      </trkpt>
      <trkpt lat="47.84872" lon="-2.72568">
        <ele>-43.02</ele>
        <time>2018-01-19T11:51:00Z</time>
      </trkpt>
      <trkpt lat="47.84856" lon="-2.72561">
        <ele>-42.17</ele>
        <time>2018-01-19T11:51:04Z</time>
      </trkpt>
      <trkpt lat="47.84812" lon="-2.72555">
        <ele>-40.42</ele>
        <time>2018-01-19T11:51:14Z</time>
      </trkpt>
      <trkpt lat="47.84795" lon="-2.72556">
        <ele>-39.69</ele>
        <time>2018-01-19T11:51:18Z</time>
      </trkpt>
      <trkpt lat="47.84791" lon="-2.72557">
        <ele>-39.5</ele>
        <time>2018-01-19T11:51:19Z</time>
      </trkpt>
      <trkpt lat="47.84787" lon="-2.72557">
        <ele>-39.31</ele>
        <time>2018-01-19T11:51:20Z</time>
      </trkpt>
      <trkpt lat="47.84752" lon="-2.72559">
        <ele>-37.01</ele>
        <time>2018-01-19T11:51:31Z</time>
      </trkpt>
      <trkpt lat="47.84727" lon="-2.72558">
        <ele>-34.67</ele>
        <time>2018-01-19T11:51:44Z</time>
      </trkpt>
      <trkpt lat="47.84703" lon="-2.72554">
        <ele>-33.54</ele>
        <time>2018-01-19T11:51:56Z</time>
      </trkpt>
      <trkpt lat="47.84679" lon="-2.72544">
        <ele>-31.81</ele>
        <time>2018-01-19T11:52:07Z</time>
      </trkpt>
      <trkpt lat="47.84652" lon="-2.72529">
        <ele>-30.21</ele>
        <time>2018-01-19T11:52:20Z</time>
      </trkpt>
      <trkpt lat="47.84634" lon="-2.72509">
        <ele>-28.72</ele>
        <time>2018-01-19T11:52:34Z</time>
      </trkpt>
      <trkpt lat="47.84633" lon="-2.72508">
        <ele>-28.65</ele>
        <time>2018-01-19T11:52:35Z</time>
      </trkpt>
      <trkpt lat="47.84632" lon="-2.72507">
        <ele>-28.57</ele>
        <time>2018-01-19T11:52:36Z</time>
      </trkpt>
      <trkpt lat="47.84629" lon="-2.72503">
        <ele>-28.02</ele>
        <time>2018-01-19T11:52:47Z</time>
      </trkpt>
      <trkpt lat="47.84628" lon="-2.72502">
        <ele>-28</ele>
        <time>2018-01-19T11:52:48Z</time>
      </trkpt>
      <trkpt lat="47.84626" lon="-2.72499">
        <ele>-28.01</ele>
        <time>2018-01-19T11:52:50Z</time>
      </trkpt>
      <trkpt lat="47.8461" lon="-2.72491">
        <ele>-27.2</ele>
        <time>2018-01-19T11:53:06Z</time>
      </trkpt>
      <trkpt lat="47.84609" lon="-2.72489">
        <ele>-27.2</ele>
        <time>2018-01-19T11:53:07Z</time>
      </trkpt>
      <trkpt lat="47.84609" lon="-2.72488">
        <ele>-27.2</ele>
        <time>2018-01-19T11:53:08Z</time>
      </trkpt>
      <trkpt lat="47.84608" lon="-2.72487">
        <ele>-27.18</ele>
        <time>2018-01-19T11:53:09Z</time>
      </trkpt>
      <trkpt lat="47.84598" lon="-2.72473">
        <ele>-26.46</ele>
        <time>2018-01-19T11:53:22Z</time>
      </trkpt>
      <trkpt lat="47.84584" lon="-2.7245">
        <ele>-25.61</ele>
        <time>2018-01-19T11:53:37Z</time>
      </trkpt>
      <trkpt lat="47.8457" lon="-2.72424">
        <ele>-24.86</ele>
        <time>2018-01-19T11:53:54Z</time>
      </trkpt>
      <trkpt lat="47.84555" lon="-2.72401">
        <ele>-24.41</ele>
        <time>2018-01-19T11:54:09Z</time>
      </trkpt>
      <trkpt lat="47.84551" lon="-2.72395">
        <ele>-24.24</ele>
        <time>2018-01-19T11:54:13Z</time>
      </trkpt>
      <trkpt lat="47.84549" lon="-2.7239">
        <ele>-24.11</ele>
        <time>2018-01-19T11:54:17Z</time>
      </trkpt>
      <trkpt lat="47.84549" lon="-2.72389">
        <ele>-24.08</ele>
        <time>2018-01-19T11:54:18Z</time>
      </trkpt>
      <trkpt lat="47.84548" lon="-2.72387">
        <ele>-24.02</ele>
        <time>2018-01-19T11:54:19Z</time>
      </trkpt>
      <trkpt lat="47.84544" lon="-2.72371">
        <ele>-23.46</ele>
        <time>2018-01-19T11:54:28Z</time>
      </trkpt>
      <trkpt lat="47.84544" lon="-2.72362">
        <ele>-23</ele>
        <time>2018-01-19T11:54:34Z</time>
      </trkpt>
      <trkpt lat="47.84544" lon="-2.72361">
        <ele>-22.92</ele>
        <time>2018-01-19T11:54:35Z</time>
      </trkpt>
      <trkpt lat="47.84544" lon="-2.72359">
        <ele>-22.83</ele>
        <time>2018-01-19T11:54:36Z</time>
      </trkpt>
      <trkpt lat="47.84538" lon="-2.72338">
        <ele>-21.43</ele>
        <time>2018-01-19T11:54:48Z</time>
      </trkpt>
      <trkpt lat="47.84537" lon="-2.72334">
        <ele>-20.98</ele>
        <time>2018-01-19T11:54:51Z</time>
      </trkpt>
      <trkpt lat="47.84536" lon="-2.72333">
        <ele>-20.77</ele>
        <time>2018-01-19T11:54:52Z</time>
      </trkpt>
      <trkpt lat="47.84527" lon="-2.72326">
        <ele>-19.57</ele>
        <time>2018-01-19T11:54:59Z</time>
      </trkpt>
      <trkpt lat="47.84526" lon="-2.72325">
        <ele>-19.49</ele>
        <time>2018-01-19T11:55:00Z</time>
      </trkpt>
      <trkpt lat="47.84525" lon="-2.72324">
        <ele>-19.4</ele>
        <time>2018-01-19T11:55:01Z</time>
      </trkpt>
      <trkpt lat="47.84524" lon="-2.72324">
        <ele>-19.31</ele>
        <time>2018-01-19T11:55:02Z</time>
      </trkpt>
      <trkpt lat="47.84522" lon="-2.72323">
        <ele>-19.2</ele>
        <time>2018-01-19T11:55:03Z</time>
      </trkpt>
      <trkpt lat="47.84521" lon="-2.72323">
        <ele>-19.09</ele>
        <time>2018-01-19T11:55:04Z</time>
      </trkpt>
      <trkpt lat="47.8452" lon="-2.72323">
        <ele>-18.99</ele>
        <time>2018-01-19T11:55:05Z</time>
      </trkpt>
      <trkpt lat="47.84518" lon="-2.72322">
        <ele>-18.9</ele>
        <time>2018-01-19T11:55:06Z</time>
      </trkpt>
      <trkpt lat="47.84517" lon="-2.72322">
        <ele>-18.82</ele>
        <time>2018-01-19T11:55:07Z</time>
      </trkpt>
      <trkpt lat="47.84504" lon="-2.72317">
        <ele>-18.08</ele>
        <time>2018-01-19T11:55:17Z</time>
      </trkpt>
      <trkpt lat="47.84493" lon="-2.72312">
        <ele>-37.59</ele>
        <time>2018-01-19T13:31:24Z</time>
      </trkpt>
      <trkpt lat="47.84477" lon="-2.72316">
        <ele>-37.53</ele>
        <time>2018-01-19T13:31:35Z</time>
      </trkpt>
      <trkpt lat="47.84465" lon="-2.72316">
        <ele>-36.79</ele>
        <time>2018-01-19T13:31:45Z</time>
      </trkpt>
      <trkpt lat="47.84454" lon="-2.72329">
        <ele>-36.14</ele>
        <time>2018-01-19T13:31:59Z</time>
      </trkpt>
      <trkpt lat="47.8445" lon="-2.72336">
        <ele>-35.62</ele>
        <time>2018-01-19T13:32:05Z</time>
      </trkpt>
      <trkpt lat="47.84437" lon="-2.72343">
        <ele>-34.94</ele>
        <time>2018-01-19T13:32:16Z</time>
      </trkpt>
      <trkpt lat="47.84435" lon="-2.72343">
        <ele>-34.83</ele>
        <time>2018-01-19T13:32:18Z</time>
      </trkpt>
      <trkpt lat="47.84433" lon="-2.72343">
        <ele>-34.77</ele>
        <time>2018-01-19T13:32:19Z</time>
      </trkpt>
      <trkpt lat="47.84432" lon="-2.72344">
        <ele>-34.7</ele>
        <time>2018-01-19T13:32:20Z</time>
      </trkpt>
      <trkpt lat="47.84425" lon="-2.72351">
        <ele>-34.44</ele>
        <time>2018-01-19T13:32:24Z</time>
      </trkpt>
      <trkpt lat="47.84424" lon="-2.72351">
        <ele>-34.38</ele>
        <time>2018-01-19T13:32:25Z</time>
      </trkpt>
      <trkpt lat="47.84423" lon="-2.72353">
        <ele>-34.28</ele>
        <time>2018-01-19T13:32:26Z</time>
      </trkpt>
      <trkpt lat="47.84422" lon="-2.72355">
        <ele>-34.03</ele>
        <time>2018-01-19T13:32:27Z</time>
      </trkpt>
      <trkpt lat="47.84421" lon="-2.72356">
        <ele>-33.94</ele>
        <time>2018-01-19T13:32:28Z</time>
      </trkpt>
      <trkpt lat="47.84417" lon="-2.72377">
        <ele>-34.28</ele>
        <time>2018-01-19T13:32:42Z</time>
      </trkpt>
      <trkpt lat="47.8441" lon="-2.72422">
        <ele>-35.7</ele>
        <time>2018-01-19T13:33:00Z</time>
      </trkpt>
      <trkpt lat="47.84395" lon="-2.72446">
        <ele>-36.06</ele>
        <time>2018-01-19T13:33:18Z</time>
      </trkpt>
      <trkpt lat="47.84374" lon="-2.72456">
        <ele>-34.99</ele>
        <time>2018-01-19T13:33:33Z</time>
      </trkpt>
      <trkpt lat="47.84354" lon="-2.72454">
        <ele>-33.13</ele>
        <time>2018-01-19T13:33:48Z</time>
      </trkpt>
      <trkpt lat="47.84332" lon="-2.72443">
        <ele>-31.26</ele>
        <time>2018-01-19T13:34:06Z</time>
      </trkpt>
      <trkpt lat="47.84315" lon="-2.72434">
        <ele>-29.85</ele>
        <time>2018-01-19T13:34:20Z</time>
      </trkpt>
      <trkpt lat="47.84293" lon="-2.72422">
        <ele>-28.05</ele>
        <time>2018-01-19T13:34:38Z</time>
      </trkpt>
      <trkpt lat="47.84275" lon="-2.72413">
        <ele>-27.1</ele>
        <time>2018-01-19T13:34:54Z</time>
      </trkpt>
      <trkpt lat="47.84249" lon="-2.72403">
        <ele>-25.47</ele>
        <time>2018-01-19T13:35:13Z</time>
      </trkpt>
      <trkpt lat="47.84232" lon="-2.72417">
        <ele>-24.51</ele>
        <time>2018-01-19T13:35:28Z</time>
      </trkpt>
      <trkpt lat="47.84212" lon="-2.72441">
        <ele>-23.6</ele>
        <time>2018-01-19T13:35:47Z</time>
      </trkpt>
      <trkpt lat="47.84195" lon="-2.72464">
        <ele>-22.44</ele>
        <time>2018-01-19T13:36:04Z</time>
      </trkpt>
      <trkpt lat="47.84182" lon="-2.72475">
        <ele>-21.27</ele>
        <time>2018-01-19T13:36:16Z</time>
      </trkpt>
      <trkpt lat="47.84169" lon="-2.72485">
        <ele>-20.17</ele>
        <time>2018-01-19T13:36:25Z</time>
      </trkpt>
      <trkpt lat="47.84163" lon="-2.72489">
        <ele>-19.46</ele>
        <time>2018-01-19T13:36:31Z</time>
      </trkpt>
      <trkpt lat="47.84159" lon="-2.72497">
        <ele>-18.47</ele>
        <time>2018-01-19T13:36:37Z</time>
      </trkpt>
      <trkpt lat="47.84166" lon="-2.72529">
        <ele>-17.56</ele>
        <time>2018-01-19T13:36:54Z</time>
      </trkpt>
      <trkpt lat="47.8417" lon="-2.72563">
        <ele>-17.04</ele>
        <time>2018-01-19T13:37:10Z</time>
      </trkpt>
      <trkpt lat="47.84171" lon="-2.72591">
        <ele>-16.79</ele>
        <time>2018-01-19T13:37:23Z</time>
      </trkpt>
      <trkpt lat="47.84175" lon="-2.72613">
        <ele>-16.59</ele>
        <time>2018-01-19T13:37:35Z</time>
      </trkpt>
      <trkpt lat="47.84177" lon="-2.72645">
        <ele>-16.52</ele>
        <time>2018-01-19T13:37:51Z</time>
      </trkpt>
      <trkpt lat="47.84183" lon="-2.72694">
        <ele>-16.18</ele>
        <time>2018-01-19T13:38:13Z</time>
      </trkpt>
      <trkpt lat="47.84189" lon="-2.72713">
        <ele>-16.41</ele>
        <time>2018-01-19T13:38:23Z</time>
      </trkpt>
      <trkpt lat="47.84197" lon="-2.72731">
        <ele>-16.89</ele>
        <time>2018-01-19T13:38:35Z</time>
      </trkpt>
      <trkpt lat="47.84197" lon="-2.72738">
        <ele>-17.15</ele>
        <time>2018-01-19T13:38:39Z</time>
      </trkpt>
      <trkpt lat="47.842" lon="-2.72756">
        <ele>-17.57</ele>
        <time>2018-01-19T13:38:53Z</time>
      </trkpt>
      <trkpt lat="47.842" lon="-2.72759">
        <ele>-17.59</ele>
        <time>2018-01-19T13:38:55Z</time>
      </trkpt>
      <trkpt lat="47.84194" lon="-2.72776">
        <ele>-18.27</ele>
        <time>2018-01-19T13:39:10Z</time>
      </trkpt>
      <trkpt lat="47.8419" lon="-2.7278">
        <ele>-17.18</ele>
        <time>2018-01-19T13:39:39Z</time>
      </trkpt>
      <trkpt lat="47.84192" lon="-2.72788">
        <ele>-17.35</ele>
        <time>2018-01-19T13:40:05Z</time>
      </trkpt>
      <trkpt lat="47.8419" lon="-2.72809">
        <ele>-16.13</ele>
        <time>2018-01-19T13:40:20Z</time>
      </trkpt>
      <trkpt lat="47.84186" lon="-2.72841">
        <ele>-14.53</ele>
        <time>2018-01-19T13:40:37Z</time>
      </trkpt>
      <trkpt lat="47.84181" lon="-2.72874">
        <ele>-13.09</ele>
        <time>2018-01-19T13:40:54Z</time>
      </trkpt>
      <trkpt lat="47.84179" lon="-2.72881">
        <ele>-12.55</ele>
        <time>2018-01-19T13:40:57Z</time>
      </trkpt>
      <trkpt lat="47.84177" lon="-2.7289">
        <ele>-11.78</ele>
        <time>2018-01-19T13:41:02Z</time>
      </trkpt>
      <trkpt lat="47.84171" lon="-2.72909">
        <ele>-8.74</ele>
        <time>2018-01-19T13:41:16Z</time>
      </trkpt>
      <trkpt lat="47.84159" lon="-2.72919">
        <ele>-5.45</ele>
        <time>2018-01-19T13:41:29Z</time>
      </trkpt>
      <trkpt lat="47.84145" lon="-2.72923">
        <ele>-3.41</ele>
        <time>2018-01-19T13:41:43Z</time>
      </trkpt>
      <trkpt lat="47.84132" lon="-2.72945">
        <ele>-2.62</ele>
        <time>2018-01-19T13:41:54Z</time>
      </trkpt>
      <trkpt lat="47.84131" lon="-2.72955">
        <ele>-2.4</ele>
        <time>2018-01-19T13:41:58Z</time>
      </trkpt>
      <trkpt lat="47.84127" lon="-2.72995">
        <ele>-2.77</ele>
        <time>2018-01-19T13:42:13Z</time>
      </trkpt>
      <trkpt lat="47.84128" lon="-2.73003">
        <ele>-2.93</ele>
        <time>2018-01-19T13:42:17Z</time>
      </trkpt>
      <trkpt lat="47.84127" lon="-2.73042">
        <ele>-3.72</ele>
        <time>2018-01-19T13:42:33Z</time>
      </trkpt>
      <trkpt lat="47.84128" lon="-2.73045">
        <ele>-3.84</ele>
        <time>2018-01-19T13:42:35Z</time>
      </trkpt>
      <trkpt lat="47.84128" lon="-2.73071">
        <ele>-4.85</ele>
        <time>2018-01-19T13:42:48Z</time>
      </trkpt>
      <trkpt lat="47.84129" lon="-2.73085">
        <ele>-5.33</ele>
        <time>2018-01-19T13:42:55Z</time>
      </trkpt>
      <trkpt lat="47.84129" lon="-2.7309">
        <ele>-5.64</ele>
        <time>2018-01-19T13:42:57Z</time>
      </trkpt>
      <trkpt lat="47.84129" lon="-2.73098">
        <ele>-5.87</ele>
        <time>2018-01-19T13:43:00Z</time>
      </trkpt>
      <trkpt lat="47.84129" lon="-2.73111">
        <ele>-6.37</ele>
        <time>2018-01-19T13:43:06Z</time>
      </trkpt>
      <trkpt lat="47.84127" lon="-2.73121">
        <ele>-6.84</ele>
        <time>2018-01-19T13:43:10Z</time>
      </trkpt>
      <trkpt lat="47.84126" lon="-2.73124">
        <ele>-6.95</ele>
        <time>2018-01-19T13:43:11Z</time>
      </trkpt>
      <trkpt lat="47.84125" lon="-2.73138">
        <ele>-7.27</ele>
        <time>2018-01-19T13:43:16Z</time>
      </trkpt>
      <trkpt lat="47.84125" lon="-2.7314">
        <ele>-7.32</ele>
        <time>2018-01-19T13:43:17Z</time>
      </trkpt>
      <trkpt lat="47.8412" lon="-2.7318">
        <ele>-8.09</ele>
        <time>2018-01-19T13:43:30Z</time>
      </trkpt>
      <trkpt lat="47.8412" lon="-2.73217">
        <ele>-8.62</ele>
        <time>2018-01-19T13:43:46Z</time>
      </trkpt>
      <trkpt lat="47.84122" lon="-2.73252">
        <ele>-8.81</ele>
        <time>2018-01-19T13:44:01Z</time>
      </trkpt>
      <trkpt lat="47.84122" lon="-2.73304">
        <ele>-9.75</ele>
        <time>2018-01-19T13:44:19Z</time>
      </trkpt>
      <trkpt lat="47.84123" lon="-2.73316">
        <ele>-10.07</ele>
        <time>2018-01-19T13:44:24Z</time>
      </trkpt>
      <trkpt lat="47.84123" lon="-2.73317">
        <ele>-10.16</ele>
        <time>2018-01-19T13:44:25Z</time>
      </trkpt>
      <trkpt lat="47.84124" lon="-2.73341">
        <ele>-11.09</ele>
        <time>2018-01-19T13:44:35Z</time>
      </trkpt>
      <trkpt lat="47.84122" lon="-2.73368">
        <ele>-12.78</ele>
        <time>2018-01-19T13:44:48Z</time>
      </trkpt>
      <trkpt lat="47.84123" lon="-2.73379">
        <ele>-13.19</ele>
        <time>2018-01-19T13:44:53Z</time>
      </trkpt>
      <trkpt lat="47.84123" lon="-2.73389">
        <ele>-13.59</ele>
        <time>2018-01-19T13:44:59Z</time>
      </trkpt>
      <trkpt lat="47.84122" lon="-2.73398">
        <ele>-13.52</ele>
        <time>2018-01-19T13:45:02Z</time>
      </trkpt>
      <trkpt lat="47.84121" lon="-2.734">
        <ele>-13.54</ele>
        <time>2018-01-19T13:45:03Z</time>
      </trkpt>
      <trkpt lat="47.8412" lon="-2.73405">
        <ele>-13.53</ele>
        <time>2018-01-19T13:45:04Z</time>
      </trkpt>
      <trkpt lat="47.8412" lon="-2.73409">
        <ele>-13.52</ele>
        <time>2018-01-19T13:45:05Z</time>
      </trkpt>
      <trkpt lat="47.84119" lon="-2.73434">
        <ele>-13.52</ele>
        <time>2018-01-19T13:45:15Z</time>
      </trkpt>
      <trkpt lat="47.8412" lon="-2.73444">
        <ele>-13.65</ele>
        <time>2018-01-19T13:45:19Z</time>
      </trkpt>
      <trkpt lat="47.84116" lon="-2.73455">
        <ele>-13.69</ele>
        <time>2018-01-19T13:45:26Z</time>
      </trkpt>
      <trkpt lat="47.84115" lon="-2.73457">
        <ele>-13.74</ele>
        <time>2018-01-19T13:45:27Z</time>
      </trkpt>
      <trkpt lat="47.841" lon="-2.73467">
        <ele>-14.6</ele>
        <time>2018-01-19T13:45:40Z</time>
      </trkpt>
      <trkpt lat="47.84079" lon="-2.73483">
        <ele>-16.49</ele>
        <time>2018-01-19T13:45:57Z</time>
      </trkpt>
      <trkpt lat="47.84077" lon="-2.73485">
        <ele>-16.55</ele>
        <time>2018-01-19T13:45:58Z</time>
      </trkpt>
      <trkpt lat="47.84061" lon="-2.73505">
        <ele>-17.08</ele>
        <time>2018-01-19T13:46:08Z</time>
      </trkpt>
      <trkpt lat="47.84057" lon="-2.7351">
        <ele>-17.42</ele>
        <time>2018-01-19T13:46:11Z</time>
      </trkpt>
      <trkpt lat="47.8404" lon="-2.73532">
        <ele>-19.18</ele>
        <time>2018-01-19T13:46:27Z</time>
      </trkpt>
      <trkpt lat="47.84038" lon="-2.73534">
        <ele>-19.23</ele>
        <time>2018-01-19T13:46:28Z</time>
      </trkpt>
      <trkpt lat="47.84033" lon="-2.7354">
        <ele>-19.51</ele>
        <time>2018-01-19T13:46:32Z</time>
      </trkpt>
      <trkpt lat="47.84025" lon="-2.73547">
        <ele>-19.97</ele>
        <time>2018-01-19T13:46:37Z</time>
      </trkpt>
      <trkpt lat="47.84019" lon="-2.73557">
        <ele>-20.35</ele>
        <time>2018-01-19T13:46:41Z</time>
      </trkpt>
      <trkpt lat="47.84014" lon="-2.73563">
        <ele>-20.63</ele>
        <time>2018-01-19T13:46:45Z</time>
      </trkpt>
      <trkpt lat="47.84004" lon="-2.7357">
        <ele>-21.4</ele>
        <time>2018-01-19T13:46:53Z</time>
      </trkpt>
      <trkpt lat="47.83984" lon="-2.73593">
        <ele>-23.32</ele>
        <time>2018-01-19T13:47:08Z</time>
      </trkpt>
      <trkpt lat="47.83974" lon="-2.73596">
        <ele>-24.78</ele>
        <time>2018-01-19T13:47:17Z</time>
      </trkpt>
      <trkpt lat="47.83955" lon="-2.73608">
        <ele>-27.01</ele>
        <time>2018-01-19T13:47:28Z</time>
      </trkpt>
      <trkpt lat="47.83928" lon="-2.73632">
        <ele>-28.46</ele>
        <time>2018-01-19T13:47:42Z</time>
      </trkpt>
      <trkpt lat="47.83904" lon="-2.73654">
        <ele>-30.19</ele>
        <time>2018-01-19T13:47:56Z</time>
      </trkpt>
      <trkpt lat="47.83875" lon="-2.73666">
        <ele>-33.26</ele>
        <time>2018-01-19T13:48:13Z</time>
      </trkpt>
      <trkpt lat="47.83845" lon="-2.73675">
        <ele>-36.05</ele>
        <time>2018-01-19T13:48:32Z</time>
      </trkpt>
      <trkpt lat="47.83824" lon="-2.73685">
        <ele>-37.64</ele>
        <time>2018-01-19T13:48:48Z</time>
      </trkpt>
      <trkpt lat="47.83805" lon="-2.73692">
        <ele>-38.11</ele>
        <time>2018-01-19T13:49:01Z</time>
      </trkpt>
      <trkpt lat="47.83782" lon="-2.73699">
        <ele>-39.75</ele>
        <time>2018-01-19T13:49:16Z</time>
      </trkpt>
      <trkpt lat="47.83772" lon="-2.737">
        <ele>-40.9</ele>
        <time>2018-01-19T13:49:22Z</time>
      </trkpt>
      <trkpt lat="47.83771" lon="-2.73701">
        <ele>-41.12</ele>
        <time>2018-01-19T13:49:23Z</time>
      </trkpt>
      <trkpt lat="47.83745" lon="-2.73709">
        <ele>-44.01</ele>
        <time>2018-01-19T13:49:39Z</time>
      </trkpt>
      <trkpt lat="47.83718" lon="-2.73717">
        <ele>-46.14</ele>
        <time>2018-01-19T13:49:55Z</time>
      </trkpt>
      <trkpt lat="47.83689" lon="-2.73727">
        <ele>-48.04</ele>
        <time>2018-01-19T13:50:12Z</time>
      </trkpt>
      <trkpt lat="47.83663" lon="-2.73736">
        <ele>-50.6</ele>
        <time>2018-01-19T13:50:29Z</time>
      </trkpt>
      <trkpt lat="47.83645" lon="-2.73735">
        <ele>-52.77</ele>
        <time>2018-01-19T13:50:45Z</time>
      </trkpt>
      <trkpt lat="47.83642" lon="-2.73736">
        <ele>-52.85</ele>
        <time>2018-01-19T13:51:11Z</time>
      </trkpt>
      <trkpt lat="47.83633" lon="-2.73739">
        <ele>-54.36</ele>
        <time>2018-01-19T13:51:25Z</time>
      </trkpt>
      <trkpt lat="47.83626" lon="-2.73748">
        <ele>-57.79</ele>
        <time>2018-01-19T13:51:37Z</time>
      </trkpt>
      <trkpt lat="47.83616" lon="-2.73751">
        <ele>-60.95</ele>
        <time>2018-01-19T13:51:46Z</time>
      </trkpt>
      <trkpt lat="47.83606" lon="-2.73751">
        <ele>-64.06</ele>
        <time>2018-01-19T13:51:56Z</time>
      </trkpt>
      <trkpt lat="47.836" lon="-2.73751">
        <ele>-65.38</ele>
        <time>2018-01-19T13:52:00Z</time>
      </trkpt>
      <trkpt lat="47.83598" lon="-2.73751">
        <ele>-65.72</ele>
        <time>2018-01-19T13:52:01Z</time>
      </trkpt>
      <trkpt lat="47.83581" lon="-2.73764">
        <ele>-68.64</ele>
        <time>2018-01-19T13:52:17Z</time>
      </trkpt>
      <trkpt lat="47.83564" lon="-2.73782">
        <ele>-70.13</ele>
        <time>2018-01-19T13:52:35Z</time>
      </trkpt>
      <trkpt lat="47.83556" lon="-2.73802">
        <ele>-72.14</ele>
        <time>2018-01-19T13:52:50Z</time>
      </trkpt>
      <trkpt lat="47.83547" lon="-2.73811">
        <ele>-72.29</ele>
        <time>2018-01-19T13:53:02Z</time>
      </trkpt>
      <trkpt lat="47.83537" lon="-2.73816">
        <ele>-72.86</ele>
        <time>2018-01-19T13:53:09Z</time>
      </trkpt>
      <trkpt lat="47.83522" lon="-2.73827">
        <ele>-74.43</ele>
        <time>2018-01-19T13:53:22Z</time>
      </trkpt>
      <trkpt lat="47.835" lon="-2.73849">
        <ele>-76.91</ele>
        <time>2018-01-19T13:53:39Z</time>
      </trkpt>
      <trkpt lat="47.83483" lon="-2.73842">
        <ele>-80.02</ele>
        <time>2018-01-19T13:53:53Z</time>
      </trkpt>
      <trkpt lat="47.83476" lon="-2.73835">
        <ele>-81.22</ele>
        <time>2018-01-19T13:53:58Z</time>
      </trkpt>
      <trkpt lat="47.83465" lon="-2.73824">
        <ele>-81.8</ele>
        <time>2018-01-19T13:54:07Z</time>
      </trkpt>
      <trkpt lat="47.83449" lon="-2.73816">
        <ele>-82.84</ele>
        <time>2018-01-19T13:54:22Z</time>
      </trkpt>
      <trkpt lat="47.83448" lon="-2.73816">
        <ele>-83.02</ele>
        <time>2018-01-19T13:54:23Z</time>
      </trkpt>
      <trkpt lat="47.83448" lon="-2.73828">
        <ele>-84.04</ele>
        <time>2018-01-19T13:54:31Z</time>
      </trkpt>
      <trkpt lat="47.8344" lon="-2.7386">
        <ele>-85.22</ele>
        <time>2018-01-19T13:54:46Z</time>
      </trkpt>
      <trkpt lat="47.8343" lon="-2.73884">
        <ele>-86.85</ele>
        <time>2018-01-19T13:54:56Z</time>
      </trkpt>
      <trkpt lat="47.83428" lon="-2.73892">
        <ele>-87.78</ele>
        <time>2018-01-19T13:55:00Z</time>
      </trkpt>
      <trkpt lat="47.83428" lon="-2.73897">
        <ele>-88.13</ele>
        <time>2018-01-19T13:55:02Z</time>
      </trkpt>
      <trkpt lat="47.83432" lon="-2.73917">
        <ele>-88.59</ele>
        <time>2018-01-19T13:55:11Z</time>
      </trkpt>
      <trkpt lat="47.83437" lon="-2.73935">
        <ele>-88.92</ele>
        <time>2018-01-19T13:55:19Z</time>
      </trkpt>
      <trkpt lat="47.83439" lon="-2.73941">
        <ele>-88.86</ele>
        <time>2018-01-19T13:55:22Z</time>
      </trkpt>
      <trkpt lat="47.83441" lon="-2.73945">
        <ele>-88.82</ele>
        <time>2018-01-19T13:55:25Z</time>
      </trkpt>
      <trkpt lat="47.83461" lon="-2.73958">
        <ele>-87.95</ele>
        <time>2018-01-19T13:55:37Z</time>
      </trkpt>
      <trkpt lat="47.83465" lon="-2.73961">
        <ele>-87.55</ele>
        <time>2018-01-19T13:55:40Z</time>
      </trkpt>
      <trkpt lat="47.83476" lon="-2.73977">
        <ele>-88.8</ele>
        <time>2018-01-19T13:55:48Z</time>
      </trkpt>
      <trkpt lat="47.83493" lon="-2.74006">
        <ele>-89.29</ele>
        <time>2018-01-19T13:56:01Z</time>
      </trkpt>
      <trkpt lat="47.83499" lon="-2.7402">
        <ele>-89.21</ele>
        <time>2018-01-19T13:56:10Z</time>
      </trkpt>
      <trkpt lat="47.83512" lon="-2.74035">
        <ele>-89.26</ele>
        <time>2018-01-19T13:56:23Z</time>
      </trkpt>
      <trkpt lat="47.83521" lon="-2.74042">
        <ele>-89.08</ele>
        <time>2018-01-19T13:56:44Z</time>
      </trkpt>
      <trkpt lat="47.83522" lon="-2.74042">
        <ele>-89.01</ele>
        <time>2018-01-19T13:56:45Z</time>
      </trkpt>
      <trkpt lat="47.83528" lon="-2.74039">
        <ele>-88.65</ele>
        <time>2018-01-19T13:56:50Z</time>
      </trkpt>
      <trkpt lat="47.83535" lon="-2.74037">
        <ele>-85.18</ele>
        <time>2018-01-19T13:56:58Z</time>
      </trkpt>
      <trkpt lat="47.83541" lon="-2.74035">
        <ele>-82.16</ele>
        <time>2018-01-19T13:57:06Z</time>
      </trkpt>
      <trkpt lat="47.83548" lon="-2.74033">
        <ele>-79.13</ele>
        <time>2018-01-19T13:57:14Z</time>
      </trkpt>
      <trkpt lat="47.83567" lon="-2.74035">
        <ele>-76.1</ele>
        <time>2018-01-19T13:57:28Z</time>
      </trkpt>
      <trkpt lat="47.83589" lon="-2.74036">
        <ele>-73.04</ele>
        <time>2018-01-19T13:57:46Z</time>
      </trkpt>
      <trkpt lat="47.8361" lon="-2.7403">
        <ele>-69.98</ele>
        <time>2018-01-19T13:57:59Z</time>
      </trkpt>
      <trkpt lat="47.83627" lon="-2.74028">
        <ele>-66.76</ele>
        <time>2018-01-19T13:58:11Z</time>
      </trkpt>
      <trkpt lat="47.83639" lon="-2.74009">
        <ele>-65.29</ele>
        <time>2018-01-19T13:58:23Z</time>
      </trkpt>
      <trkpt lat="47.83646" lon="-2.74001">
        <ele>-64.67</ele>
        <time>2018-01-19T13:58:29Z</time>
      </trkpt>
      <trkpt lat="47.83662" lon="-2.73997">
        <ele>-61.39</ele>
        <time>2018-01-19T13:58:41Z</time>
      </trkpt>
      <trkpt lat="47.83672" lon="-2.73994">
        <ele>-58.32</ele>
        <time>2018-01-19T13:58:53Z</time>
      </trkpt>
      <trkpt lat="47.83692" lon="-2.73984">
        <ele>-56.1</ele>
        <time>2018-01-19T13:59:08Z</time>
      </trkpt>
      <trkpt lat="47.83713" lon="-2.73975">
        <ele>-54.67</ele>
        <time>2018-01-19T13:59:23Z</time>
      </trkpt>
      <trkpt lat="47.83731" lon="-2.73977">
        <ele>-52.29</ele>
        <time>2018-01-19T13:59:39Z</time>
      </trkpt>
      <trkpt lat="47.83743" lon="-2.73968">
        <ele>-51.86</ele>
        <time>2018-01-19T13:59:48Z</time>
      </trkpt>
      <trkpt lat="47.83751" lon="-2.73962">
        <ele>-51.39</ele>
        <time>2018-01-19T13:59:54Z</time>
      </trkpt>
      <trkpt lat="47.83755" lon="-2.7396">
        <ele>-51.22</ele>
        <time>2018-01-19T13:59:57Z</time>
      </trkpt>
      <trkpt lat="47.83766" lon="-2.7396">
        <ele>-50.81</ele>
        <time>2018-01-19T14:00:03Z</time>
      </trkpt>
      <trkpt lat="47.83774" lon="-2.73963">
        <ele>-50.25</ele>
        <time>2018-01-19T14:00:09Z</time>
      </trkpt>
      <trkpt lat="47.83789" lon="-2.73969">
        <ele>-48.18</ele>
        <time>2018-01-19T14:00:20Z</time>
      </trkpt>
      <trkpt lat="47.83791" lon="-2.7397">
        <ele>-47.86</ele>
        <time>2018-01-19T14:00:22Z</time>
      </trkpt>
      <trkpt lat="47.83797" lon="-2.73976">
        <ele>-46.62</ele>
        <time>2018-01-19T14:00:28Z</time>
      </trkpt>
      <trkpt lat="47.83799" lon="-2.73989">
        <ele>-45.72</ele>
        <time>2018-01-19T14:00:36Z</time>
      </trkpt>
      <trkpt lat="47.83801" lon="-2.74016">
        <ele>-45.28</ele>
        <time>2018-01-19T14:00:46Z</time>
      </trkpt>
      <trkpt lat="47.838" lon="-2.74025">
        <ele>-44.84</ele>
        <time>2018-01-19T14:00:51Z</time>
      </trkpt>
      <trkpt lat="47.83799" lon="-2.7404">
        <ele>-44.74</ele>
        <time>2018-01-19T14:01:00Z</time>
      </trkpt>
      <trkpt lat="47.83801" lon="-2.74057">
        <ele>-44.63</ele>
        <time>2018-01-19T14:01:09Z</time>
      </trkpt>
      <trkpt lat="47.83801" lon="-2.74087">
        <ele>-44.68</ele>
        <time>2018-01-19T14:01:21Z</time>
      </trkpt>
      <trkpt lat="47.83802" lon="-2.74105">
        <ele>-44.59</ele>
        <time>2018-01-19T14:01:27Z</time>
      </trkpt>
      <trkpt lat="47.83797" lon="-2.74145">
        <ele>-44.86</ele>
        <time>2018-01-19T14:01:41Z</time>
      </trkpt>
      <trkpt lat="47.83793" lon="-2.74168">
        <ele>-45.16</ele>
        <time>2018-01-19T14:01:52Z</time>
      </trkpt>
      <trkpt lat="47.83793" lon="-2.74178">
        <ele>-45.64</ele>
        <time>2018-01-19T14:01:58Z</time>
      </trkpt>
      <trkpt lat="47.83794" lon="-2.74188">
        <ele>-46.12</ele>
        <time>2018-01-19T14:02:03Z</time>
      </trkpt>
      <trkpt lat="47.83795" lon="-2.74193">
        <ele>-46.56</ele>
        <time>2018-01-19T14:02:06Z</time>
      </trkpt>
      <trkpt lat="47.83794" lon="-2.74198">
        <ele>-46.97</ele>
        <time>2018-01-19T14:02:08Z</time>
      </trkpt>
      <trkpt lat="47.83794" lon="-2.74206">
        <ele>-47.94</ele>
        <time>2018-01-19T14:02:12Z</time>
      </trkpt>
      <trkpt lat="47.83794" lon="-2.7424">
        <ele>-49.41</ele>
        <time>2018-01-19T14:02:21Z</time>
      </trkpt>
      <trkpt lat="47.83795" lon="-2.74282">
        <ele>-47.56</ele>
        <time>2018-01-19T14:02:30Z</time>
      </trkpt>
      <trkpt lat="47.83797" lon="-2.74305">
        <ele>-46.37</ele>
        <time>2018-01-19T14:02:35Z</time>
      </trkpt>
      <trkpt lat="47.8379" lon="-2.74345">
        <ele>-44.8</ele>
        <time>2018-01-19T14:02:47Z</time>
      </trkpt>
      <trkpt lat="47.83766" lon="-2.7436">
        <ele>-45.11</ele>
        <time>2018-01-19T14:03:00Z</time>
      </trkpt>
      <trkpt lat="47.83738" lon="-2.74368">
        <ele>-47.5</ele>
        <time>2018-01-19T14:03:17Z</time>
      </trkpt>
      <trkpt lat="47.83709" lon="-2.74375">
        <ele>-50.24</ele>
        <time>2018-01-19T14:03:35Z</time>
      </trkpt>
      <trkpt lat="47.8368" lon="-2.74379">
        <ele>-52.5</ele>
        <time>2018-01-19T14:03:52Z</time>
      </trkpt>
      <trkpt lat="47.83657" lon="-2.74384">
        <ele>-54.39</ele>
        <time>2018-01-19T14:04:07Z</time>
      </trkpt>
      <trkpt lat="47.83632" lon="-2.74392">
        <ele>-56.09</ele>
        <time>2018-01-19T14:04:22Z</time>
      </trkpt>
      <trkpt lat="47.83618" lon="-2.74394">
        <ele>-57.76</ele>
        <time>2018-01-19T14:04:31Z</time>
      </trkpt>
      <trkpt lat="47.83607" lon="-2.74401">
        <ele>-59.35</ele>
        <time>2018-01-19T14:04:39Z</time>
      </trkpt>
      <trkpt lat="47.83599" lon="-2.74408">
        <ele>-60.31</ele>
        <time>2018-01-19T14:04:44Z</time>
      </trkpt>
      <trkpt lat="47.83586" lon="-2.74428">
        <ele>-62.18</ele>
        <time>2018-01-19T14:04:55Z</time>
      </trkpt>
      <trkpt lat="47.8358" lon="-2.74459">
        <ele>-64.04</ele>
        <time>2018-01-19T14:05:09Z</time>
      </trkpt>
      <trkpt lat="47.83575" lon="-2.74488">
        <ele>-66.03</ele>
        <time>2018-01-19T14:05:21Z</time>
      </trkpt>
      <trkpt lat="47.83571" lon="-2.74519">
        <ele>-68</ele>
        <time>2018-01-19T14:05:33Z</time>
      </trkpt>
      <trkpt lat="47.83566" lon="-2.74562">
        <ele>-70.04</ele>
        <time>2018-01-19T14:05:49Z</time>
      </trkpt>
      <trkpt lat="47.83562" lon="-2.74595">
        <ele>-71.9</ele>
        <time>2018-01-19T14:06:02Z</time>
      </trkpt>
      <trkpt lat="47.83561" lon="-2.74607">
        <ele>-72.29</ele>
        <time>2018-01-19T14:06:08Z</time>
      </trkpt>
      <trkpt lat="47.83556" lon="-2.74639">
        <ele>-72.38</ele>
        <time>2018-01-19T14:06:21Z</time>
      </trkpt>
      <trkpt lat="47.83551" lon="-2.74679">
        <ele>-73.17</ele>
        <time>2018-01-19T14:06:36Z</time>
      </trkpt>
      <trkpt lat="47.83547" lon="-2.74693">
        <ele>-73.66</ele>
        <time>2018-01-19T14:06:42Z</time>
      </trkpt>
      <trkpt lat="47.83546" lon="-2.74695">
        <ele>-73.73</ele>
        <time>2018-01-19T14:06:43Z</time>
      </trkpt>
      <trkpt lat="47.83546" lon="-2.74698">
        <ele>-73.82</ele>
        <time>2018-01-19T14:06:44Z</time>
      </trkpt>
      <trkpt lat="47.83545" lon="-2.74701">
        <ele>-73.96</ele>
        <time>2018-01-19T14:06:45Z</time>
      </trkpt>
      <trkpt lat="47.83543" lon="-2.74703">
        <ele>-74.1</ele>
        <time>2018-01-19T14:06:46Z</time>
      </trkpt>
      <trkpt lat="47.83542" lon="-2.74706">
        <ele>-74.24</ele>
        <time>2018-01-19T14:06:47Z</time>
      </trkpt>
      <trkpt lat="47.83526" lon="-2.74737">
        <ele>-75.89</ele>
        <time>2018-01-19T14:06:59Z</time>
      </trkpt>
      <trkpt lat="47.83501" lon="-2.74773">
        <ele>-78.76</ele>
        <time>2018-01-19T14:07:17Z</time>
      </trkpt>
      <trkpt lat="47.83479" lon="-2.74815">
        <ele>-80.09</ele>
        <time>2018-01-19T14:07:37Z</time>
      </trkpt>
      <trkpt lat="47.8347" lon="-2.74852">
        <ele>-80.62</ele>
        <time>2018-01-19T14:07:52Z</time>
      </trkpt>
      <trkpt lat="47.83473" lon="-2.74891">
        <ele>-80.9</ele>
        <time>2018-01-19T14:08:07Z</time>
      </trkpt>
      <trkpt lat="47.83479" lon="-2.74936">
        <ele>-80.67</ele>
        <time>2018-01-19T14:08:24Z</time>
      </trkpt>
      <trkpt lat="47.83483" lon="-2.74978">
        <ele>-80.61</ele>
        <time>2018-01-19T14:08:40Z</time>
      </trkpt>
      <trkpt lat="47.83486" lon="-2.75011">
        <ele>-81.5</ele>
        <time>2018-01-19T14:08:54Z</time>
      </trkpt>
      <trkpt lat="47.83493" lon="-2.75046">
        <ele>-82.36</ele>
        <time>2018-01-19T14:09:09Z</time>
      </trkpt>
      <trkpt lat="47.83495" lon="-2.75058">
        <ele>-82.52</ele>
        <time>2018-01-19T14:09:15Z</time>
      </trkpt>
      <trkpt lat="47.83496" lon="-2.75062">
        <ele>-82.54</ele>
        <time>2018-01-19T14:09:16Z</time>
      </trkpt>
      <trkpt lat="47.835" lon="-2.75098">
        <ele>-82.49</ele>
        <time>2018-01-19T14:09:30Z</time>
      </trkpt>
      <trkpt lat="47.83497" lon="-2.75115">
        <ele>-82.08</ele>
        <time>2018-01-19T14:09:37Z</time>
      </trkpt>
      <trkpt lat="47.83496" lon="-2.75117">
        <ele>-82.04</ele>
        <time>2018-01-19T14:09:38Z</time>
      </trkpt>
      <trkpt lat="47.83494" lon="-2.75119">
        <ele>-81.97</ele>
        <time>2018-01-19T14:09:39Z</time>
      </trkpt>
      <trkpt lat="47.83493" lon="-2.7512">
        <ele>-81.9</ele>
        <time>2018-01-19T14:09:40Z</time>
      </trkpt>
      <trkpt lat="47.83491" lon="-2.75122">
        <ele>-81.88</ele>
        <time>2018-01-19T14:09:41Z</time>
      </trkpt>
      <trkpt lat="47.83489" lon="-2.75122">
        <ele>-81.86</ele>
        <time>2018-01-19T14:09:42Z</time>
      </trkpt>
      <trkpt lat="47.83488" lon="-2.75123">
        <ele>-81.85</ele>
        <time>2018-01-19T14:09:43Z</time>
      </trkpt>
      <trkpt lat="47.83486" lon="-2.75123">
        <ele>-81.85</ele>
        <time>2018-01-19T14:09:44Z</time>
      </trkpt>
      <trkpt lat="47.83454" lon="-2.75122">
        <ele>-82.24</ele>
        <time>2018-01-19T14:10:03Z</time>
      </trkpt>
      <trkpt lat="47.8343" lon="-2.75133">
        <ele>-83.15</ele>
        <time>2018-01-19T14:10:20Z</time>
      </trkpt>
      <trkpt lat="47.83431" lon="-2.75192">
        <ele>-83.88</ele>
        <time>2018-01-19T14:10:42Z</time>
      </trkpt>
      <trkpt lat="47.83433" lon="-2.75256">
        <ele>-83.46</ele>
        <time>2018-01-19T14:11:07Z</time>
      </trkpt>
      <trkpt lat="47.83435" lon="-2.75309">
        <ele>-82.74</ele>
        <time>2018-01-19T14:11:28Z</time>
      </trkpt>
      <trkpt lat="47.83437" lon="-2.75367">
        <ele>-82.25</ele>
        <time>2018-01-19T14:11:51Z</time>
      </trkpt>
      <trkpt lat="47.83438" lon="-2.75411">
        <ele>-81.95</ele>
        <time>2018-01-19T14:12:08Z</time>
      </trkpt>
      <trkpt lat="47.83439" lon="-2.75421">
        <ele>-82</ele>
        <time>2018-01-19T14:12:12Z</time>
      </trkpt>
      <trkpt lat="47.83432" lon="-2.75457">
        <ele>-81.86</ele>
        <time>2018-01-19T14:12:28Z</time>
      </trkpt>
      <trkpt lat="47.83412" lon="-2.75491">
        <ele>-80.86</ele>
        <time>2018-01-19T14:12:46Z</time>
      </trkpt>
      <trkpt lat="47.83389" lon="-2.75503">
        <ele>-79.4</ele>
        <time>2018-01-19T14:13:02Z</time>
      </trkpt>
      <trkpt lat="47.83369" lon="-2.75504">
        <ele>-77.16</ele>
        <time>2018-01-19T14:13:16Z</time>
      </trkpt>
      <trkpt lat="47.83352" lon="-2.75521">
        <ele>-76.91</ele>
        <time>2018-01-19T14:13:31Z</time>
      </trkpt>
      <trkpt lat="47.83344" lon="-2.7556">
        <ele>-76.52</ele>
        <time>2018-01-19T14:13:49Z</time>
      </trkpt>
      <trkpt lat="47.83329" lon="-2.756">
        <ele>-76.91</ele>
        <time>2018-01-19T14:14:06Z</time>
      </trkpt>
      <trkpt lat="47.83292" lon="-2.75594">
        <ele>-77.24</ele>
        <time>2018-01-19T14:14:18Z</time>
      </trkpt>
      <trkpt lat="47.83231" lon="-2.75575">
        <ele>-75.24</ele>
        <time>2018-01-19T14:14:29Z</time>
      </trkpt>
      <trkpt lat="47.83129" lon="-2.7554">
        <ele>-73.42</ele>
        <time>2018-01-19T14:14:42Z</time>
      </trkpt>
      <trkpt lat="47.83067" lon="-2.75517">
        <ele>-71.29</ele>
        <time>2018-01-19T14:14:50Z</time>
      </trkpt>
      <trkpt lat="47.83055" lon="-2.75511">
        <ele>-70.56</ele>
        <time>2018-01-19T14:14:52Z</time>
      </trkpt>
      <trkpt lat="47.83028" lon="-2.75487">
        <ele>-67.6</ele>
        <time>2018-01-19T14:14:58Z</time>
      </trkpt>
      <trkpt lat="47.8301" lon="-2.75456">
        <ele>-64.49</ele>
        <time>2018-01-19T14:15:08Z</time>
      </trkpt>
      <trkpt lat="47.83003" lon="-2.75424">
        <ele>-63.19</ele>
        <time>2018-01-19T14:15:19Z</time>
      </trkpt>
      <trkpt lat="47.82978" lon="-2.75415">
        <ele>-61.36</ele>
        <time>2018-01-19T14:15:34Z</time>
      </trkpt>
      <trkpt lat="47.8295" lon="-2.75404">
        <ele>-60.15</ele>
        <time>2018-01-19T14:15:53Z</time>
      </trkpt>
      <trkpt lat="47.82943" lon="-2.75403">
        <ele>-60.35</ele>
        <time>2018-01-19T14:16:08Z</time>
      </trkpt>
      <trkpt lat="47.82943" lon="-2.75405">
        <ele>-60.51</ele>
        <time>2018-01-19T14:16:32Z</time>
      </trkpt>
      <trkpt lat="47.82944" lon="-2.75406">
        <ele>-60.66</ele>
        <time>2018-01-19T14:17:11Z</time>
      </trkpt>
      <trkpt lat="47.82943" lon="-2.75404">
        <ele>-60.59</ele>
        <time>2018-01-19T14:17:17Z</time>
      </trkpt>
      <trkpt lat="47.82942" lon="-2.75403">
        <ele>-60.56</ele>
        <time>2018-01-19T14:17:18Z</time>
      </trkpt>
      <trkpt lat="47.8294" lon="-2.75402">
        <ele>-60.54</ele>
        <time>2018-01-19T14:17:19Z</time>
      </trkpt>
      <trkpt lat="47.82939" lon="-2.75401">
        <ele>-60.53</ele>
        <time>2018-01-19T14:17:20Z</time>
      </trkpt>
      <trkpt lat="47.82938" lon="-2.754">
        <ele>-60.53</ele>
        <time>2018-01-19T14:17:21Z</time>
      </trkpt>
      <trkpt lat="47.82916" lon="-2.75388">
        <ele>-60.78</ele>
        <time>2018-01-19T14:17:36Z</time>
      </trkpt>
      <trkpt lat="47.82894" lon="-2.75378">
        <ele>-61.42</ele>
        <time>2018-01-19T14:17:51Z</time>
      </trkpt>
      <trkpt lat="47.82862" lon="-2.75362">
        <ele>-62.36</ele>
        <time>2018-01-19T14:18:12Z</time>
      </trkpt>
      <trkpt lat="47.82833" lon="-2.75353">
        <ele>-63.46</ele>
        <time>2018-01-19T14:18:30Z</time>
      </trkpt>
      <trkpt lat="47.82813" lon="-2.75378">
        <ele>-63.32</ele>
        <time>2018-01-19T14:18:47Z</time>
      </trkpt>
      <trkpt lat="47.82792" lon="-2.75394">
        <ele>-62.54</ele>
        <time>2018-01-19T14:19:02Z</time>
      </trkpt>
      <trkpt lat="47.8276" lon="-2.75399">
        <ele>-61.75</ele>
        <time>2018-01-19T14:19:21Z</time>
      </trkpt>
      <trkpt lat="47.82752" lon="-2.754">
        <ele>-61.67</ele>
        <time>2018-01-19T14:19:26Z</time>
      </trkpt>
      <trkpt lat="47.82751" lon="-2.754">
        <ele>-61.65</ele>
        <time>2018-01-19T14:19:27Z</time>
      </trkpt>
      <trkpt lat="47.82727" lon="-2.75398">
        <ele>-61.35</ele>
        <time>2018-01-19T14:19:43Z</time>
      </trkpt>
      <trkpt lat="47.82701" lon="-2.75398">
        <ele>-60.85</ele>
        <time>2018-01-19T14:19:59Z</time>
      </trkpt>
      <trkpt lat="47.82672" lon="-2.75399">
        <ele>-60.45</ele>
        <time>2018-01-19T14:20:16Z</time>
      </trkpt>
      <trkpt lat="47.82634" lon="-2.75411">
        <ele>-59.93</ele>
        <time>2018-01-19T14:20:38Z</time>
      </trkpt>
      <trkpt lat="47.826" lon="-2.75432">
        <ele>-59.23</ele>
        <time>2018-01-19T14:20:59Z</time>
      </trkpt>
      <trkpt lat="47.82579" lon="-2.75454">
        <ele>-59.22</ele>
        <time>2018-01-19T14:21:14Z</time>
      </trkpt>
      <trkpt lat="47.82561" lon="-2.75482">
        <ele>-59.74</ele>
        <time>2018-01-19T14:21:30Z</time>
      </trkpt>
      <trkpt lat="47.8254" lon="-2.75521">
        <ele>-59.69</ele>
        <time>2018-01-19T14:21:48Z</time>
      </trkpt>
      <trkpt lat="47.8252" lon="-2.75557">
        <ele>-59.33</ele>
        <time>2018-01-19T14:22:06Z</time>
      </trkpt>
      <trkpt lat="47.825" lon="-2.75596">
        <ele>-59.33</ele>
        <time>2018-01-19T14:22:26Z</time>
      </trkpt>
      <trkpt lat="47.8248" lon="-2.75634">
        <ele>-59.44</ele>
        <time>2018-01-19T14:22:45Z</time>
      </trkpt>
      <trkpt lat="47.82458" lon="-2.75677">
        <ele>-59.11</ele>
        <time>2018-01-19T14:23:06Z</time>
      </trkpt>
      <trkpt lat="47.82433" lon="-2.75723">
        <ele>-58.97</ele>
        <time>2018-01-19T14:23:29Z</time>
      </trkpt>
      <trkpt lat="47.82409" lon="-2.75763">
        <ele>-59.12</ele>
        <time>2018-01-19T14:23:50Z</time>
      </trkpt>
      <trkpt lat="47.82377" lon="-2.75801">
        <ele>-59.51</ele>
        <time>2018-01-19T14:24:14Z</time>
      </trkpt>
      <trkpt lat="47.82344" lon="-2.75838">
        <ele>-60.27</ele>
        <time>2018-01-19T14:24:38Z</time>
      </trkpt>
      <trkpt lat="47.82312" lon="-2.75872">
        <ele>-61.6</ele>
        <time>2018-01-19T14:25:01Z</time>
      </trkpt>
      <trkpt lat="47.82305" lon="-2.75903">
        <ele>-62.32</ele>
        <time>2018-01-19T14:25:16Z</time>
      </trkpt>
      <trkpt lat="47.82331" lon="-2.75929">
        <ele>-62.79</ele>
        <time>2018-01-19T14:25:34Z</time>
      </trkpt>
      <trkpt lat="47.82355" lon="-2.7595">
        <ele>-62.92</ele>
        <time>2018-01-19T14:25:50Z</time>
      </trkpt>
      <trkpt lat="47.82384" lon="-2.75977">
        <ele>-62.89</ele>
        <time>2018-01-19T14:26:10Z</time>
      </trkpt>
      <trkpt lat="47.82412" lon="-2.76003">
        <ele>-63.29</ele>
        <time>2018-01-19T14:26:29Z</time>
      </trkpt>
      <trkpt lat="47.82443" lon="-2.76029">
        <ele>-64.11</ele>
        <time>2018-01-19T14:26:49Z</time>
      </trkpt>
      <trkpt lat="47.82469" lon="-2.76052">
        <ele>-64.62</ele>
        <time>2018-01-19T14:27:06Z</time>
      </trkpt>
      <trkpt lat="47.82477" lon="-2.7606">
        <ele>-64.92</ele>
        <time>2018-01-19T14:27:12Z</time>
      </trkpt>
      <trkpt lat="47.82477" lon="-2.76062">
        <ele>-64.98</ele>
        <time>2018-01-19T14:27:13Z</time>
      </trkpt>
      <trkpt lat="47.82492" lon="-2.76086">
        <ele>-66.49</ele>
        <time>2018-01-19T14:27:25Z</time>
      </trkpt>
      <trkpt lat="47.82511" lon="-2.76125">
        <ele>-66.96</ele>
        <time>2018-01-19T14:27:44Z</time>
      </trkpt>
      <trkpt lat="47.82519" lon="-2.76167">
        <ele>-67.87</ele>
        <time>2018-01-19T14:28:01Z</time>
      </trkpt>
      <trkpt lat="47.82522" lon="-2.76204">
        <ele>-68.38</ele>
        <time>2018-01-19T14:28:17Z</time>
      </trkpt>
      <trkpt lat="47.82525" lon="-2.76244">
        <ele>-69.99</ele>
        <time>2018-01-19T14:28:33Z</time>
      </trkpt>
      <trkpt lat="47.82525" lon="-2.76253">
        <ele>-70.46</ele>
        <time>2018-01-19T14:28:45Z</time>
      </trkpt>
      <trkpt lat="47.82526" lon="-2.76264">
        <ele>-70.44</ele>
        <time>2018-01-19T14:28:51Z</time>
      </trkpt>
      <trkpt lat="47.82526" lon="-2.76267">
        <ele>-70.53</ele>
        <time>2018-01-19T14:28:52Z</time>
      </trkpt>
      <trkpt lat="47.82528" lon="-2.76323">
        <ele>-71.45</ele>
        <time>2018-01-19T14:29:05Z</time>
      </trkpt>
      <trkpt lat="47.82526" lon="-2.76411">
        <ele>-72.93</ele>
        <time>2018-01-19T14:29:16Z</time>
      </trkpt>
      <trkpt lat="47.82519" lon="-2.76464">
        <ele>-73.17</ele>
        <time>2018-01-19T14:29:29Z</time>
      </trkpt>
      <trkpt lat="47.82501" lon="-2.76472">
        <ele>-72.23</ele>
        <time>2018-01-19T14:29:42Z</time>
      </trkpt>
      <trkpt lat="47.82482" lon="-2.76474">
        <ele>-71.7</ele>
        <time>2018-01-19T14:29:56Z</time>
      </trkpt>
      <trkpt lat="47.82459" lon="-2.76474">
        <ele>-69.74</ele>
        <time>2018-01-19T14:30:11Z</time>
      </trkpt>
      <trkpt lat="47.82438" lon="-2.76474">
        <ele>-67.96</ele>
        <time>2018-01-19T14:30:26Z</time>
      </trkpt>
      <trkpt lat="47.82401" lon="-2.76468">
        <ele>-65.67</ele>
        <time>2018-01-19T14:30:45Z</time>
      </trkpt>
      <trkpt lat="47.82366" lon="-2.76465">
        <ele>-64.08</ele>
        <time>2018-01-19T14:31:04Z</time>
      </trkpt>
      <trkpt lat="47.82338" lon="-2.76464">
        <ele>-62.65</ele>
        <time>2018-01-19T14:31:21Z</time>
      </trkpt>
      <trkpt lat="47.82306" lon="-2.76465">
        <ele>-61.32</ele>
        <time>2018-01-19T14:31:40Z</time>
      </trkpt>
      <trkpt lat="47.82269" lon="-2.76463">
        <ele>-60.16</ele>
        <time>2018-01-19T14:32:00Z</time>
      </trkpt>
      <trkpt lat="47.82242" lon="-2.76463">
        <ele>-58.67</ele>
        <time>2018-01-19T14:32:16Z</time>
      </trkpt>
      <trkpt lat="47.82212" lon="-2.76462">
        <ele>-56.78</ele>
        <time>2018-01-19T14:32:33Z</time>
      </trkpt>
      <trkpt lat="47.82183" lon="-2.76462">
        <ele>-54.65</ele>
        <time>2018-01-19T14:32:53Z</time>
      </trkpt>
      <trkpt lat="47.82155" lon="-2.76461">
        <ele>-52.47</ele>
        <time>2018-01-19T14:33:11Z</time>
      </trkpt>
      <trkpt lat="47.82126" lon="-2.76459">
        <ele>-51.1</ele>
        <time>2018-01-19T14:33:29Z</time>
      </trkpt>
      <trkpt lat="47.821" lon="-2.76459">
        <ele>-50.6</ele>
        <time>2018-01-19T14:33:44Z</time>
      </trkpt>
      <trkpt lat="47.82068" lon="-2.76455">
        <ele>-49.86</ele>
        <time>2018-01-19T14:34:04Z</time>
      </trkpt>
      <trkpt lat="47.82029" lon="-2.76455">
        <ele>-50.2</ele>
        <time>2018-01-19T14:34:26Z</time>
      </trkpt>
      <trkpt lat="47.81994" lon="-2.76452">
        <ele>-49.63</ele>
        <time>2018-01-19T14:34:47Z</time>
      </trkpt>
      <trkpt lat="47.81959" lon="-2.7645">
        <ele>-49.04</ele>
        <time>2018-01-19T14:35:07Z</time>
      </trkpt>
      <trkpt lat="47.8193" lon="-2.76449">
        <ele>-48.84</ele>
        <time>2018-01-19T14:35:25Z</time>
      </trkpt>
      <trkpt lat="47.81895" lon="-2.76448">
        <ele>-48.56</ele>
        <time>2018-01-19T14:35:46Z</time>
      </trkpt>
      <trkpt lat="47.81871" lon="-2.76455">
        <ele>-48.58</ele>
        <time>2018-01-19T14:36:04Z</time>
      </trkpt>
      <trkpt lat="47.81869" lon="-2.76491">
        <ele>-46.96</ele>
        <time>2018-01-19T14:36:20Z</time>
      </trkpt>
      <trkpt lat="47.81867" lon="-2.7653">
        <ele>-45.3</ele>
        <time>2018-01-19T14:36:36Z</time>
      </trkpt>
      <trkpt lat="47.81864" lon="-2.76563">
        <ele>-43.86</ele>
        <time>2018-01-19T14:36:49Z</time>
      </trkpt>
      <trkpt lat="47.81861" lon="-2.76598">
        <ele>-42.1</ele>
        <time>2018-01-19T14:37:04Z</time>
      </trkpt>
      <trkpt lat="47.81854" lon="-2.76644">
        <ele>-40.46</ele>
        <time>2018-01-19T14:37:22Z</time>
      </trkpt>
      <trkpt lat="47.81849" lon="-2.76684">
        <ele>-39.25</ele>
        <time>2018-01-19T14:37:38Z</time>
      </trkpt>
      <trkpt lat="47.81848" lon="-2.76701">
        <ele>-38.75</ele>
        <time>2018-01-19T14:37:46Z</time>
      </trkpt>
      <trkpt lat="47.81847" lon="-2.76703">
        <ele>-38.71</ele>
        <time>2018-01-19T14:37:47Z</time>
      </trkpt>
      <trkpt lat="47.81847" lon="-2.76705">
        <ele>-38.64</ele>
        <time>2018-01-19T14:37:48Z</time>
      </trkpt>
      <trkpt lat="47.81845" lon="-2.76711">
        <ele>-38.29</ele>
        <time>2018-01-19T14:37:51Z</time>
      </trkpt>
      <trkpt lat="47.81844" lon="-2.76712">
        <ele>-38.29</ele>
        <time>2018-01-19T14:37:52Z</time>
      </trkpt>
      <trkpt lat="47.81843" lon="-2.76714">
        <ele>-38.08</ele>
        <time>2018-01-19T14:37:53Z</time>
      </trkpt>
      <trkpt lat="47.81842" lon="-2.76714">
        <ele>-38.01</ele>
        <time>2018-01-19T14:37:54Z</time>
      </trkpt>
      <trkpt lat="47.8184" lon="-2.76715">
        <ele>-37.95</ele>
        <time>2018-01-19T14:37:55Z</time>
      </trkpt>
      <trkpt lat="47.81839" lon="-2.76715">
        <ele>-37.91</ele>
        <time>2018-01-19T14:37:56Z</time>
      </trkpt>
      <trkpt lat="47.81837" lon="-2.76716">
        <ele>-37.88</ele>
        <time>2018-01-19T14:37:57Z</time>
      </trkpt>
      <trkpt lat="47.81836" lon="-2.76716">
        <ele>-37.89</ele>
        <time>2018-01-19T14:37:58Z</time>
      </trkpt>
      <trkpt lat="47.81834" lon="-2.76715">
        <ele>-37.93</ele>
        <time>2018-01-19T14:37:59Z</time>
      </trkpt>
      <trkpt lat="47.81833" lon="-2.76715">
        <ele>-37.97</ele>
        <time>2018-01-19T14:38:00Z</time>
      </trkpt>
      <trkpt lat="47.81831" lon="-2.76714">
        <ele>-38</ele>
        <time>2018-01-19T14:38:01Z</time>
      </trkpt>
      <trkpt lat="47.8183" lon="-2.76714">
        <ele>-38.02</ele>
        <time>2018-01-19T14:38:02Z</time>
      </trkpt>
      <trkpt lat="47.81829" lon="-2.76713">
        <ele>-38.05</ele>
        <time>2018-01-19T14:38:03Z</time>
      </trkpt>
      <trkpt lat="47.81827" lon="-2.76712">
        <ele>-38.08</ele>
        <time>2018-01-19T14:38:04Z</time>
      </trkpt>
      <trkpt lat="47.81804" lon="-2.76701">
        <ele>-38.55</ele>
        <time>2018-01-19T14:38:20Z</time>
      </trkpt>
      <trkpt lat="47.81802" lon="-2.76701">
        <ele>-38.62</ele>
        <time>2018-01-19T14:38:21Z</time>
      </trkpt>
      <trkpt lat="47.81801" lon="-2.76702">
        <ele>-38.7</ele>
        <time>2018-01-19T14:38:22Z</time>
      </trkpt>
      <trkpt lat="47.818" lon="-2.76704">
        <ele>-38.76</ele>
        <time>2018-01-19T14:38:23Z</time>
      </trkpt>
      <trkpt lat="47.818" lon="-2.76706">
        <ele>-38.85</ele>
        <time>2018-01-19T14:38:24Z</time>
      </trkpt>
      <trkpt lat="47.81799" lon="-2.76708">
        <ele>-38.93</ele>
        <time>2018-01-19T14:38:25Z</time>
      </trkpt>
      <trkpt lat="47.81792" lon="-2.76746">
        <ele>-39.78</ele>
        <time>2018-01-19T14:38:41Z</time>
      </trkpt>
      <trkpt lat="47.81792" lon="-2.76751">
        <ele>-39.76</ele>
        <time>2018-01-19T14:38:43Z</time>
      </trkpt>
      <trkpt lat="47.81791" lon="-2.76752">
        <ele>-39.77</ele>
        <time>2018-01-19T14:38:44Z</time>
      </trkpt>
      <trkpt lat="47.8179" lon="-2.76754">
        <ele>-39.82</ele>
        <time>2018-01-19T14:38:45Z</time>
      </trkpt>
      <trkpt lat="47.81767" lon="-2.76777">
        <ele>-41.34</ele>
        <time>2018-01-19T14:39:01Z</time>
      </trkpt>
      <trkpt lat="47.81749" lon="-2.76792">
        <ele>-43.24</ele>
        <time>2018-01-19T14:39:14Z</time>
      </trkpt>
      <trkpt lat="47.81723" lon="-2.76812">
        <ele>-45.36</ele>
        <time>2018-01-19T14:39:31Z</time>
      </trkpt>
      <trkpt lat="47.81702" lon="-2.76828">
        <ele>-46.66</ele>
        <time>2018-01-19T14:39:46Z</time>
      </trkpt>
      <trkpt lat="47.81675" lon="-2.76842">
        <ele>-47.94</ele>
        <time>2018-01-19T14:40:03Z</time>
      </trkpt>
      <trkpt lat="47.81647" lon="-2.76839">
        <ele>-48.88</ele>
        <time>2018-01-19T14:40:20Z</time>
      </trkpt>
      <trkpt lat="47.81621" lon="-2.76827">
        <ele>-49.92</ele>
        <time>2018-01-19T14:40:36Z</time>
      </trkpt>
      <trkpt lat="47.81588" lon="-2.76813">
        <ele>-51.15</ele>
        <time>2018-01-19T14:40:55Z</time>
      </trkpt>
      <trkpt lat="47.81559" lon="-2.7681">
        <ele>-52.41</ele>
        <time>2018-01-19T14:41:11Z</time>
      </trkpt>
      <trkpt lat="47.81539" lon="-2.76812">
        <ele>-53.14</ele>
        <time>2018-01-19T14:41:24Z</time>
      </trkpt>
      <trkpt lat="47.81515" lon="-2.76817">
        <ele>-52.96</ele>
        <time>2018-01-19T14:41:38Z</time>
      </trkpt>
      <trkpt lat="47.81487" lon="-2.76828">
        <ele>-50.29</ele>
        <time>2018-01-19T14:41:55Z</time>
      </trkpt>
      <trkpt lat="47.81486" lon="-2.76829">
        <ele>-50.18</ele>
        <time>2018-01-19T14:41:56Z</time>
      </trkpt>
      <trkpt lat="47.81486" lon="-2.7683">
        <ele>-50.08</ele>
        <time>2018-01-19T14:41:57Z</time>
      </trkpt>
      <trkpt lat="47.81485" lon="-2.76832">
        <ele>-50</ele>
        <time>2018-01-19T14:41:58Z</time>
      </trkpt>
      <trkpt lat="47.81484" lon="-2.76833">
        <ele>-49.89</ele>
        <time>2018-01-19T14:41:59Z</time>
      </trkpt>
      <trkpt lat="47.81483" lon="-2.76834">
        <ele>-49.74</ele>
        <time>2018-01-19T14:42:00Z</time>
      </trkpt>
      <trkpt lat="47.81482" lon="-2.76835">
        <ele>-49.48</ele>
        <time>2018-01-19T14:42:01Z</time>
      </trkpt>
      <trkpt lat="47.81481" lon="-2.76836">
        <ele>-49.35</ele>
        <time>2018-01-19T14:42:02Z</time>
      </trkpt>
      <trkpt lat="47.81477" lon="-2.7684">
        <ele>-49.12</ele>
        <time>2018-01-19T14:42:05Z</time>
      </trkpt>
      <trkpt lat="47.81477" lon="-2.76841">
        <ele>-49.07</ele>
        <time>2018-01-19T14:42:06Z</time>
      </trkpt>
      <trkpt lat="47.81475" lon="-2.76842">
        <ele>-49</ele>
        <time>2018-01-19T14:42:07Z</time>
      </trkpt>
      <trkpt lat="47.81474" lon="-2.76844">
        <ele>-48.91</ele>
        <time>2018-01-19T14:42:08Z</time>
      </trkpt>
      <trkpt lat="47.81472" lon="-2.76844">
        <ele>-48.81</ele>
        <time>2018-01-19T14:42:09Z</time>
      </trkpt>
      <trkpt lat="47.8147" lon="-2.76845">
        <ele>-48.72</ele>
        <time>2018-01-19T14:42:10Z</time>
      </trkpt>
      <trkpt lat="47.81444" lon="-2.76853">
        <ele>-47.93</ele>
        <time>2018-01-19T14:42:23Z</time>
      </trkpt>
      <trkpt lat="47.81418" lon="-2.76866">
        <ele>-46.36</ele>
        <time>2018-01-19T14:42:40Z</time>
      </trkpt>
      <trkpt lat="47.8141" lon="-2.7687">
        <ele>-46.15</ele>
        <time>2018-01-19T14:42:45Z</time>
      </trkpt>
      <trkpt lat="47.81408" lon="-2.7687">
        <ele>-46.03</ele>
        <time>2018-01-19T14:42:46Z</time>
      </trkpt>
      <trkpt lat="47.81389" lon="-2.76878">
        <ele>-43.77</ele>
        <time>2018-01-19T14:43:01Z</time>
      </trkpt>
      <trkpt lat="47.8138" lon="-2.76883">
        <ele>-42.79</ele>
        <time>2018-01-19T14:43:08Z</time>
      </trkpt>
      <trkpt lat="47.81359" lon="-2.76896">
        <ele>-40.67</ele>
        <time>2018-01-19T14:43:23Z</time>
      </trkpt>
      <trkpt lat="47.81339" lon="-2.76906">
        <ele>-38.35</ele>
        <time>2018-01-19T14:43:37Z</time>
      </trkpt>
      <trkpt lat="47.81333" lon="-2.76912">
        <ele>-37.45</ele>
        <time>2018-01-19T14:43:42Z</time>
      </trkpt>
      <trkpt lat="47.81333" lon="-2.76913">
        <ele>-37.27</ele>
        <time>2018-01-19T14:43:43Z</time>
      </trkpt>
      <trkpt lat="47.81333" lon="-2.76913">
        <ele>-37.09</ele>
        <time>2018-01-19T14:43:44Z</time>
      </trkpt>
      <trkpt lat="47.81332" lon="-2.76914">
        <ele>-36.94</ele>
        <time>2018-01-19T14:43:45Z</time>
      </trkpt>
      <trkpt lat="47.81333" lon="-2.76916">
        <ele>-36.8</ele>
        <time>2018-01-19T14:43:46Z</time>
      </trkpt>
      <trkpt lat="47.81333" lon="-2.76917">
        <ele>-36.68</ele>
        <time>2018-01-19T14:43:47Z</time>
      </trkpt>
      <trkpt lat="47.81332" lon="-2.7692">
        <ele>-36.57</ele>
        <time>2018-01-19T14:43:48Z</time>
      </trkpt>
      <trkpt lat="47.81332" lon="-2.76923">
        <ele>-36.48</ele>
        <time>2018-01-19T14:43:49Z</time>
      </trkpt>
      <trkpt lat="47.81332" lon="-2.76926">
        <ele>-36.39</ele>
        <time>2018-01-19T14:43:50Z</time>
      </trkpt>
      <trkpt lat="47.81331" lon="-2.76929">
        <ele>-36.31</ele>
        <time>2018-01-19T14:43:51Z</time>
      </trkpt>
      <trkpt lat="47.81332" lon="-2.76931">
        <ele>-36.24</ele>
        <time>2018-01-19T14:43:52Z</time>
      </trkpt>
      <trkpt lat="47.81332" lon="-2.76933">
        <ele>-36.21</ele>
        <time>2018-01-19T14:43:53Z</time>
      </trkpt>
      <trkpt lat="47.81332" lon="-2.76935">
        <ele>-36.22</ele>
        <time>2018-01-19T14:43:54Z</time>
      </trkpt>
      <trkpt lat="47.81331" lon="-2.76936">
        <ele>-36.29</ele>
        <time>2018-01-19T14:43:55Z</time>
      </trkpt>
      <trkpt lat="47.81324" lon="-2.76961">
        <ele>-38.54</ele>
        <time>2018-01-19T14:44:07Z</time>
      </trkpt>
      <trkpt lat="47.81325" lon="-2.76991">
        <ele>-41.25</ele>
        <time>2018-01-19T14:44:19Z</time>
      </trkpt>
      <trkpt lat="47.81324" lon="-2.76994">
        <ele>-41.42</ele>
        <time>2018-01-19T14:44:20Z</time>
      </trkpt>
      <trkpt lat="47.81324" lon="-2.77002">
        <ele>-42.09</ele>
        <time>2018-01-19T14:44:23Z</time>
      </trkpt>
      <trkpt lat="47.81325" lon="-2.77004">
        <ele>-42.35</ele>
        <time>2018-01-19T14:44:24Z</time>
      </trkpt>
      <trkpt lat="47.81325" lon="-2.77009">
        <ele>-42.87</ele>
        <time>2018-01-19T14:44:26Z</time>
      </trkpt>
      <trkpt lat="47.81326" lon="-2.77013">
        <ele>-43.45</ele>
        <time>2018-01-19T14:44:27Z</time>
      </trkpt>
      <trkpt lat="47.81328" lon="-2.77044">
        <ele>-45.15</ele>
        <time>2018-01-19T14:44:38Z</time>
      </trkpt>
      <trkpt lat="47.81329" lon="-2.77081">
        <ele>-45.7</ele>
        <time>2018-01-19T14:44:51Z</time>
      </trkpt>
      <trkpt lat="47.81332" lon="-2.77108">
        <ele>-45.81</ele>
        <time>2018-01-19T14:45:03Z</time>
      </trkpt>
      <trkpt lat="47.81334" lon="-2.77118">
        <ele>-45.84</ele>
        <time>2018-01-19T14:45:07Z</time>
      </trkpt>
      <trkpt lat="47.81334" lon="-2.77119">
        <ele>-45.84</ele>
        <time>2018-01-19T14:45:08Z</time>
      </trkpt>
      <trkpt lat="47.81334" lon="-2.77122">
        <ele>-45.84</ele>
        <time>2018-01-19T14:45:09Z</time>
      </trkpt>
      <trkpt lat="47.81335" lon="-2.77124">
        <ele>-45.83</ele>
        <time>2018-01-19T14:45:10Z</time>
      </trkpt>
      <trkpt lat="47.81336" lon="-2.77126">
        <ele>-45.84</ele>
        <time>2018-01-19T14:45:11Z</time>
      </trkpt>
      <trkpt lat="47.81339" lon="-2.77139">
        <ele>-46.05</ele>
        <time>2018-01-19T14:45:17Z</time>
      </trkpt>
      <trkpt lat="47.8134" lon="-2.77155">
        <ele>-46.05</ele>
        <time>2018-01-19T14:45:28Z</time>
      </trkpt>
      <trkpt lat="47.8134" lon="-2.77162">
        <ele>-46.17</ele>
        <time>2018-01-19T14:45:31Z</time>
      </trkpt>
      <trkpt lat="47.8134" lon="-2.77164">
        <ele>-46.2</ele>
        <time>2018-01-19T14:45:32Z</time>
      </trkpt>
      <trkpt lat="47.81341" lon="-2.77186">
        <ele>-47.22</ele>
        <time>2018-01-19T14:45:44Z</time>
      </trkpt>
      <trkpt lat="47.81341" lon="-2.77193">
        <ele>-47.53</ele>
        <time>2018-01-19T14:45:47Z</time>
      </trkpt>
      <trkpt lat="47.8134" lon="-2.77214">
        <ele>-48.42</ele>
        <time>2018-01-19T14:45:57Z</time>
      </trkpt>
      <trkpt lat="47.81338" lon="-2.7722">
        <ele>-48.69</ele>
        <time>2018-01-19T14:46:01Z</time>
      </trkpt>
      <trkpt lat="47.81338" lon="-2.77223">
        <ele>-48.75</ele>
        <time>2018-01-19T14:46:02Z</time>
      </trkpt>
      <trkpt lat="47.81337" lon="-2.77225">
        <ele>-48.8</ele>
        <time>2018-01-19T14:46:03Z</time>
      </trkpt>
      <trkpt lat="47.81337" lon="-2.77226">
        <ele>-48.87</ele>
        <time>2018-01-19T14:46:04Z</time>
      </trkpt>
      <trkpt lat="47.81334" lon="-2.77232">
        <ele>-49.32</ele>
        <time>2018-01-19T14:46:08Z</time>
      </trkpt>
      <trkpt lat="47.81333" lon="-2.77234">
        <ele>-49.34</ele>
        <time>2018-01-19T14:46:09Z</time>
      </trkpt>
      <trkpt lat="47.81324" lon="-2.77257">
        <ele>-49.88</ele>
        <time>2018-01-19T14:46:16Z</time>
      </trkpt>
      <trkpt lat="47.81322" lon="-2.77259">
        <ele>-49.97</ele>
        <time>2018-01-19T14:46:17Z</time>
      </trkpt>
      <trkpt lat="47.8132" lon="-2.77263">
        <ele>-50.04</ele>
        <time>2018-01-19T14:46:18Z</time>
      </trkpt>
      <trkpt lat="47.81319" lon="-2.77265">
        <ele>-50.05</ele>
        <time>2018-01-19T14:46:19Z</time>
      </trkpt>
      <trkpt lat="47.81316" lon="-2.77269">
        <ele>-50.07</ele>
        <time>2018-01-19T14:46:20Z</time>
      </trkpt>
      <trkpt lat="47.81314" lon="-2.77273">
        <ele>-50.09</ele>
        <time>2018-01-19T14:46:21Z</time>
      </trkpt>
      <trkpt lat="47.81287" lon="-2.77292">
        <ele>-49.5</ele>
        <time>2018-01-19T14:46:31Z</time>
      </trkpt>
      <trkpt lat="47.81255" lon="-2.77301">
        <ele>-47.87</ele>
        <time>2018-01-19T14:46:40Z</time>
      </trkpt>
      <trkpt lat="47.81242" lon="-2.773">
        <ele>-46.96</ele>
        <time>2018-01-19T14:46:44Z</time>
      </trkpt>
      <trkpt lat="47.81239" lon="-2.773">
        <ele>-46.69</ele>
        <time>2018-01-19T14:46:45Z</time>
      </trkpt>
      <trkpt lat="47.81206" lon="-2.77306">
        <ele>-44.06</ele>
        <time>2018-01-19T14:46:55Z</time>
      </trkpt>
      <trkpt lat="47.81185" lon="-2.7732">
        <ele>-42.49</ele>
        <time>2018-01-19T14:47:11Z</time>
      </trkpt>
      <trkpt lat="47.81169" lon="-2.77319">
        <ele>-42.05</ele>
        <time>2018-01-19T14:47:30Z</time>
      </trkpt>
      <trkpt lat="47.81161" lon="-2.77313">
        <ele>-40.85</ele>
        <time>2018-01-19T14:47:42Z</time>
      </trkpt>
      <trkpt lat="47.81155" lon="-2.77317">
        <ele>-40.63</ele>
        <time>2018-01-19T14:47:47Z</time>
      </trkpt>
      <trkpt lat="47.81153" lon="-2.77318">
        <ele>-40.53</ele>
        <time>2018-01-19T14:47:48Z</time>
      </trkpt>
      <trkpt lat="47.8115" lon="-2.7732">
        <ele>-40.08</ele>
        <time>2018-01-19T14:47:55Z</time>
      </trkpt>
      <trkpt lat="47.8115" lon="-2.77323">
        <ele>-40</ele>
        <time>2018-01-19T14:47:56Z</time>
      </trkpt>
      <trkpt lat="47.8115" lon="-2.77325">
        <ele>-39.92</ele>
        <time>2018-01-19T14:47:57Z</time>
      </trkpt>
      <trkpt lat="47.81147" lon="-2.77325">
        <ele>-39.81</ele>
        <time>2018-01-19T14:47:59Z</time>
      </trkpt>
      <trkpt lat="47.81147" lon="-2.77339">
        <ele>-39.66</ele>
        <time>2018-01-19T14:48:07Z</time>
      </trkpt>
      <trkpt lat="47.81147" lon="-2.77341">
        <ele>-39.65</ele>
        <time>2018-01-19T14:48:08Z</time>
      </trkpt>
      <trkpt lat="47.81147" lon="-2.77343">
        <ele>-39.63</ele>
        <time>2018-01-19T14:48:09Z</time>
      </trkpt>
      <trkpt lat="47.81147" lon="-2.77346">
        <ele>-39.61</ele>
        <time>2018-01-19T14:48:10Z</time>
      </trkpt>
      <trkpt lat="47.81147" lon="-2.77348">
        <ele>-39.56</ele>
        <time>2018-01-19T14:48:11Z</time>
      </trkpt>
      <trkpt lat="47.81147" lon="-2.77351">
        <ele>-39.49</ele>
        <time>2018-01-19T14:48:12Z</time>
      </trkpt>
      <trkpt lat="47.81147" lon="-2.77353">
        <ele>-39.39</ele>
        <time>2018-01-19T14:48:13Z</time>
      </trkpt>
      <trkpt lat="47.81146" lon="-2.77355">
        <ele>-39.31</ele>
        <time>2018-01-19T14:48:14Z</time>
      </trkpt>
      <trkpt lat="47.81145" lon="-2.77357">
        <ele>-39.24</ele>
        <time>2018-01-19T14:48:15Z</time>
      </trkpt>
      <trkpt lat="47.81144" lon="-2.7736">
        <ele>-39.17</ele>
        <time>2018-01-19T14:48:16Z</time>
      </trkpt>
      <trkpt lat="47.81141" lon="-2.77363">
        <ele>-39.03</ele>
        <time>2018-01-19T14:48:18Z</time>
      </trkpt>
      <trkpt lat="47.8114" lon="-2.77365">
        <ele>-38.99</ele>
        <time>2018-01-19T14:48:19Z</time>
      </trkpt>
      <trkpt lat="47.81139" lon="-2.77367">
        <ele>-38.94</ele>
        <time>2018-01-19T14:48:20Z</time>
      </trkpt>
      <trkpt lat="47.81138" lon="-2.77369">
        <ele>-38.89</ele>
        <time>2018-01-19T14:48:21Z</time>
      </trkpt>
      <trkpt lat="47.81137" lon="-2.77393">
        <ele>-38.01</ele>
        <time>2018-01-19T14:48:34Z</time>
      </trkpt>
      <trkpt lat="47.81139" lon="-2.77401">
        <ele>-35.97</ele>
        <time>2018-01-19T14:48:40Z</time>
      </trkpt>
      <trkpt lat="47.8114" lon="-2.77403">
        <ele>-35.76</ele>
        <time>2018-01-19T14:48:41Z</time>
      </trkpt>
      <trkpt lat="47.81142" lon="-2.77409">
        <ele>-35.14</ele>
        <time>2018-01-19T14:48:44Z</time>
      </trkpt>
      <trkpt lat="47.81142" lon="-2.77411">
        <ele>-34.86</ele>
        <time>2018-01-19T14:48:45Z</time>
      </trkpt>
      <trkpt lat="47.81143" lon="-2.77419">
        <ele>-33.69</ele>
        <time>2018-01-19T14:48:49Z</time>
      </trkpt>
      <trkpt lat="47.8114" lon="-2.77441">
        <ele>-32.36</ele>
        <time>2018-01-19T14:49:01Z</time>
      </trkpt>
      <trkpt lat="47.81137" lon="-2.77463">
        <ele>-31.84</ele>
        <time>2018-01-19T14:49:10Z</time>
      </trkpt>
      <trkpt lat="47.81137" lon="-2.77471">
        <ele>-31.9</ele>
        <time>2018-01-19T14:49:13Z</time>
      </trkpt>
      <trkpt lat="47.81137" lon="-2.77474">
        <ele>-31.99</ele>
        <time>2018-01-19T14:49:14Z</time>
      </trkpt>
      <trkpt lat="47.81137" lon="-2.77476">
        <ele>-32.09</ele>
        <time>2018-01-19T14:49:15Z</time>
      </trkpt>
      <trkpt lat="47.81137" lon="-2.77479">
        <ele>-32.15</ele>
        <time>2018-01-19T14:49:16Z</time>
      </trkpt>
      <trkpt lat="47.81138" lon="-2.77482">
        <ele>-32.28</ele>
        <time>2018-01-19T14:49:18Z</time>
      </trkpt>
      <trkpt lat="47.81144" lon="-2.77516">
        <ele>-32.99</ele>
        <time>2018-01-19T14:49:35Z</time>
      </trkpt>
      <trkpt lat="47.81146" lon="-2.77539">
        <ele>-33.35</ele>
        <time>2018-01-19T14:49:48Z</time>
      </trkpt>
      <trkpt lat="47.81146" lon="-2.77542">
        <ele>-33.42</ele>
        <time>2018-01-19T14:49:49Z</time>
      </trkpt>
      <trkpt lat="47.81168" lon="-2.77548">
        <ele>-34.54</ele>
        <time>2018-01-19T14:50:03Z</time>
      </trkpt>
      <trkpt lat="47.8119" lon="-2.77552">
        <ele>-35.97</ele>
        <time>2018-01-19T14:50:17Z</time>
      </trkpt>
      <trkpt lat="47.8122" lon="-2.77557">
        <ele>-38.13</ele>
        <time>2018-01-19T14:50:33Z</time>
      </trkpt>
      <trkpt lat="47.8125" lon="-2.77562">
        <ele>-40.56</ele>
        <time>2018-01-19T14:50:51Z</time>
      </trkpt>
      <trkpt lat="47.81258" lon="-2.7757">
        <ele>-41.1</ele>
        <time>2018-01-19T14:50:58Z</time>
      </trkpt>
      <trkpt lat="47.81259" lon="-2.77572">
        <ele>-41.15</ele>
        <time>2018-01-19T14:50:59Z</time>
      </trkpt>
      <trkpt lat="47.81259" lon="-2.77574">
        <ele>-41.23</ele>
        <time>2018-01-19T14:51:00Z</time>
      </trkpt>
      <trkpt lat="47.8126" lon="-2.77577">
        <ele>-41.34</ele>
        <time>2018-01-19T14:51:01Z</time>
      </trkpt>
      <trkpt lat="47.8126" lon="-2.77579">
        <ele>-41.34</ele>
        <time>2018-01-19T14:51:02Z</time>
      </trkpt>
      <trkpt lat="47.81261" lon="-2.77582">
        <ele>-41.46</ele>
        <time>2018-01-19T14:51:03Z</time>
      </trkpt>
      <trkpt lat="47.81261" lon="-2.77584">
        <ele>-41.51</ele>
        <time>2018-01-19T14:51:04Z</time>
      </trkpt>
      <trkpt lat="47.8126" lon="-2.77587">
        <ele>-41.53</ele>
        <time>2018-01-19T14:51:05Z</time>
      </trkpt>
      <trkpt lat="47.81255" lon="-2.77628">
        <ele>-40.58</ele>
        <time>2018-01-19T14:51:22Z</time>
      </trkpt>
      <trkpt lat="47.81245" lon="-2.7768">
        <ele>-37.65</ele>
        <time>2018-01-19T14:51:43Z</time>
      </trkpt>
      <trkpt lat="47.81236" lon="-2.77731">
        <ele>-35.76</ele>
        <time>2018-01-19T14:52:05Z</time>
      </trkpt>
      <trkpt lat="47.81228" lon="-2.77776">
        <ele>-32.97</ele>
        <time>2018-01-19T14:52:25Z</time>
      </trkpt>
      <trkpt lat="47.81224" lon="-2.77812">
        <ele>-31.26</ele>
        <time>2018-01-19T14:52:42Z</time>
      </trkpt>
      <trkpt lat="47.81215" lon="-2.77858">
        <ele>-29.83</ele>
        <time>2018-01-19T14:53:02Z</time>
      </trkpt>
      <trkpt lat="47.81213" lon="-2.77872">
        <ele>-29.26</ele>
        <time>2018-01-19T14:53:08Z</time>
      </trkpt>
      <trkpt lat="47.81212" lon="-2.77874">
        <ele>-29.21</ele>
        <time>2018-01-19T14:53:09Z</time>
      </trkpt>
      <trkpt lat="47.81212" lon="-2.77877">
        <ele>-29.16</ele>
        <time>2018-01-19T14:53:10Z</time>
      </trkpt>
      <trkpt lat="47.81207" lon="-2.77903">
        <ele>-28.15</ele>
        <time>2018-01-19T14:53:22Z</time>
      </trkpt>
      <trkpt lat="47.81202" lon="-2.77943">
        <ele>-26.59</ele>
        <time>2018-01-19T14:53:39Z</time>
      </trkpt>
      <trkpt lat="47.81207" lon="-2.77968">
        <ele>-25.7</ele>
        <time>2018-01-19T14:53:53Z</time>
      </trkpt>
      <trkpt lat="47.81208" lon="-2.77969">
        <ele>-25.65</ele>
        <time>2018-01-19T14:53:54Z</time>
      </trkpt>
      <trkpt lat="47.81231" lon="-2.77984">
        <ele>-25.09</ele>
        <time>2018-01-19T14:54:11Z</time>
      </trkpt>
      <trkpt lat="47.81256" lon="-2.78004">
        <ele>-25.52</ele>
        <time>2018-01-19T14:54:28Z</time>
      </trkpt>
      <trkpt lat="47.81281" lon="-2.78024">
        <ele>-26.62</ele>
        <time>2018-01-19T14:54:45Z</time>
      </trkpt>
      <trkpt lat="47.81309" lon="-2.78046">
        <ele>-27.18</ele>
        <time>2018-01-19T14:55:04Z</time>
      </trkpt>
      <trkpt lat="47.81333" lon="-2.78066">
        <ele>-28.81</ele>
        <time>2018-01-19T14:55:21Z</time>
      </trkpt>
      <trkpt lat="47.81358" lon="-2.78087">
        <ele>-30.07</ele>
        <time>2018-01-19T14:55:39Z</time>
      </trkpt>
      <trkpt lat="47.81379" lon="-2.78105">
        <ele>-31.45</ele>
        <time>2018-01-19T14:55:54Z</time>
      </trkpt>
      <trkpt lat="47.814" lon="-2.7812">
        <ele>-33.14</ele>
        <time>2018-01-19T14:56:08Z</time>
      </trkpt>
      <trkpt lat="47.81422" lon="-2.78136">
        <ele>-34.28</ele>
        <time>2018-01-19T14:56:22Z</time>
      </trkpt>
      <trkpt lat="47.81434" lon="-2.78141">
        <ele>-35.27</ele>
        <time>2018-01-19T14:56:32Z</time>
      </trkpt>
      <trkpt lat="47.81435" lon="-2.7814">
        <ele>-35.31</ele>
        <time>2018-01-19T14:56:33Z</time>
      </trkpt>
      <trkpt lat="47.81441" lon="-2.78133">
        <ele>-35.86</ele>
        <time>2018-01-19T14:56:41Z</time>
      </trkpt>
      <trkpt lat="47.81442" lon="-2.78132">
        <ele>-36.01</ele>
        <time>2018-01-19T14:56:42Z</time>
      </trkpt>
      <trkpt lat="47.81444" lon="-2.78131">
        <ele>-36.07</ele>
        <time>2018-01-19T14:56:43Z</time>
      </trkpt>
      <trkpt lat="47.81445" lon="-2.7813">
        <ele>-36.11</ele>
        <time>2018-01-19T14:56:44Z</time>
      </trkpt>
      <trkpt lat="47.81447" lon="-2.78129">
        <ele>-36.15</ele>
        <time>2018-01-19T14:56:45Z</time>
      </trkpt>
      <trkpt lat="47.81448" lon="-2.78128">
        <ele>-36.17</ele>
        <time>2018-01-19T14:56:46Z</time>
      </trkpt>
      <trkpt lat="47.8145" lon="-2.78127">
        <ele>-36.19</ele>
        <time>2018-01-19T14:56:47Z</time>
      </trkpt>
      <trkpt lat="47.8142" lon="-2.78168">
        <ele>-40.86</ele>
        <time>2018-01-19T15:44:43Z</time>
      </trkpt>
      <trkpt lat="47.81398" lon="-2.78192">
        <ele>-40.66</ele>
        <time>2018-01-19T15:45:01Z</time>
      </trkpt>
      <trkpt lat="47.81386" lon="-2.78206">
        <ele>-40.06</ele>
        <time>2018-01-19T15:45:18Z</time>
      </trkpt>
      <trkpt lat="47.81383" lon="-2.78209">
        <ele>-39.44</ele>
        <time>2018-01-19T15:45:30Z</time>
      </trkpt>
      <trkpt lat="47.81381" lon="-2.78211">
        <ele>-39.35</ele>
        <time>2018-01-19T15:45:32Z</time>
      </trkpt>
      <trkpt lat="47.81364" lon="-2.7823">
        <ele>-39.26</ele>
        <time>2018-01-19T15:45:49Z</time>
      </trkpt>
      <trkpt lat="47.81355" lon="-2.78236">
        <ele>-39.06</ele>
        <time>2018-01-19T15:45:59Z</time>
      </trkpt>
      <trkpt lat="47.81343" lon="-2.78253">
        <ele>-39.1</ele>
        <time>2018-01-19T15:46:11Z</time>
      </trkpt>
      <trkpt lat="47.81324" lon="-2.7829">
        <ele>-38.49</ele>
        <time>2018-01-19T15:46:30Z</time>
      </trkpt>
      <trkpt lat="47.81307" lon="-2.78327">
        <ele>-37.73</ele>
        <time>2018-01-19T15:46:47Z</time>
      </trkpt>
      <trkpt lat="47.81305" lon="-2.7833">
        <ele>-37.47</ele>
        <time>2018-01-19T15:46:50Z</time>
      </trkpt>
      <trkpt lat="47.81301" lon="-2.78331">
        <ele>-37.03</ele>
        <time>2018-01-19T15:47:15Z</time>
      </trkpt>
      <trkpt lat="47.81299" lon="-2.78336">
        <ele>-37.08</ele>
        <time>2018-01-19T15:47:19Z</time>
      </trkpt>
      <trkpt lat="47.81291" lon="-2.7836">
        <ele>-37.02</ele>
        <time>2018-01-19T15:47:33Z</time>
      </trkpt>
      <trkpt lat="47.81288" lon="-2.7839">
        <ele>-36.65</ele>
        <time>2018-01-19T15:47:45Z</time>
      </trkpt>
      <trkpt lat="47.81285" lon="-2.78422">
        <ele>-36.06</ele>
        <time>2018-01-19T15:47:58Z</time>
      </trkpt>
      <trkpt lat="47.81284" lon="-2.78462">
        <ele>-34.97</ele>
        <time>2018-01-19T15:48:14Z</time>
      </trkpt>
      <trkpt lat="47.81281" lon="-2.78506">
        <ele>-34.1</ele>
        <time>2018-01-19T15:48:32Z</time>
      </trkpt>
      <trkpt lat="47.81275" lon="-2.78556">
        <ele>-33.82</ele>
        <time>2018-01-19T15:48:51Z</time>
      </trkpt>
      <trkpt lat="47.81272" lon="-2.78599">
        <ele>-34.02</ele>
        <time>2018-01-19T15:49:09Z</time>
      </trkpt>
      <trkpt lat="47.81267" lon="-2.78645">
        <ele>-33.69</ele>
        <time>2018-01-19T15:49:28Z</time>
      </trkpt>
      <trkpt lat="47.81264" lon="-2.78685">
        <ele>-33.07</ele>
        <time>2018-01-19T15:49:44Z</time>
      </trkpt>
      <trkpt lat="47.81261" lon="-2.78729">
        <ele>-32.86</ele>
        <time>2018-01-19T15:50:03Z</time>
      </trkpt>
      <trkpt lat="47.81258" lon="-2.78772">
        <ele>-32.33</ele>
        <time>2018-01-19T15:50:20Z</time>
      </trkpt>
      <trkpt lat="47.81255" lon="-2.78822">
        <ele>-32.39</ele>
        <time>2018-01-19T15:50:41Z</time>
      </trkpt>
      <trkpt lat="47.8125" lon="-2.78876">
        <ele>-32.07</ele>
        <time>2018-01-19T15:51:02Z</time>
      </trkpt>
      <trkpt lat="47.81248" lon="-2.78929">
        <ele>-31.69</ele>
        <time>2018-01-19T15:51:23Z</time>
      </trkpt>
      <trkpt lat="47.81244" lon="-2.78982">
        <ele>-30.28</ele>
        <time>2018-01-19T15:51:44Z</time>
      </trkpt>
      <trkpt lat="47.81242" lon="-2.7902">
        <ele>-29.26</ele>
        <time>2018-01-19T15:52:00Z</time>
      </trkpt>
      <trkpt lat="47.81237" lon="-2.79063">
        <ele>-27.65</ele>
        <time>2018-01-19T15:52:17Z</time>
      </trkpt>
      <trkpt lat="47.81226" lon="-2.79113">
        <ele>-26.42</ele>
        <time>2018-01-19T15:52:37Z</time>
      </trkpt>
      <trkpt lat="47.81218" lon="-2.7916">
        <ele>-25.83</ele>
        <time>2018-01-19T15:52:56Z</time>
      </trkpt>
      <trkpt lat="47.81209" lon="-2.79211">
        <ele>-25.26</ele>
        <time>2018-01-19T15:53:17Z</time>
      </trkpt>
      <trkpt lat="47.81201" lon="-2.79262">
        <ele>-25.56</ele>
        <time>2018-01-19T15:53:38Z</time>
      </trkpt>
      <trkpt lat="47.81195" lon="-2.79299">
        <ele>-25.87</ele>
        <time>2018-01-19T15:53:54Z</time>
      </trkpt>
      <trkpt lat="47.81189" lon="-2.79334">
        <ele>-25.44</ele>
        <time>2018-01-19T15:54:09Z</time>
      </trkpt>
      <trkpt lat="47.81181" lon="-2.79368">
        <ele>-24.74</ele>
        <time>2018-01-19T15:54:24Z</time>
      </trkpt>
      <trkpt lat="47.81177" lon="-2.79404">
        <ele>-24.07</ele>
        <time>2018-01-19T15:54:38Z</time>
      </trkpt>
      <trkpt lat="47.81168" lon="-2.79448">
        <ele>-23.28</ele>
        <time>2018-01-19T15:54:56Z</time>
      </trkpt>
      <trkpt lat="47.81162" lon="-2.79494">
        <ele>-23.21</ele>
        <time>2018-01-19T15:55:15Z</time>
      </trkpt>
      <trkpt lat="47.8116" lon="-2.79526">
        <ele>-23.48</ele>
        <time>2018-01-19T15:55:29Z</time>
      </trkpt>
      <trkpt lat="47.81161" lon="-2.79531">
        <ele>-23.72</ele>
        <time>2018-01-19T15:55:32Z</time>
      </trkpt>
      <trkpt lat="47.81161" lon="-2.7954">
        <ele>-23.86</ele>
        <time>2018-01-19T15:55:36Z</time>
      </trkpt>
      <trkpt lat="47.81158" lon="-2.7959">
        <ele>-24.21</ele>
        <time>2018-01-19T15:55:54Z</time>
      </trkpt>
      <trkpt lat="47.81158" lon="-2.79622">
        <ele>-24.67</ele>
        <time>2018-01-19T15:56:07Z</time>
      </trkpt>
      <trkpt lat="47.81157" lon="-2.79637">
        <ele>-24.89</ele>
        <time>2018-01-19T15:56:13Z</time>
      </trkpt>
      <trkpt lat="47.81159" lon="-2.79678">
        <ele>-25.79</ele>
        <time>2018-01-19T15:56:31Z</time>
      </trkpt>
      <trkpt lat="47.81158" lon="-2.79716">
        <ele>-26.76</ele>
        <time>2018-01-19T15:56:47Z</time>
      </trkpt>
      <trkpt lat="47.81158" lon="-2.79763">
        <ele>-27.04</ele>
        <time>2018-01-19T15:57:06Z</time>
      </trkpt>
      <trkpt lat="47.81159" lon="-2.79807">
        <ele>-27.6</ele>
        <time>2018-01-19T15:57:24Z</time>
      </trkpt>
      <trkpt lat="47.81158" lon="-2.79821">
        <ele>-27.61</ele>
        <time>2018-01-19T15:57:30Z</time>
      </trkpt>
      <trkpt lat="47.81161" lon="-2.79857">
        <ele>-28.63</ele>
        <time>2018-01-19T15:57:46Z</time>
      </trkpt>
      <trkpt lat="47.81162" lon="-2.79895">
        <ele>-28.78</ele>
        <time>2018-01-19T15:58:01Z</time>
      </trkpt>
      <trkpt lat="47.81162" lon="-2.7995">
        <ele>-29.3</ele>
        <time>2018-01-19T15:58:21Z</time>
      </trkpt>
      <trkpt lat="47.81164" lon="-2.8">
        <ele>-29.93</ele>
        <time>2018-01-19T15:58:41Z</time>
      </trkpt>
      <trkpt lat="47.81164" lon="-2.80035">
        <ele>-29.96</ele>
        <time>2018-01-19T15:58:56Z</time>
      </trkpt>
      <trkpt lat="47.81164" lon="-2.80076">
        <ele>-30.25</ele>
        <time>2018-01-19T15:59:12Z</time>
      </trkpt>
      <trkpt lat="47.81163" lon="-2.80124">
        <ele>-30.71</ele>
        <time>2018-01-19T15:59:31Z</time>
      </trkpt>
      <trkpt lat="47.81164" lon="-2.80159">
        <ele>-31.11</ele>
        <time>2018-01-19T15:59:46Z</time>
      </trkpt>
      <trkpt lat="47.81168" lon="-2.80205">
        <ele>-31.26</ele>
        <time>2018-01-19T16:00:04Z</time>
      </trkpt>
      <trkpt lat="47.81168" lon="-2.80236">
        <ele>-31.37</ele>
        <time>2018-01-19T16:00:17Z</time>
      </trkpt>
      <trkpt lat="47.81172" lon="-2.80278">
        <ele>-31.28</ele>
        <time>2018-01-19T16:00:35Z</time>
      </trkpt>
      <trkpt lat="47.81172" lon="-2.80289">
        <ele>-31.38</ele>
        <time>2018-01-19T16:00:51Z</time>
      </trkpt>
      <trkpt lat="47.81171" lon="-2.80292">
        <ele>-31.45</ele>
        <time>2018-01-19T16:01:20Z</time>
      </trkpt>
      <trkpt lat="47.8117" lon="-2.80293">
        <ele>-30.93</ele>
        <time>2018-01-19T16:01:48Z</time>
      </trkpt>
      <trkpt lat="47.81171" lon="-2.80295">
        <ele>-30.83</ele>
        <time>2018-01-19T16:02:08Z</time>
      </trkpt>
      <trkpt lat="47.8117" lon="-2.80291">
        <ele>-30.78</ele>
        <time>2018-01-19T16:02:42Z</time>
      </trkpt>
      <trkpt lat="47.81168" lon="-2.8029">
        <ele>-31</ele>
        <time>2018-01-19T16:03:19Z</time>
      </trkpt>
      <trkpt lat="47.81167" lon="-2.80289">
        <ele>-30.34</ele>
        <time>2018-01-19T16:04:00Z</time>
      </trkpt>
      <trkpt lat="47.81168" lon="-2.80294">
        <ele>-29.91</ele>
        <time>2018-01-19T16:04:26Z</time>
      </trkpt>
      <trkpt lat="47.8117" lon="-2.80303">
        <ele>-30.04</ele>
        <time>2018-01-19T16:04:38Z</time>
      </trkpt>
      <trkpt lat="47.81171" lon="-2.80307">
        <ele>-30.11</ele>
        <time>2018-01-19T16:04:40Z</time>
      </trkpt>
      <trkpt lat="47.81177" lon="-2.80348">
        <ele>-30.5</ele>
        <time>2018-01-19T16:04:58Z</time>
      </trkpt>
      <trkpt lat="47.81182" lon="-2.80387">
        <ele>-30.45</ele>
        <time>2018-01-19T16:05:16Z</time>
      </trkpt>
      <trkpt lat="47.81191" lon="-2.8043">
        <ele>-30.53</ele>
        <time>2018-01-19T16:05:34Z</time>
      </trkpt>
      <trkpt lat="47.81194" lon="-2.80463">
        <ele>-30.26</ele>
        <time>2018-01-19T16:05:48Z</time>
      </trkpt>
      <trkpt lat="47.81197" lon="-2.80498">
        <ele>-30.21</ele>
        <time>2018-01-19T16:06:04Z</time>
      </trkpt>
      <trkpt lat="47.81198" lon="-2.80531">
        <ele>-30.05</ele>
        <time>2018-01-19T16:06:18Z</time>
      </trkpt>
      <trkpt lat="47.812" lon="-2.80565">
        <ele>-30.17</ele>
        <time>2018-01-19T16:06:34Z</time>
      </trkpt>
      <trkpt lat="47.812" lon="-2.80571">
        <ele>-30.18</ele>
        <time>2018-01-19T16:06:41Z</time>
      </trkpt>
      <trkpt lat="47.812" lon="-2.80584">
        <ele>-30.17</ele>
        <time>2018-01-19T16:06:47Z</time>
      </trkpt>
      <trkpt lat="47.81201" lon="-2.80623">
        <ele>-30.22</ele>
        <time>2018-01-19T16:07:04Z</time>
      </trkpt>
      <trkpt lat="47.81202" lon="-2.80645">
        <ele>-29.69</ele>
        <time>2018-01-19T16:07:15Z</time>
      </trkpt>
      <trkpt lat="47.81206" lon="-2.80677">
        <ele>-29.52</ele>
        <time>2018-01-19T16:07:31Z</time>
      </trkpt>
      <trkpt lat="47.81211" lon="-2.80714">
        <ele>-29.27</ele>
        <time>2018-01-19T16:07:48Z</time>
      </trkpt>
      <trkpt lat="47.81216" lon="-2.8075">
        <ele>-29.27</ele>
        <time>2018-01-19T16:08:06Z</time>
      </trkpt>
      <trkpt lat="47.81223" lon="-2.80779">
        <ele>-29.59</ele>
        <time>2018-01-19T16:08:22Z</time>
      </trkpt>
      <trkpt lat="47.81223" lon="-2.80793">
        <ele>-29.83</ele>
        <time>2018-01-19T16:08:38Z</time>
      </trkpt>
      <trkpt lat="47.81224" lon="-2.80794">
        <ele>-29.83</ele>
        <time>2018-01-19T16:09:00Z</time>
      </trkpt>
      <trkpt lat="47.81224" lon="-2.80787">
        <ele>-29.93</ele>
        <time>2018-01-19T16:09:18Z</time>
      </trkpt>
      <trkpt lat="47.81224" lon="-2.80787">
        <ele>-29.72</ele>
        <time>2018-01-19T16:09:35Z</time>
      </trkpt>
      <trkpt lat="47.81225" lon="-2.80789">
        <ele>-29.95</ele>
        <time>2018-01-19T16:09:53Z</time>
      </trkpt>
      <trkpt lat="47.81225" lon="-2.80785">
        <ele>-29.32</ele>
        <time>2018-01-19T16:10:10Z</time>
      </trkpt>
    </trkseg>
  </trk>
</gpx>